[[{"header":{"parameterUnit":"m.s-1","parameterCategory":1,"la1":30.6,"la2":28.766,"lo1":-90.7593,"lo2":-88.6598,"dx":0.0162,"dy":0.0183,"nx":116,"ny":114,"refTime":"2023-01-27T06:00:00:Z","depth":0,"parameterNumber":2,"parameterNumberName":"U-component_of_WINDS"},"data":[0.0,0.0,0.0,0.0,0.0,0.0,0.0,0.0,0.0,0.0,0.0,0.0,0.0,0.0,0.0,0.0,0.0,0.0,0.0,0.0,0.0,0.0,0.0,0.0,0.0,0.0,0.0,0.0,0.0,0.0,0.0,0.0,0.0,0.0,0.0,0.0,0.0,0.0,0.0,0.0,0.0,0.0,0.0,0.0,0.0,0.0,0.0,0.0,0.0,0.0,0.0,0.0,0.0,0.0,0.0,0.0,0.0,0.0,0.0,0.0,0.0,0.0,0.0,0.0,0.0,0.0,0.0,0.0,0.0,0.0,0.0,0.0,0.0,0.0,0.0,0.0,0.0,0.0,0.0,0.0,0.0,0.0,0.0,0.0,0.0,0.0,0.0,0.0,0.0,0.0,0.0,0.0,0.0,0.0,0.0,0.0,0.0,0.0,0.0,0.0,0.0,0.0,0.0,0.0,0.0,0.0,0.0,0.0,0.0,0.0,0.0,0.0,0.0,0.0,0.0,0.0,0.0,0.0,0.0,0.0,0.0,0.0,0.0,0.0,0.0,0.0,0.0,0.0,0.0,0.0,0.0,0.0,0.0,0.0,0.0,0.0,0.0,0.0,0.0,0.0,0.0,0.0,0.0,0.0,0.0,0.0,0.0,0.0,0.0,0.0,0.0,0.0,0.0,0.0,0.0,0.0,0.0,0.0,0.0,0.0,0.0,0.0,0.0,0.0,0.0,0.0,0.0,0.0,0.0,0.0,0.0,0.0,0.0,0.0,0.0,0.0,0.0,0.0,0.0,0.0,0.0,0.0,0.0,0.0,0.0,0.0,0.0,0.0,0.0,0.0,0.0,0.0,0.0,0.0,0.0,0.0,0.0,0.0,0.0,0.0,0.0,0.0,0.0,0.0,0.0,0.0,0.0,0.0,0.0,0.0,0.0,0.0,0.0,0.0,0.0,0.0,0.0,0.0,0.0,0.0,0.0,0.0,0.0,0.0,0.0,0.0,0.0,0.0,0.0,0.0,0.0,0.0,0.0,0.0,0.0,0.0,0.0,0.0,0.0,0.0,0.0,0.0,0.0,0.0,0.0,0.0,0.0,0.0,0.0,0.0,0.0,0.0,0.0,0.0,0.0,0.0,0.0,0.0,0.0,0.0,0.0,0.0,0.0,0.0,0.0,0.0,0.0,0.0,0.0,0.0,0.0,0.0,0.0,0.0,0.0,0.0,0.0,0.0,0.0,0.0,0.0,0.0,0.0,0.0,0.0,0.0,0.0,0.0,0.0,0.0,0.0,0.0,0.0,0.0,0.0,0.0,0.0,0.0,0.0,0.0,0.0,0.0,0.0,0.0,0.0,0.0,0.0,0.0,0.0,0.0,0.0,0.0,0.0,0.0,0.0,0.0,0.0,0.0,0.0,0.0,0.0,0.0,0.0,0.0,0.0,0.0,0.0,0.0,0.0,0.0,0.0,0.0,0.0,0.0,0.0,0.0,0.0,0.0,0.0,0.0,0.0,0.0,0.0,0.0,0.0,0.0,0.0,0.0,0.0,0.0,0.0,0.0,0.0,0.0,0.0,0.0,0.0,0.0,0.0,0.0,0.0,0.0,0.0,0.0,0.0,0.0,0.0,0.0,0.0,0.0,0.0,0.0,0.0,0.0,0.0,0.0,0.0,0.0,0.0,0.0,0.0,0.0,0.0,0.0,0.0,0.0,0.0,0.0,0.0,0.0,0.0,0.0,0.0,0.0,0.0,0.0,0.0,0.0,0.0,0.0,0.0,0.0,0.0,0.0,0.0,0.0,0.0,0.0,0.0,0.0,0.0,0.0,0.0,0.0,0.0,0.0,0.0,0.0,0.0,0.0,0.0,0.0,0.0,0.0,0.0,0.0,0.0,0.0,0.0,0.0,0.0,0.0,0.0,0.0,0.0,0.0,0.0,0.0,0.0,0.0,0.0,0.0,0.0,0.0,0.0,0.0,0.0,0.0,0.0,0.0,0.0,0.0,0.0,0.0,0.0,0.0,0.0,0.0,0.0,0.0,0.0,0.0,0.0,0.0,0.0,0.0,0.0,0.0,0.0,0.0,0.0,0.0,0.0,0.0,0.0,0.0,0.0,0.0,0.0,0.0,0.0,0.0,0.0,0.0,0.0,0.0,0.0,0.0,0.0,0.0,0.0,0.0,0.0,0.0,0.0,0.0,0.0,0.0,0.0,0.0,0.0,0.0,0.0,0.0,0.0,0.0,0.0,0.0,0.0,0.0,0.0,0.0,0.0,0.0,0.0,0.0,0.0,0.0,0.0,0.0,0.0,0.0,0.0,0.0,0.0,0.0,0.0,0.0,0.0,0.0,0.0,0.0,0.0,0.0,0.0,0.0,0.0,0.0,0.0,0.0,0.0,0.0,0.0,0.0,0.0,0.0,0.0,0.0,0.0,0.0,0.0,0.0,0.0,0.0,0.0,0.0,0.0,0.0,0.0,0.0,0.0,0.0,0.0,0.0,0.0,0.0,0.0,0.0,0.0,0.0,0.0,0.0,0.0,0.0,0.0,0.0,0.0,0.0,0.0,0.0,0.0,0.0,0.0,0.0,0.0,0.0,0.0,0.0,0.0,0.0,0.0,0.0,0.0,0.0,0.0,0.0,0.0,0.0,0.0,0.0,0.0,0.0,0.0,0.0,0.0,0.0,0.0,0.0,0.0,0.0,0.0,0.0,0.0,0.0,0.0,0.0,0.0,0.0,0.0,0.0,0.0,0.0,0.0,0.0,0.0,0.0,0.0,0.0,0.0,0.0,0.0,0.0,0.0,0.0,0.0,0.0,0.0,0.0,0.0,0.0,0.0,0.0,0.0,0.0,0.0,0.0,0.0,0.0,0.0,0.0,0.0,0.0,0.0,0.0,0.0,0.0,0.0,0.0,0.0,0.0,0.0,0.0,0.0,0.0,0.0,0.0,0.0,0.0,0.0,0.0,0.0,0.0,0.0,0.0,0.0,0.0,0.0,0.0,0.0,0.0,0.0,0.0,0.0,0.0,0.0,0.0,0.0,0.0,0.0,0.0,0.0,0.0,0.0,0.0,0.0,0.0,0.0,0.0,0.0,0.0,0.0,0.0,0.0,0.0,0.0,0.0,0.0,0.0,0.0,0.0,0.0,0.0,0.0,0.0,0.0,0.0,0.0,0.0,0.0,0.0,0.0,0.0,0.0,0.0,0.0,0.0,0.0,0.0,0.0,0.0,0.0,0.0,0.0,0.0,0.0,0.0,0.0,0.0,0.0,0.0,0.0,0.0,0.0,0.0,0.0,0.0,0.0,0.0,0.0,0.0,0.0,0.0,0.0,0.0,0.0,0.0,0.0,0.0,0.0,0.0,0.0,0.0,0.0,0.0,0.0,0.0,0.0,0.0,0.0,0.0,0.0,0.0,0.0,0.0,0.0,0.0,0.0,0.0,0.0,0.0,0.0,0.0,0.0,0.0,0.0,0.0,0.0,0.0,0.0,0.0,0.0,0.0,0.0,0.0,0.0,0.0,0.0,0.0,0.0,0.0,0.0,0.0,0.0,0.0,0.0,0.0,0.0,0.0,0.0,0.0,0.0,0.0,0.0,0.0,0.0,0.0,0.0,0.0,0.0,0.0,0.0,0.0,0.0,0.0,0.0,0.0,0.0,0.0,0.0,0.0,0.0,0.0,0.0,0.0,0.0,0.0,0.0,0.0,0.0,0.0,0.0,0.0,0.0,0.0,0.0,0.0,0.0,0.0,0.0,0.0,0.0,0.0,0.0,0.0,0.0,0.0,0.0,0.0,0.0,0.0,0.0,0.0,0.0,0.0,0.0,0.0,0.0,0.0,0.0,0.0,0.0,0.0,0.0,0.0,0.0,0.0,0.0,0.0,0.0,0.0,0.0,0.0,0.0,0.0,0.0,0.0,0.0,0.0,0.0,0.0,0.0,0.0,0.0,0.0,0.0,0.0,0.0,0.0,0.0,0.0,0.0,0.0,0.0,0.0,0.0,0.0,0.0,0.0,0.0,0.0,0.0,0.0,0.0,0.0,0.0,0.0,0.0,0.0,0.0,0.0,0.0,0.0,0.0,0.0,0.0,0.0,0.0,0.0,0.0,0.0,0.0,0.0,0.0,0.0,0.0,0.0,0.0,0.0,0.0,0.0,0.0,0.0,0.0,0.0,0.0,0.0,0.0,0.0,0.0,0.0,0.0,0.0,0.0,0.0,0.0,0.0,0.0,0.0,0.0,0.0,0.0,0.0,0.0,0.0,0.0,0.0,0.0,0.0,0.0,0.0,0.0,0.0,0.0,0.0,0.0,0.0,0.0,0.0,0.0,0.0,0.0,0.0,0.0,0.0,0.0,0.0,0.0,0.0,0.0,0.0,0.0,0.0,0.0,0.0,0.0,0.0,0.0,0.0,0.0,0.0,0.0,0.0,0.0,0.0,0.0,0.0,0.0,0.0,0.0,0.0,0.0,0.0,0.0,0.0,0.0,0.0,0.0,0.0,0.0,0.0,0.0,0.0,0.0,0.0,0.0,0.0,0.0,0.0,0.0,0.0,0.0,0.0,0.0,0.0,0.0,0.0,0.0,0.0,0.0,0.0,0.0,0.0,0.0,0.0,0.0,0.0,0.0,0.0,0.0,0.0,0.0,0.0,0.0,0.0,0.0,0.0,0.0,0.0,0.0,0.0,0.0,0.0,0.0,0.0,0.0,0.0,0.0,0.0,0.0,0.0,0.0,0.0,0.0,0.0,0.0,0.0,0.0,0.0,0.0,0.0,0.0,0.0,0.0,0.0,0.0,0.0,0.0,0.0,0.0,0.0,0.0,0.0,0.0,0.0,0.0,0.0,0.0,0.0,0.0,0.0,0.0,0.0,0.0,0.0,0.0,0.0,0.0,0.0,0.0,0.0,0.0,0.0,0.0,0.0,0.0,0.0,0.0,0.0,0.0,0.0,0.0,0.0,0.0,0.0,0.0,0.0,0.0,0.0,0.0,0.0,0.0,0.0,0.0,0.0,0.0,0.0,0.0,0.0,0.0,0.0,0.0,0.0,0.0,0.0,0.0,0.0,0.0,0.0,0.0,0.0,0.0,0.0,0.0,0.0,0.0,0.0,0.0,0.0,0.0,0.0,0.0,0.0,0.0,0.0,0.0,0.0,0.0,0.0,0.0,0.0,0.0,0.0,0.0,0.0,0.0,0.0,0.0,0.0,0.0,0.0,0.0,0.0,0.0,0.0,0.0,0.0,0.0,0.0,0.0,0.0,0.0,0.0,0.0,0.0,0.0,0.0,0.0,0.0,0.0,0.0,0.0,0.0,0.0,0.0,0.0,0.0,0.0,0.0,0.0,0.0,0.0,0.0,0.0,0.0,0.0,0.0,0.0,0.0,0.0,0.0,0.0,0.0,0.0,0.0,0.0,0.0,0.0,0.0,0.0,0.0,0.0,0.0,0.0,0.0,0.0,0.0,0.0,0.0,0.0,0.0,0.0,0.0,0.0,0.0,0.0,0.0,0.0,0.0,0.0,0.0,0.0,0.0,0.0,0.0,0.0,0.0,0.0,0.0,0.0,0.0,0.0,0.0,0.0,0.0,0.0,0.0,0.0,0.0,0.0,0.0,0.0,0.0,0.0,0.0,0.0,0.0,0.0,0.0,0.0,0.0,0.0,0.0,0.0,0.0,0.0,0.0,0.0,0.0,0.0,0.0,0.0,0.0,0.0,0.0,0.0,0.0,0.0,0.0,0.0,0.0,0.0,0.0,0.0,0.0,0.0,0.0,0.0,0.0,0.0,0.0,0.0,0.0,0.0,0.0,0.0,0.0,0.0,0.0,0.0,0.0,0.0,0.0,0.0,0.0,0.0,0.0,0.0,0.0,0.0,0.0,0.0,0.0,0.0,0.0,0.0,0.0,0.0,0.0,0.0,0.0,0.0,0.0,0.0,0.0,0.0,0.0,0.0,0.0,0.0,0.0,0.0,0.0,0.0,0.0,0.0,0.0,0.0,0.0,0.0,0.0,0.0,0.0,0.0,0.0,0.0,0.0,0.0,0.0,0.0,0.0,0.0,0.0,0.0,0.0,0.0,0.0,0.0,0.0,0.0,0.0,-2.2262,0.0,0.0,0.0,0.0,0.0,0.0,0.0,0.0,0.0,0.0,0.0,0.0,0.0,0.0,0.0,0.0,0.0,0.0,0.0,0.0,0.0,0.0,0.0,0.0,0.0,0.0,0.0,0.0,0.0,0.0,0.0,0.0,0.0,0.0,0.0,0.0,0.0,0.0,0.0,0.0,0.0,0.0,0.0,0.0,0.0,0.0,0.0,0.0,0.0,0.0,0.0,0.0,0.0,0.0,0.0,0.0,0.0,0.0,0.0,0.0,0.0,0.0,0.0,0.0,0.0,0.0,0.0,0.0,0.0,0.0,0.0,0.0,0.0,0.0,0.0,0.0,0.0,0.0,0.0,0.0,0.0,0.0,0.0,0.0,0.0,0.0,0.0,0.0,0.0,0.0,0.0,0.0,0.0,0.0,0.0,0.0,0.0,0.0,0.0,0.0,0.0,0.0,0.0,0.0,0.0,0.0,0.0,0.0,0.0,0.0,0.0,0.0,0.0,0.0,0.0,0.0,-2.1866,0.0,0.0,0.0,0.0,0.0,0.0,0.0,0.0,0.0,0.0,0.0,0.0,0.0,0.0,0.0,0.0,0.0,0.0,0.0,0.0,0.0,0.0,0.0,0.0,0.0,0.0,0.0,0.0,0.0,0.0,0.0,0.0,0.0,0.0,0.0,0.0,0.0,0.0,0.0,0.0,0.0,0.0,0.0,0.0,0.0,0.0,0.0,0.0,0.0,0.0,0.0,0.0,0.0,0.0,0.0,0.0,0.0,0.0,0.0,0.0,0.0,0.0,0.0,0.0,0.0,0.0,0.0,0.0,0.0,0.0,0.0,0.0,0.0,0.0,0.0,0.0,0.0,0.0,0.0,0.0,0.0,0.0,0.0,0.0,0.0,0.0,0.0,0.0,0.0,0.0,0.0,0.0,0.0,0.0,0.0,0.0,0.0,0.0,0.0,0.0,0.0,0.0,0.0,0.0,0.0,0.0,0.0,0.0,-2.3073,-2.2999,-2.2973,-2.214,-2.1773,-2.1773,-2.1773,-2.1336,-2.0712,-2.2339,0.0,0.0,0.0,0.0,0.0,0.0,0.0,0.0,0.0,0.0,0.0,0.0,0.0,0.0,0.0,0.0,0.0,0.0,0.0,0.0,0.0,0.0,0.0,0.0,0.0,0.0,0.0,0.0,0.0,0.0,0.0,0.0,0.0,0.0,0.0,0.0,0.0,0.0,-1.557,-1.5667,-1.5729,-1.5869,-1.9126,0.0,0.0,0.0,0.0,0.0,0.0,0.0,0.0,0.0,0.0,0.0,0.0,0.0,0.0,0.0,0.0,0.0,0.0,0.0,0.0,0.0,0.0,0.0,0.0,0.0,0.0,0.0,0.0,0.0,0.0,0.0,0.0,0.0,0.0,0.0,0.0,0.0,0.0,0.0,0.0,0.0,0.0,0.0,-2.3629,-2.3697,0.0,0.0,0.0,0.0,0.0,0.0,0.0,0.0,0.0,0.0,0.0,0.0,0.0,-2.2706,-2.3388,-2.2595,-2.2215,-2.2178,-2.1375,-2.0972,-2.0972,-2.0867,-2.0789,-2.0789,-2.0789,0.0,-2.0605,-2.0867,0.0,0.0,0.0,0.0,0.0,0.0,0.0,0.0,0.0,0.0,0.0,0.0,0.0,0.0,0.0,0.0,0.0,0.0,0.0,0.0,0.0,0.0,0.0,0.0,0.0,0.0,0.0,0.0,0.0,0.0,0.0,0.0,0.0,0.0,0.0,0.0,-1.5546,-1.498,-1.5199,-1.5199,-1.5199,-1.5305,-1.7964,-1.9398,-1.989,-1.989,0.0,0.0,0.0,0.0,0.0,0.0,0.0,0.0,0.0,0.0,0.0,0.0,0.0,0.0,0.0,0.0,0.0,0.0,0.0,0.0,0.0,0.0,0.0,0.0,0.0,0.0,0.0,0.0,0.0,0.0,0.0,0.0,0.0,0.0,0.0,0.0,0.0,0.0,0.0,-2.4636,-2.4337,-2.4337,-2.3441,-2.2888,0.0,0.0,0.0,0.0,0.0,0.0,0.0,0.0,0.0,-2.1859,-2.1962,-2.1962,-2.1859,-2.1413,-2.1221,-2.1193,-2.0789,-2.0605,-2.0605,-2.0605,-2.0605,-2.0605,-2.0605,-2.0605,-2.0605,-2.0605,-2.0828,-2.1221,0.0,0.0,0.0,0.0,-2.1821,-2.2515,0.0,0.0,0.0,0.0,0.0,0.0,0.0,0.0,0.0,0.0,0.0,0.0,0.0,0.0,0.0,-2.1553,0.0,0.0,0.0,0.0,0.0,0.0,0.0,0.0,0.0,0.0,0.0,-1.5199,-1.4207,-1.4099,-1.4807,-1.4557,-1.4736,-1.5269,-1.6655,-1.7799,-1.8613,-1.8867,-1.9464,0.0,0.0,0.0,0.0,0.0,0.0,0.0,0.0,0.0,0.0,0.0,0.0,0.0,0.0,0.0,0.0,0.0,0.0,0.0,0.0,0.0,0.0,0.0,0.0,0.0,0.0,0.0,0.0,0.0,0.0,0.0,0.0,0.0,0.0,0.0,0.0,0.0,0.0,-2.4707,-2.4409,-2.4933,-2.3672,-2.3158,0.0,0.0,0.0,0.0,0.0,0.0,-2.0811,-2.1403,-2.1531,-2.0938,-2.1614,-2.1653,-2.0938,-2.0938,-2.0938,-2.0938,-2.0938,-2.0938,-2.0938,-2.0938,-2.0938,-2.0938,-2.0938,-2.0938,-2.0928,-2.0693,-2.075,-2.0972,-2.0972,-2.1126,-2.1308,-2.1039,-2.1413,-2.1886,0.0,0.0,0.0,0.0,0.0,0.0,0.0,0.0,0.0,0.0,0.0,0.0,0.0,0.0,-2.0655,-2.0655,-2.0623,-2.059,0.0,0.0,0.0,0.0,0.0,0.0,0.0,0.0,0.0,-1.5199,-1.4207,-1.3745,-1.3745,-1.2842,-1.3448,-1.5199,-1.5305,-1.586,-1.681,-1.7681,-1.8563,-1.9365,0.0,0.0,0.0,0.0,0.0,0.0,0.0,0.0,0.0,0.0,0.0,0.0,0.0,0.0,0.0,0.0,0.0,0.0,0.0,0.0,0.0,0.0,0.0,0.0,0.0,0.0,0.0,0.0,0.0,0.0,0.0,0.0,0.0,0.0,0.0,0.0,0.0,0.0,0.0,-2.4779,-2.2499,0.0,0.0,0.0,0.0,-2.0673,-2.0673,-2.083,-2.1142,-2.1201,-2.1427,-2.1807,-2.1899,-2.1899,-2.1858,-2.1816,-2.1816,-2.1816,-2.1816,-2.1816,-2.1816,-2.1816,-2.1816,-2.1816,-2.1816,-2.1816,-2.1758,-2.0948,-2.1116,-2.1924,-2.1924,-2.2515,-2.322,-2.2291,-2.1952,-2.1886,0.0,0.0,0.0,0.0,0.0,0.0,0.0,0.0,0.0,0.0,0.0,0.0,0.0,-2.0301,-1.9748,-1.9748,-1.9233,-1.8921,-1.8921,0.0,0.0,0.0,0.0,0.0,0.0,0.0,-1.4871,-1.5199,-1.3593,-1.3091,-1.3709,-1.3346,-1.3237,-1.3411,-1.5253,-1.5965,-1.579,-1.7364,-1.8178,-1.8462,-1.8462,-1.8654,0.0,0.0,0.0,0.0,0.0,0.0,0.0,0.0,0.0,0.0,0.0,0.0,0.0,0.0,0.0,0.0,0.0,0.0,0.0,0.0,0.0,0.0,0.0,0.0,0.0,0.0,0.0,0.0,0.0,0.0,0.0,0.0,0.0,0.0,0.0,0.0,0.0,-2.3963,-2.201,0.0,-2.2342,-2.1548,-2.1113,-2.1387,-2.1456,-2.1484,-2.1641,-2.165,-2.1728,-2.1875,-2.1885,-2.1885,-2.1885,-2.1885,-2.1885,-2.1885,-2.1885,-2.1885,-2.1885,-2.1885,-2.1885,-2.1885,-2.1885,-2.1885,-2.1865,-2.1543,-2.1648,-2.195,-2.195,-2.214,-2.2418,-2.207,-2.195,-2.188,0.0,0.0,0.0,0.0,0.0,0.0,0.0,0.0,0.0,0.0,0.0,-2.1132,-2.0268,-1.9365,-1.8844,-1.8844,-1.8337,-1.8008,-1.8008,0.0,0.0,0.0,-1.8008,0.0,0.0,-1.5332,-1.47,-1.47,-1.3411,-1.2915,-1.3237,-1.3237,-1.3062,-1.2842,-1.4764,-1.5473,-1.5305,-1.6862,-1.7716,-1.8008,-1.8008,-1.8008,-1.8202,0.0,0.0,0.0,0.0,0.0,0.0,0.0,0.0,0.0,0.0,0.0,0.0,0.0,0.0,0.0,0.0,0.0,0.0,0.0,0.0,0.0,0.0,0.0,0.0,0.0,0.0,0.0,0.0,0.0,0.0,0.0,0.0,0.0,0.0,-2.3854,-2.3176,-2.3676,-2.1983,-2.1371,-2.2762,-2.202,-2.1572,-2.1865,-2.1885,-2.1953,-2.209,-2.21,-2.2168,-2.2305,-2.2305,-2.2305,-2.2305,-2.2305,-2.2305,-2.2305,-2.2305,-2.2305,-2.2305,-2.2305,-2.2305,-2.2305,-2.2305,-2.2305,-2.2305,-2.2305,-2.2305,-2.2275,-2.1992,-2.1885,-2.1885,-2.1885,-2.1885,-2.1885,0.0,0.0,0.0,0.0,0.0,0.0,0.0,0.0,0.0,0.0,-2.1101,-2.0268,-1.9365,-1.8496,-1.8008,-1.8008,-1.8008,-1.8008,-1.8008,-1.8008,0.0,0.0,0.0,0.0,-1.6636,-1.6541,-1.5596,-1.3724,-1.3695,-1.3236,-1.2331,-1.2318,-1.2783,-1.3688,-1.368,-1.4243,-1.5234,-1.6184,-1.7104,-1.7974,-1.7974,-1.8008,-1.8202,0.0,0.0,0.0,0.0,0.0,0.0,0.0,0.0,0.0,0.0,0.0,0.0,0.0,0.0,0.0,0.0,0.0,0.0,0.0,0.0,0.0,0.0,0.0,0.0,0.0,0.0,0.0,0.0,0.0,0.0,0.0,0.0,0.0,-2.5111,-2.3316,-2.2568,-2.3955,-2.2391,-2.1759,-2.3151,-2.2431,-2.1904,-2.1924,-2.1924,-2.21,-2.251,-2.2529,-2.2715,-2.3081,-2.3091,-2.3091,-2.3091,-2.3091,-2.3091,-2.3091,-2.3091,-2.3091,-2.3091,-2.3091,-2.3091,-2.3091,-2.3091,-2.3091,-2.3091,-2.3091,-2.3091,-2.3013,-2.2246,-2.1924,-2.1924,-2.1924,-2.1924,-2.1924,0.0,0.0,0.0,0.0,0.0,0.0,0.0,0.0,0.0,0.0,-2.0751,-2.0042,-1.8529,-1.8134,-1.8008,-1.8008,-1.8008,-1.8008,-1.8008,0.0,0.0,0.0,0.0,0.0,-1.6602,-1.5455,-1.4615,-1.4067,-1.3567,-1.3224,-1.2959,-1.277,-1.2808,-1.3058,-1.3492,-1.3854,-1.4199,-1.5895,-1.674,-1.7035,-1.7725,-1.8008,-1.811,0.0,0.0,0.0,0.0,0.0,0.0,0.0,0.0,0.0,0.0,0.0,0.0,0.0,0.0,0.0,0.0,0.0,0.0,0.0,0.0,0.0,0.0,0.0,0.0,0.0,0.0,0.0,0.0,0.0,0.0,0.0,-2.5296,-2.4733,-2.4474,-2.394,-2.3339,-2.2624,-2.2057,-2.1989,-2.2643,-2.2493,-2.2471,-2.2773,-2.275,-2.2799,-2.2916,-2.2925,-2.2974,-2.3091,-2.3091,-2.3091,-2.3091,-2.3091,-2.3091,-2.3091,-2.3091,-2.3091,-2.3091,-2.3091,-2.3091,-2.3091,-2.3091,-2.3091,-2.3091,-2.3091,-2.3091,-2.3071,-2.2838,-2.275,-2.275,-2.275,-2.275,-2.275,0.0,0.0,0.0,0.0,0.0,0.0,0.0,0.0,0.0,0.0,-2.059,-1.9944,-1.8202,-1.8008,-1.8008,-1.8008,-1.8008,-1.8008,-1.8008,0.0,0.0,0.0,0.0,-1.6784,-1.6784,-1.5194,-1.4364,-1.4364,-1.3577,-1.3213,-1.3206,-1.3026,-1.2978,-1.2965,-1.3215,-1.3549,-1.4013,-1.5399,-1.6245,-1.6671,-1.7613,-1.8008,-1.811,-1.8977,-1.9299,-1.9529,-2.1259,-2.1908,-2.2002,-2.2823,0.0,0.0,0.0,0.0,0.0,0.0,0.0,0.0,0.0,0.0,0.0,0.0,0.0,0.0,0.0,0.0,0.0,0.0,0.0,0.0,0.0,0.0,0.0,0.0,-2.6029,-2.5747,-2.5539,-2.4199,-2.2984,-2.2257,-2.2148,-2.2314,-2.2691,-2.273,-2.2838,-2.3081,-2.3091,-2.3091,-2.3091,-2.3091,-2.3091,-2.3091,-2.3091,-2.3091,-2.3091,-2.3091,-2.3091,-2.3091,-2.3091,-2.3091,-2.3091,-2.3091,-2.3091,-2.3091,-2.3091,-2.3091,-2.3091,-2.3091,-2.3091,0.0,0.0,0.0,0.0,0.0,-2.3091,-2.3091,0.0,0.0,0.0,0.0,0.0,0.0,0.0,0.0,0.0,0.0,0.0,-2.014,-1.8337,-1.8144,-1.811,-1.8008,-1.8008,-1.8008,0.0,0.0,0.0,-1.8076,-1.7437,-1.7035,-1.6917,-1.5447,-1.4589,-1.4472,-1.367,-1.3307,-1.3307,-1.3273,-1.326,-1.324,-1.2938,-1.331,-1.4253,-1.4925,-1.572,-1.6671,-1.7613,-1.8008,-1.8076,-1.8854,-1.9199,-1.9529,-2.1164,-2.1815,-2.2002,-2.2823,0.0,0.0,0.0,0.0,0.0,0.0,0.0,0.0,0.0,0.0,0.0,0.0,0.0,0.0,0.0,0.0,0.0,0.0,0.0,0.0,0.0,0.0,0.0,0.0,-2.7689,-2.7791,-2.7128,-2.4239,-2.2367,-2.2699,-2.2748,-2.2853,-2.3062,-2.3091,-2.3091,-2.3091,-2.3091,-2.3091,-2.3091,0.0,0.0,0.0,0.0,-2.3091,-2.3091,-2.3091,-2.3091,-2.3091,-2.3091,-2.3091,-2.3091,-2.3091,-2.3091,-2.3091,-2.3091,-2.3091,-2.3091,-2.3091,-2.3091,-2.3091,-2.3091,-2.3091,-2.3091,-2.3091,-2.3091,-2.3091,0.0,0.0,0.0,0.0,0.0,0.0,0.0,0.0,0.0,-2.2491,-2.2271,-2.1463,-1.9274,-1.9044,-1.8754,-1.8076,-1.8008,-1.8008,0.0,0.0,-1.8481,-1.8481,-1.7897,-1.7167,-1.6384,-1.5451,-1.4616,-1.379,-1.3877,-1.3921,-1.3915,-1.3633,-1.352,-1.3493,-1.3032,-1.331,-1.4253,-1.4925,-1.572,-1.6671,-1.7613,-1.8008,-1.8008,-1.8202,-1.8687,-1.9431,-2.0494,-2.1302,-2.2002,-2.2823,-2.3108,-2.3183,-2.369,-2.3841,0.0,0.0,0.0,0.0,0.0,0.0,0.0,0.0,0.0,0.0,0.0,0.0,0.0,0.0,0.0,0.0,0.0,0.0,0.0,-2.7313,-2.7378,-2.6945,-2.5496,-2.4661,-2.4272,-2.4365,-2.4375,-2.4033,-2.3169,-2.3091,-2.3091,-2.3091,-2.3091,-2.3091,-2.3091,-2.3091,-2.3091,-2.3091,-2.3091,-2.3091,-2.3091,-2.3091,-2.3091,-2.3091,0.0,0.0,-2.3091,-2.3091,-2.3091,-2.3091,-2.3091,-2.3091,-2.3091,-2.3091,-2.3091,-2.3091,-2.3091,-2.3091,-2.3091,-2.3091,-2.3091,-2.3091,0.0,0.0,0.0,0.0,0.0,0.0,0.0,0.0,0.0,0.0,-2.2861,-2.2092,-2.0522,-1.9734,-1.911,-1.8687,-1.8236,0.0,0.0,-1.8607,-1.8695,-1.8955,-1.8351,-1.7515,-1.6462,-1.5759,-1.4907,-1.3868,-1.4015,-1.4088,-1.4082,-1.3935,-1.3868,-1.3841,-1.324,-1.3764,-1.5114,-1.5178,-1.6009,-1.7354,-1.7794,-1.8008,-1.8008,-1.8008,-1.8269,-1.8821,-2.0139,-2.0878,-2.1428,-2.2689,-2.3296,-2.3584,-2.3904,-2.4192,-2.4519,0.0,0.0,0.0,0.0,0.0,0.0,0.0,0.0,0.0,0.0,0.0,0.0,0.0,0.0,-2.7116,-2.7776,0.0,-2.8088,-2.8108,-2.835,-2.8267,-2.7418,-2.7279,-2.6449,-2.4211,-2.3963,-2.3714,-2.3178,-2.3091,-2.3091,-2.3091,-2.3091,-2.3091,-2.3091,-2.3091,-2.3091,-2.3091,-2.3091,-2.3091,-2.3091,-2.3091,-2.3091,-2.3091,-2.3091,-2.3091,-2.3091,-2.3091,-2.3091,-2.3091,-2.3091,-2.3091,-2.3091,-2.3091,-2.3091,-2.3091,-2.3091,-2.3091,-2.3091,-2.3091,-2.3091,-2.3091,0.0,0.0,0.0,0.0,0.0,0.0,0.0,0.0,0.0,0.0,-2.3517,-2.2879,-2.1908,-2.0699,-1.9822,0.0,0.0,0.0,-1.9238,-1.9033,-1.9007,-1.9394,-1.8805,-1.8034,-1.7156,-1.641,-1.5504,-1.4412,-1.4412,-1.4292,-1.4088,-1.4088,-1.4055,-1.3975,-1.3641,-1.4384,-1.5891,-1.5616,-1.6437,-1.8008,-1.8008,-1.8008,-1.8008,-1.8202,-1.8361,-1.8687,-2.0107,-2.0814,-2.1302,-2.2782,-2.3615,-2.4029,-2.4243,-2.4619,-2.5039,-2.5598,-2.5762,0.0,0.0,0.0,0.0,0.0,0.0,0.0,0.0,-2.6973,-2.6692,-2.7317,-2.7387,-2.7318,-2.7419,-2.826,-2.8925,-2.9076,-2.949,-2.9663,-2.9209,-2.917,-2.7666,-2.3594,-2.3474,-2.3594,-2.3135,-2.3091,-2.3091,-2.3091,-2.3091,-2.3091,-2.3091,-2.3091,-2.3091,-2.3091,-2.3091,-2.3091,-2.3091,-2.3091,-2.3091,-2.3091,-2.3091,-2.3091,-2.3091,-2.3091,-2.3091,-2.3091,-2.3091,-2.3091,-2.3091,-2.3091,-2.3091,-2.3091,-2.3091,-2.3091,-2.3091,-2.3091,-2.3091,-2.3091,0.0,0.0,0.0,0.0,0.0,0.0,0.0,0.0,0.0,0.0,0.0,0.0,0.0,0.0,0.0,0.0,0.0,0.0,-1.9277,-1.959,-1.9795,-1.9844,-1.9232,-1.8854,-1.8766,-1.7681,-1.6601,-1.5538,-1.5538,-1.5012,-1.4088,-1.4088,-1.3948,-1.3681,-1.4194,-1.4897,-1.5688,-1.6219,-1.7035,-1.8008,-1.8008,-1.8008,-1.8076,-1.8844,-1.9628,-2.0333,-2.0526,-2.1542,-2.2928,-2.3666,-2.3941,-2.4167,-2.5121,-2.546,-2.5624,-2.6223,-2.6399,-2.6445,-2.6611,-2.6624,-2.6624,-2.6624,-2.6555,-2.6521,0.0,-2.6555,-2.6521,-2.6624,-2.6996,-2.7431,-2.7921,-2.8511,-2.9101,-2.9616,-2.9754,-2.9131,-2.7139,-2.6894,-2.5933,-2.3387,-2.4893,-2.5316,-2.3309,-2.3091,-2.3091,-2.3091,-2.3091,-2.3091,-2.3091,-2.3091,-2.3091,-2.3091,-2.3091,-2.3091,-2.3091,-2.3091,-2.3091,-2.3091,-2.3091,-2.3091,-2.3091,-2.3091,-2.3091,-2.3091,-2.3091,-2.3091,-2.3091,-2.3091,-2.3091,-2.3091,-2.3091,-2.3091,-2.3091,-2.3091,-2.3091,-2.3091,0.0,0.0,0.0,0.0,0.0,0.0,0.0,0.0,0.0,0.0,0.0,0.0,0.0,0.0,0.0,0.0,0.0,-1.9992,-2.0802,-2.0279,-2.0029,-2.0283,-2.0071,-1.9638,-1.8997,-1.851,-1.7738,-1.6642,-1.6026,-1.5408,-1.4789,-1.4111,-1.3947,-1.4183,-1.4328,-1.514,-1.6413,-1.6554,-1.7139,-1.8008,-1.8008,-1.8303,-1.8787,-1.9177,-2.0171,-2.14,-2.1702,-2.2254,0.0,0.0,-2.4682,-2.5008,-2.5448,-2.5824,-2.6185,-2.6424,-2.6499,-2.6499,-2.6499,-2.6499,-2.6499,-2.6499,-2.6499,-2.6499,-2.6499,-2.6499,-2.6587,-2.6901,-2.7381,-2.7934,-2.8486,-2.9051,-2.9515,-2.9754,-2.9236,-2.8478,-2.7574,-2.7441,-2.6614,-2.4382,-2.5515,-2.5599,-2.3299,-2.3091,-2.3091,-2.3091,-2.3091,-2.3091,-2.3091,-2.3091,-2.3091,-2.3091,-2.3091,-2.3091,-2.3091,-2.3091,-2.3091,-2.3091,-2.3091,-2.3091,-2.3091,-2.3091,-2.3091,-2.3091,-2.3091,-2.3091,-2.3091,-2.3091,-2.3091,-2.3091,-2.3091,-2.3091,-2.3091,-2.3091,-2.3091,-2.3091,0.0,0.0,0.0,0.0,0.0,0.0,0.0,0.0,0.0,0.0,0.0,0.0,0.0,0.0,0.0,0.0,-2.1408,-2.0981,-2.1775,-2.0886,-2.0292,-2.0243,-2.0253,-1.9899,-1.9108,-1.907,-1.8515,-1.7403,-1.6629,-1.5982,-1.5464,-1.4645,-1.4478,-1.4881,-1.4937,-1.5695,-1.6884,-1.6947,-1.7526,-1.8361,-1.8361,-1.8877,-1.9683,-1.9922,-2.0814,-2.198,-2.2504,-2.2855,0.0,0.0,-2.5285,-2.5624,-2.5787,-2.616,-2.6499,-2.6499,-2.6499,-2.6499,-2.6499,-2.6499,-2.6499,-2.6499,-2.6499,-2.6499,-2.6499,-2.6499,-2.665,-2.7203,-2.772,-2.8273,-2.8787,-2.9402,-2.9792,-2.9792,-2.9106,-2.8478,-2.8136,-2.7844,-2.6942,-2.5031,-2.5252,-2.4893,-2.3266,-2.3091,-2.3091,-2.3091,-2.3091,-2.3091,-2.3091,-2.3091,-2.3091,-2.3091,-2.3091,-2.3091,-2.3091,-2.3091,-2.3091,-2.3091,-2.3091,-2.3091,-2.3091,-2.3091,-2.3091,-2.3135,-2.343,-2.3551,-2.3551,-2.3551,-2.3551,-2.3551,-2.3222,-2.3091,-2.3091,-2.3091,-2.3091,-2.3091,0.0,0.0,0.0,0.0,0.0,0.0,0.0,0.0,0.0,0.0,0.0,0.0,0.0,0.0,0.0,-2.4127,-2.3187,-2.2265,-2.1486,-2.1366,-2.074,-1.9419,-1.9326,-1.9326,-1.929,-1.929,-1.8757,-1.7708,-1.7671,-1.7073,-1.5978,-1.594,-1.5791,-1.5598,-1.652,-1.6813,-1.6689,-1.7579,-1.8462,-1.9276,-1.9276,-1.9792,-2.0655,-2.1491,-2.1846,-2.198,-2.2504,0.0,0.0,0.0,-2.5586,-2.5686,-2.6285,-2.6474,-2.6499,-2.6499,-2.6499,-2.6499,-2.6499,-2.6499,-2.6499,-2.6499,-2.6499,-2.6499,-2.6499,-2.6499,-2.665,-2.7203,-2.772,-2.8273,-2.8787,-2.9402,-2.9792,-2.9792,-2.9753,-2.9365,-2.8255,-2.7197,-2.6099,-2.4957,-2.3844,-2.3178,-2.3101,-2.3091,-2.3091,-2.3091,-2.3091,-2.3091,-2.3091,-2.3091,-2.3091,-2.3091,-2.3091,-2.3091,-2.3091,-2.3091,-2.3091,-2.3091,-2.3091,-2.3091,-2.3091,-2.3091,-2.3091,-2.3178,-2.4253,-2.4745,-2.4745,-2.4745,-2.4745,-2.4617,-2.3507,-2.3091,-2.3091,-2.3091,-2.3091,-2.3091,0.0,0.0,0.0,0.0,0.0,0.0,0.0,0.0,0.0,0.0,0.0,0.0,0.0,0.0,0.0,0.0,-2.4067,-2.3496,-2.3962,-2.2017,-2.0834,-2.0699,-1.979,-1.9287,-1.9287,-1.9287,-1.9131,-1.8756,-1.8045,-1.7381,-1.6776,-1.6067,-1.5931,-1.6298,-1.6589,-1.7026,-1.7569,-1.8476,-1.9044,-1.9332,-1.9944,-2.0687,-2.1491,-2.1784,-2.2573,-2.3543,0.0,0.0,0.0,0.0,-2.6197,-2.6235,-2.6436,-2.6499,-2.6499,-2.6499,-2.6499,-2.6499,-2.6499,-2.6499,-2.6499,-2.6499,-2.6499,-2.6499,-2.6499,-2.6499,-2.6751,-2.7645,-2.7971,-2.8398,-2.9327,-2.9666,-2.9792,-2.9792,-2.9157,-2.8557,-2.8136,-2.7168,-2.6099,-2.4957,-2.4457,-2.392,-2.3178,-2.3091,-2.3091,-2.3091,-2.3091,-2.3091,-2.3091,-2.3091,-2.3091,-2.3091,-2.3091,-2.3464,-2.4211,-2.4211,-2.4595,-2.5347,-2.5347,-2.5347,-2.5347,-2.5347,-2.5347,-2.54,-2.5766,-2.5933,-2.5933,-2.5933,-2.5933,-2.5891,-2.5515,-2.5347,-2.5347,-2.5347,-2.5347,-2.5147,0.0,0.0,0.0,0.0,0.0,0.0,0.0,0.0,0.0,0.0,0.0,0.0,0.0,0.0,0.0,0.0,0.0,-2.4695,-2.5129,-2.3011,-2.1664,-2.1523,-2.0386,-1.9774,-1.9774,-1.947,-1.9304,-1.9304,-1.8299,-1.7702,-1.7478,-1.6777,-1.6837,-1.7556,-1.7556,-1.8075,-1.8977,-1.9529,-1.9944,-2.0268,-2.0846,-2.1585,-2.2353,-2.2647,-2.3386,0.0,0.0,0.0,0.0,0.0,-2.6679,-2.6871,-2.6589,-2.6679,-2.6871,-2.6589,-2.6679,-2.6871,-2.6589,-2.6714,-2.6939,-2.6939,-2.6939,-2.6939,-2.6939,-2.6714,-2.6801,-2.7871,-2.8109,-2.8448,-2.9578,-2.9792,-2.9792,-2.9792,-2.9197,-2.8727,-2.8727,-2.7775,-2.6666,-2.5546,-2.5041,-2.45,-2.38,-2.3714,-2.3551,-2.3135,-2.3091,-2.3091,-2.3091,-2.3474,-2.3714,-2.3714,-2.4102,-2.4681,-2.542,-2.542,-2.5766,-2.6524,-2.6524,-2.6524,-2.6524,-2.6524,-2.6524,-2.6513,-2.6924,-2.7087,-2.7087,-2.7087,-2.7087,-2.7046,-2.6637,-2.6524,-2.6524,-2.6524,-2.6524,-2.6307,0.0,0.0,0.0,0.0,0.0,0.0,0.0,0.0,0.0,0.0,0.0,0.0,0.0,0.0,0.0,0.0,0.0,0.0,-2.5084,-2.4243,-2.322,-2.1925,-2.1118,-2.0707,-2.0707,-1.9901,-1.9453,-1.942,-1.8586,-1.8168,-1.8144,-1.8144,-1.8553,-1.9365,-1.9365,-1.9824,-2.059,-2.0655,-2.1164,-2.197,-2.2002,-2.2494,-2.3305,-2.406,0.0,0.0,0.0,0.0,-2.7122,-2.6683,-2.7048,-2.7571,-2.6748,-2.704,-2.7484,-2.6714,-2.7061,-2.755,-2.6782,-2.7162,-2.7769,-2.7703,-2.7703,-2.7703,-2.7637,-2.7061,-2.6836,-2.7883,-2.8133,-2.8485,-2.9578,-2.9792,-2.9792,-2.9792,-2.9792,-2.9792,-2.9792,-2.8806,-2.7723,-2.6678,-2.5588,-2.4872,-2.4872,-2.4872,-2.4414,-2.3343,-2.3256,-2.3256,-2.3256,-2.4296,-2.4872,-2.4872,-2.5922,-2.6524,-2.6595,-2.6648,-2.6689,-2.6689,-2.6689,-2.6689,-2.6689,-2.6689,-2.6689,-2.673,-2.7735,-2.8176,-2.8176,-2.8176,-2.8176,-2.8096,-2.7087,-2.6689,-2.6689,-2.6689,-2.6689,-2.6689,0.0,0.0,0.0,0.0,0.0,0.0,0.0,0.0,0.0,0.0,0.0,0.0,0.0,0.0,0.0,0.0,0.0,0.0,-2.668,-2.5018,-2.404,-2.409,-2.2889,0.0,0.0,0.0,0.0,-2.108,-2.0859,-2.048,-1.9944,-1.9944,-2.0042,-2.0268,-2.0268,-2.0398,-2.0655,-2.1302,-2.2015,-2.2784,0.0,-2.415,-2.4838,0.0,0.0,0.0,0.0,0.0,-2.7244,-2.6915,-2.7197,-2.7571,-2.6748,-2.6658,-2.6782,-2.6555,-2.7061,-2.767,-2.7451,-2.8019,-2.8524,-2.7855,-2.7703,-2.7537,-2.6939,-2.7095,-2.7519,-2.8015,-2.8615,-2.9202,-2.9732,-2.9792,-2.9792,-2.9792,-2.9792,-2.9792,-2.9792,-2.8806,-2.8016,-2.7723,-2.6748,-2.6058,-2.6058,-2.6058,-2.5933,-2.5641,-2.5641,-2.5641,-2.5641,-2.5891,-2.6058,-2.6058,-2.6348,-2.6883,-2.7683,-2.853,-2.8961,-2.8961,-2.8961,-2.8961,-2.8961,-2.8961,-2.8961,-2.8961,-2.9248,-2.9365,-2.9365,-2.9365,-2.9365,-2.9326,-2.9091,-2.8961,-2.8961,-2.8961,-2.8961,-2.8961,0.0,0.0,0.0,0.0,0.0,0.0,0.0,0.0,0.0,0.0,0.0,0.0,0.0,0.0,0.0,0.0,0.0,0.0,0.0,-2.6004,-2.53,-2.5587,-2.4538,0.0,0.0,0.0,0.0,0.0,0.0,0.0,-2.1095,-2.1405,-2.1603,-2.1682,-2.1974,-2.2341,-2.2729,-2.3246,0.0,0.0,0.0,0.0,0.0,0.0,0.0,0.0,0.0,-2.6776,-2.7396,-2.7506,-2.7183,-2.6841,-2.7171,-2.7407,-2.7604,-2.7604,-2.8182,-2.8748,-2.8363,-2.8907,-2.9442,-2.8971,-2.8844,-2.8716,-2.8266,-2.8214,-2.8352,-2.8621,-2.9054,-2.9477,-2.9757,-2.9792,-2.9792,-2.9792,-2.9792,-2.9792,-2.9792,-2.9236,-2.8648,-2.8176,-2.7562,-2.7197,-2.7197,-2.7197,-2.7412,-2.7919,-2.7058,-2.6524,-2.6524,-2.6964,-2.7197,-2.7197,-2.7678,-2.8251,-2.8858,-2.9495,-2.9792,-2.9792,-2.9792,-2.9792,-2.9792,-2.9792,-2.9792,-2.9792,0.0,-2.9792,-2.9792,-2.9792,-2.9792,-2.9792,-2.9792,-2.9792,-2.9792,-2.9792,-2.9792,-2.9792,0.0,0.0,0.0,0.0,0.0,0.0,0.0,0.0,0.0,0.0,0.0,0.0,0.0,0.0,0.0,0.0,0.0,0.0,0.0,0.0,0.0,0.0,-2.6027,0.0,-2.5701,-2.4954,-2.4506,0.0,0.0,0.0,0.0,0.0,0.0,0.0,0.0,0.0,0.0,0.0,0.0,0.0,0.0,0.0,0.0,0.0,0.0,0.0,-2.6642,-2.6977,-2.743,-2.7894,-2.713,-2.6214,-2.7707,-2.8495,-2.8892,-2.8975,-2.9628,-3.0133,-2.938,-2.9797,-3.0419,-3.0329,-3.0299,-3.0269,-3.0133,-2.9628,-2.9192,-2.9281,-2.9434,-2.9581,-2.9669,-2.9741,-2.9792,-2.9792,-2.9792,-2.9792,-2.9792,-2.9792,-2.9443,-2.8426,-2.8347,-2.8347,-2.8347,-2.8347,-2.8727,-2.9714,-2.8011,-2.6935,-2.6935,-2.7815,-2.8347,-2.8347,-2.9275,-2.9792,-2.9792,-2.9792,-2.9792,-2.9792,-2.9792,-2.9792,-2.9792,-2.9792,-2.9792,-2.9792,-2.9792,0.0,-2.9792,-2.9792,-2.9792,-2.9792,-2.9792,-2.9792,-2.9792,-2.9792,-2.9792,-2.9792,0.0,0.0,0.0,0.0,0.0,0.0,0.0,0.0,0.0,0.0,0.0,0.0,0.0,0.0,0.0,0.0,0.0,0.0,0.0,0.0,0.0,0.0,0.0,0.0,-2.7214,-2.7082,-2.6689,-2.6079,-2.5916,0.0,0.0,0.0,0.0,0.0,0.0,0.0,0.0,0.0,0.0,0.0,0.0,0.0,0.0,0.0,0.0,0.0,-2.7408,-2.7081,-2.6697,-2.6771,-2.7285,-2.7858,-2.8,-2.8112,-2.8291,-2.885,-2.9628,-3.0269,-3.0103,-3.0673,-3.1117,-3.0464,-3.0299,-3.0103,-2.938,-2.9659,-2.9794,-2.8859,-2.9577,-3.0105,-2.9238,-2.9465,-2.9792,-2.9792,-2.9792,-2.9792,-2.9792,-2.9792,-2.9714,-2.9534,-2.9495,-2.9495,-2.9495,-2.9495,-2.9585,-2.9792,-2.9456,-2.9209,-2.9209,-2.9417,-2.9495,-2.9495,-2.9714,-2.9792,-2.9792,-2.9792,-2.9792,-2.9792,-2.9792,-2.9792,-2.9792,-2.9792,-2.9792,-2.9792,-2.9792,0.0,-2.9792,-2.9792,-2.9792,-2.9792,-2.9792,-2.9792,-2.9792,-2.9792,-2.9792,-2.9792,0.0,0.0,0.0,0.0,0.0,0.0,0.0,0.0,0.0,0.0,0.0,0.0,0.0,0.0,0.0,0.0,0.0,0.0,0.0,0.0,0.0,0.0,0.0,0.0,0.0,-2.8067,-2.7745,-2.706,0.0,-2.699,-2.5987,-2.6375,-2.6322,-2.5987,-2.6375,-2.6534,0.0,0.0,0.0,0.0,0.0,0.0,0.0,0.0,0.0,0.0,0.0,-2.7382,-2.706,-2.706,-2.7445,-2.79,-2.7783,-2.8174,-2.8828,-2.9575,-3.0308,-3.0925,-3.0925,-3.1219,-3.1409,-3.1029,-3.0925,-3.0807,-3.0389,-3.0614,-3.0593,-2.9436,-2.9936,-3.0239,-2.9098,-2.9402,-2.9792,-2.9792,-2.9792,-2.9792,-2.9792,-2.9792,-2.9792,-2.9792,-2.9792,-2.9792,-2.9792,-2.9792,-2.9792,-2.9792,-2.9792,-2.9792,-2.9792,-2.9792,-2.9792,-2.9792,-2.9792,-2.9792,-2.9792,-2.9792,-2.9792,-2.9792,-2.9792,-2.9792,-2.9792,-2.9792,-3.0075,-3.052,-3.052,0.0,-3.1267,-3.1267,-3.1267,-3.1206,-3.0733,-3.052,-3.052,-3.052,-3.0203,-2.9869,0.0,0.0,0.0,0.0,0.0,0.0,0.0,0.0,0.0,0.0,0.0,0.0,0.0,0.0,0.0,0.0,0.0,0.0,0.0,0.0,0.0,0.0,0.0,0.0,0.0,0.0,0.0,-2.7993,-2.8463,0.0,0.0,0.0,0.0,0.0,-2.768,-2.7919,-2.7785,0.0,0.0,0.0,0.0,-2.8091,0.0,0.0,0.0,0.0,0.0,-2.76,-2.76,-2.76,-2.76,-2.7573,-2.753,-2.8273,-2.9332,-3.025,-3.0853,-3.1316,-3.1466,-3.1511,-3.1511,-3.1511,-3.1511,-3.1511,-3.1511,-3.1511,-3.1205,-3.0122,-3.019,-3.0153,-2.9166,-2.9328,-2.9641,-2.9779,-2.9792,-2.9792,-2.9792,-2.9792,-2.9792,-2.9792,-2.9792,-2.9792,-2.9792,-2.9792,-2.9792,-2.9792,-2.9792,-2.9792,-2.9792,-2.9792,-2.9792,-2.9792,-2.9792,-2.9792,-2.9792,-2.9998,-3.0113,-3.0113,-3.0317,-3.0394,-3.0394,-3.0394,-3.0809,-3.1499,-3.1499,0.0,0.0,-3.2593,-3.2593,-3.2522,-3.1779,-3.1499,-3.1499,-3.1499,-3.1007,-3.0495,0.0,0.0,0.0,0.0,0.0,0.0,0.0,0.0,0.0,0.0,0.0,0.0,0.0,0.0,0.0,0.0,0.0,0.0,0.0,0.0,0.0,0.0,0.0,0.0,0.0,0.0,0.0,-2.9225,-2.9293,0.0,0.0,0.0,0.0,0.0,0.0,-2.8927,-2.8415,-2.8415,0.0,0.0,0.0,0.0,0.0,0.0,0.0,0.0,0.0,-2.76,-2.76,-2.76,-2.76,-2.76,-2.7584,-2.8096,-2.8916,-3.0135,-3.0552,-3.0731,-3.1331,-3.1511,-3.1511,-3.1511,-3.1511,-3.1511,-3.1511,-3.1511,-3.1263,-3.0446,-3.0048,-2.9779,-2.9425,-2.9153,-2.9176,-2.9704,-2.9792,-2.9792,-2.9792,-2.9792,-2.9792,-2.9792,-2.9792,-2.9792,-2.9792,-2.9792,-2.9792,-2.9792,-2.9792,-2.9792,-2.9792,-2.9792,-2.9792,-2.9792,-2.9792,-2.9792,-2.9792,-3.0658,-3.1068,-3.1068,-3.1924,-3.2357,-3.2357,-3.2357,-3.2393,-3.2464,-3.2464,0.0,0.0,-3.2593,-3.2593,-3.2593,-3.25,-3.2464,-3.2464,-3.2464,-3.2429,-3.2357,0.0,0.0,0.0,0.0,0.0,0.0,0.0,0.0,0.0,0.0,0.0,0.0,0.0,0.0,0.0,0.0,0.0,0.0,0.0,0.0,0.0,0.0,0.0,0.0,0.0,0.0,-2.9761,-2.9406,-2.9761,0.0,0.0,0.0,0.0,0.0,0.0,-2.9271,-2.9042,-2.9042,0.0,0.0,0.0,0.0,0.0,0.0,0.0,0.0,0.0,0.0,-2.76,-2.76,-2.76,-2.76,-2.76,-2.7779,-2.8184,-2.9086,-2.9639,-3.0088,-3.0746,-3.0883,-3.0987,-3.1406,-3.1511,-3.1511,-3.1511,-3.1511,-3.1278,-3.0464,-3.0449,-3.0229,-2.9063,-2.9311,-2.9598,-2.9303,-2.9566,-2.9792,-2.9792,-2.9792,-2.9792,-2.9792,-2.9792,-2.9792,-2.9792,-2.9792,-2.9792,-2.9792,-3.0317,-3.062,-3.062,-3.062,-3.062,-3.062,-3.1193,-3.1476,-3.1476,-3.1865,-3.2033,-3.2069,-3.2429,-3.2593,-3.2593,-3.2593,-3.2925,-3.3449,-3.3449,0.0,0.0,-3.4341,-3.4341,-3.4308,-3.3671,-3.3449,-3.3449,-3.3449,-3.3101,-3.2664,0.0,0.0,0.0,0.0,0.0,0.0,0.0,0.0,0.0,0.0,0.0,0.0,0.0,0.0,0.0,0.0,0.0,0.0,0.0,0.0,0.0,0.0,0.0,0.0,0.0,0.0,0.0,0.0,-3.0372,-3.0351,0.0,0.0,-2.9827,-2.9673,0.0,0.0,0.0,0.0,0.0,0.0,0.0,0.0,0.0,0.0,0.0,0.0,0.0,0.0,0.0,0.0,0.0,-2.7625,-2.781,-2.7735,-2.7735,-2.8397,-2.8921,-2.943,-3.0058,-3.0357,-3.0612,-3.1077,-3.1346,-3.1511,-3.1511,-3.1511,-3.1351,-3.0777,-3.0781,-3.0523,-2.9485,-2.9504,-2.9539,-2.9105,-2.9303,-2.9528,-2.9528,-2.9679,-2.9792,-2.9792,-2.9792,-2.9792,-2.9792,-2.9792,-2.9934,-3.0177,-3.0833,-3.1315,-3.1609,-3.1888,-3.1888,-3.1609,-3.2249,-3.2593,-3.2593,-3.289,-3.3031,-3.3031,-3.3325,-3.3463,-3.3463,-3.3463,-3.3822,-3.4428,-3.4428,0.0,0.0,-3.5504,-3.5504,-3.5439,-3.4725,-3.4428,-3.4428,-3.4428,-3.4041,-3.3547,0.0,0.0,0.0,0.0,0.0,0.0,0.0,0.0,0.0,0.0,0.0,0.0,0.0,0.0,0.0,0.0,0.0,0.0,0.0,0.0,0.0,0.0,0.0,0.0,0.0,0.0,0.0,0.0,0.0,0.0,-3.1171,-3.1171,-3.0858,-3.033,0.0,0.0,0.0,0.0,0.0,0.0,0.0,0.0,0.0,0.0,0.0,0.0,0.0,0.0,0.0,0.0,0.0,0.0,0.0,-2.8091,-2.7735,-2.8397,-2.8607,-2.8757,-2.9442,-3.0043,-3.0507,-3.0507,-3.1002,-3.1511,-3.1511,-3.1511,-3.1511,-3.1511,-3.0866,-3.047,-3.0996,-2.969,-2.8697,-2.9302,-2.9125,-2.89,-2.89,-2.9428,-2.9792,-2.9792,-2.9792,-2.9792,-2.9792,-2.9792,-3.0177,-3.1106,-3.118,-3.1609,-3.2522,-3.3449,-3.3553,-3.2593,-3.2593,-3.2593,-3.2593,-3.3518,-3.3993,-3.3993,-3.4986,-3.5472,-3.5472,-3.5472,-3.5472,-3.5472,-3.5472,0.0,0.0,-3.5504,-3.5504,-3.5504,-3.5504,-3.5472,-3.5472,-3.5472,-3.5472,-3.5472,0.0,0.0,0.0,0.0,0.0,0.0,0.0,0.0,0.0,0.0,0.0,0.0,0.0,0.0,0.0,0.0,0.0,0.0,0.0,0.0,0.0,0.0,0.0,0.0,0.0,0.0,0.0,0.0,0.0,0.0,0.0,0.0,0.0,-3.0918,-3.1114,-3.1095,0.0,0.0,0.0,0.0,0.0,0.0,0.0,0.0,0.0,0.0,0.0,0.0,0.0,0.0,0.0,0.0,0.0,0.0,0.0,-2.7854,-2.7929,-2.8064,-2.8727,-2.9056,-2.931,-2.9759,-3.0357,-3.0836,-3.0836,-3.1167,-3.1511,-3.1511,-3.1307,-3.0999,-3.0619,-3.0389,-3.0151,-2.9732,-2.9416,-2.9422,-2.9962,-2.9243,-2.8847,-2.9468,-2.8982,-2.9036,-3.0112,-3.0212,-3.0747,-3.2078,-3.2749,-3.3241,-3.3518,-3.4476,-3.4576,-3.3602,-3.4225,-3.4591,-3.4591,-3.4887,-3.5019,-3.5019,-3.5359,-3.5504,-3.5504,-3.5504,-3.5504,-3.5504,0.0,0.0,0.0,-3.5504,-3.5504,-3.5504,-3.5504,-3.5504,-3.5504,-3.5504,-3.5504,-3.5504,0.0,0.0,0.0,0.0,0.0,0.0,0.0,0.0,0.0,0.0,0.0,0.0,0.0,0.0,0.0,0.0,0.0,0.0,0.0,0.0,0.0,0.0,0.0,0.0,0.0,0.0,0.0,0.0,0.0,0.0,0.0,0.0,0.0,0.0,0.0,0.0,0.0,0.0,0.0,0.0,0.0,0.0,-3.0314,0.0,0.0,0.0,0.0,0.0,0.0,0.0,0.0,0.0,0.0,0.0,0.0,0.0,-2.76,-2.769,-2.8124,-2.8412,-2.8697,-2.9101,-2.9684,-3.0223,-3.0447,-3.0808,-3.1197,-3.1451,-3.1511,-3.1351,-3.0837,-3.0783,-3.0628,-3.008,-2.9736,-2.9624,-2.9781,-2.9109,-2.8674,-2.8876,-2.871,-2.896,-2.9921,-3.0526,-3.1398,-3.2702,-3.3542,-3.4177,-3.4543,-3.5166,-3.5213,-3.4576,-3.5166,-3.5504,-3.5504,-3.5504,-3.5504,-3.5504,-3.5504,-3.5504,-3.5504,-3.5504,-3.5504,-3.5504,0.0,0.0,0.0,-3.5504,-3.5504,-3.5504,-3.5504,-3.5504,-3.5504,-3.5504,-3.5504,-3.5504,0.0,0.0,0.0,0.0,0.0,0.0,0.0,0.0,0.0,0.0,0.0,0.0,0.0,0.0,0.0,0.0,0.0,0.0,0.0,0.0,0.0,0.0,0.0,0.0,0.0,0.0,0.0,0.0,0.0,0.0,0.0,0.0,0.0,0.0,0.0,0.0,0.0,0.0,0.0,0.0,0.0,0.0,0.0,0.0,0.0,0.0,0.0,0.0,0.0,0.0,0.0,0.0,0.0,0.0,0.0,0.0,0.0,0.0,0.0,-2.8064,-2.8532,-2.8532,-2.9026,-2.9696,-3.0298,-3.0477,0.0,-3.1361,-3.1511,-3.1511,-3.1511,-3.0896,-3.0389,-3.0389,-3.0076,-2.957,-2.8758,-2.908,-2.903,-2.8189,-2.8831,-2.9416,-2.9525,-3.0759,-3.201,-3.3062,-3.3648,-3.4364,-3.529,-3.537,-3.537,-3.537,-3.537,-3.5415,-3.5504,-3.5504,-3.5504,-3.5504,-3.5504,-3.5504,-3.5504,-3.5504,-3.5504,0.0,0.0,0.0,0.0,-3.5504,-3.5504,-3.5504,-3.5504,-3.5504,-3.5504,-3.5504,-3.5504,-3.5504,0.0,0.0,0.0,0.0,0.0,0.0,0.0,0.0,0.0,0.0,0.0,0.0,0.0,0.0,0.0,0.0,0.0,0.0,0.0,0.0,0.0,0.0,0.0,0.0,0.0,0.0,0.0,0.0,0.0,0.0,0.0,0.0,0.0,0.0,0.0,0.0,0.0,0.0,0.0,0.0,0.0,0.0,0.0,0.0,0.0,0.0,-3.0995,-3.0995,0.0,0.0,0.0,0.0,0.0,0.0,0.0,0.0,-2.76,0.0,-2.76,0.0,-2.7839,-2.7839,-2.8349,-2.9011,0.0,-3.0163,-3.0702,-3.1361,-3.1511,-3.1511,-3.1511,-3.1351,-3.1219,-3.1219,-3.064,-3.0102,-2.9902,-2.943,-2.8781,-2.791,-2.8551,-2.9532,-3.0686,-3.1094,-3.1887,-3.3291,-3.3532,-3.3715,-3.3963,-3.3963,-3.3963,-3.3963,-3.3963,-3.4457,-3.5489,-3.5504,-3.5504,-3.5504,-3.5504,-3.5504,-3.5504,-3.5504,-3.5504,0.0,0.0,0.0,-3.5504,-3.5504,-3.5504,-3.5504,-3.5504,-3.5504,-3.5504,-3.5504,-3.5504,-3.5504,0.0,0.0,0.0,0.0,0.0,0.0,0.0,0.0,0.0,0.0,0.0,0.0,0.0,0.0,0.0,0.0,0.0,0.0,0.0,0.0,0.0,0.0,0.0,0.0,0.0,0.0,0.0,0.0,0.0,0.0,0.0,0.0,0.0,0.0,0.0,0.0,0.0,0.0,0.0,0.0,-3.119,0.0,0.0,0.0,0.0,0.0,-3.119,-3.119,0.0,-3.119,-3.0995,-3.0576,0.0,0.0,0.0,0.0,-2.781,0.0,-2.7675,-2.76,-2.76,-2.76,-2.7884,-2.8308,-2.8981,-2.9624,-3.0268,-3.0898,-3.1286,-3.1511,-3.1511,-3.1511,-3.1511,-3.1511,-3.0807,-3.0178,-2.9766,-2.9286,-2.8812,-2.833,-2.9066,-2.991,-3.0715,-3.1401,-3.215,-3.2975,-3.332,-3.3499,-3.3499,-3.3499,-3.3499,-3.3499,-3.3499,-3.3844,-3.4577,-3.4577,-3.4577,-3.4577,-3.4577,-3.4751,-3.5032,-3.5035,-3.5408,0.0,0.0,0.0,-3.5975,-3.5636,-3.5504,-3.5504,-3.5504,-3.5504,-3.5504,-3.5504,-3.5504,-3.5504,0.0,0.0,0.0,0.0,0.0,0.0,0.0,0.0,0.0,0.0,0.0,0.0,0.0,0.0,0.0,0.0,0.0,0.0,0.0,0.0,0.0,0.0,0.0,0.0,0.0,0.0,0.0,0.0,0.0,0.0,0.0,0.0,0.0,0.0,0.0,0.0,0.0,0.0,0.0,0.0,-3.119,0.0,0.0,0.0,0.0,0.0,0.0,0.0,0.0,-3.119,-3.1151,-3.0878,-2.9848,0.0,0.0,0.0,0.0,0.0,-2.7885,-2.7675,-2.76,-2.76,-2.76,-2.7779,-2.8442,-2.9026,-2.9666,-3.0357,-3.0943,-3.1376,-3.1481,-3.1511,-3.1511,-3.1511,-3.0807,-3.0042,-2.9286,-2.9192,-2.9192,-2.9192,-2.995,-3.0494,-3.0494,-3.1619,-3.2333,-3.2333,-3.2886,-3.32,-3.32,-3.32,-3.32,-3.32,-3.32,-3.32,-3.32,-3.3395,-3.3499,-3.3499,-3.3592,-3.3939,-3.4498,-3.4623,-3.529,-3.634,0.0,0.0,-3.623,-3.5705,-3.5504,-3.5504,-3.5504,-3.5554,-3.5636,-3.5537,-3.5651,-3.5814,0.0,0.0,0.0,0.0,0.0,0.0,0.0,0.0,0.0,0.0,0.0,0.0,0.0,0.0,0.0,0.0,0.0,0.0,0.0,0.0,0.0,0.0,0.0,0.0,0.0,0.0,0.0,0.0,0.0,0.0,0.0,0.0,0.0,0.0,0.0,0.0,0.0,0.0,0.0,0.0,-3.119,0.0,0.0,0.0,0.0,0.0,0.0,0.0,0.0,-3.119,-3.0858,-3.0414,-3.0208,0.0,0.0,0.0,0.0,0.0,-2.8391,-2.7993,-2.76,-2.76,-2.76,-2.7779,-2.8442,-2.8682,-2.9086,-3.0268,-3.0582,-3.0836,-3.1406,-3.1511,-3.1511,-3.1511,-3.0807,-3.0238,-3.0103,-3.0103,-3.0103,-3.0103,-3.0807,-3.1322,-3.1322,-3.1527,-3.1645,-3.1645,-3.175,-3.1809,-3.1809,-3.1809,-3.1809,-3.1809,-3.1809,-3.1809,-3.1809,-3.2946,-3.3499,-3.3499,-3.4088,-3.4395,-3.4512,-3.5153,-3.52,-3.4872,0.0,-3.5232,-3.4872,-3.5314,-3.5504,-3.5504,-3.5504,-3.5894,-3.6368,-3.5718,-3.6321,-3.7354,0.0,0.0,0.0,0.0,0.0,0.0,0.0,0.0,0.0,0.0,0.0,0.0,0.0,0.0,0.0,0.0,0.0,0.0,0.0,0.0,0.0,0.0,0.0,0.0,0.0,0.0,0.0,0.0,0.0,0.0,0.0,0.0,0.0,0.0,0.0,0.0,0.0,0.0,0.0,0.0,0.0,0.0,0.0,0.0,0.0,0.0,0.0,0.0,0.0,0.0,-3.1015,-3.072,-3.0414,0.0,0.0,0.0,0.0,0.0,-2.9065,-2.8543,-2.8091,-2.8091,-2.7835,-2.7675,-2.8004,-2.8338,-2.8771,-2.9355,-3.0028,-3.0597,-3.0883,-3.1256,-3.1351,-3.0925,-3.0896,-3.0807,-3.0359,-3.0673,-3.097,-3.097,-3.1278,-3.1511,-3.1511,-3.1511,-3.1511,-3.1511,-3.1511,-3.1511,-3.1511,-3.1511,-3.1511,-3.1511,-3.1511,-3.1511,-3.1511,-3.2516,-3.3006,-3.3006,-3.3319,-3.3858,-3.4568,-3.4904,-3.5091,-3.5177,0.0,-3.5976,-3.5787,-3.6458,-3.6753,-3.6753,-3.6753,-3.6935,-3.7219,-3.686,-3.7175,-3.7764,0.0,0.0,0.0,0.0,0.0,0.0,0.0,0.0,0.0,0.0,0.0,0.0,0.0,0.0,0.0,0.0,0.0,0.0,0.0,0.0,0.0,0.0,0.0,0.0,0.0,0.0,0.0,0.0,0.0,0.0,0.0,0.0,0.0,0.0,0.0,0.0,0.0,0.0,0.0,0.0,0.0,0.0,0.0,0.0,0.0,0.0,0.0,0.0,0.0,0.0,0.0,0.0,0.0,0.0,0.0,0.0,-2.9935,-3.0187,-2.9739,-2.9157,-2.8724,-2.8724,-2.8149,-2.76,-2.76,-2.8004,-2.8412,-2.8562,-2.9505,-3.0328,-3.0477,-3.1032,-3.1307,-3.0673,-3.1087,-3.1278,-3.0673,-3.1117,-3.1511,-3.1511,-3.1511,-3.1511,-3.1511,-3.1511,-3.1511,-3.1511,-3.1511,-3.1511,-3.1511,-3.1511,-3.1511,-3.1511,-3.1511,-3.1582,-3.1768,-3.2327,-3.2586,-3.2586,-3.2922,-3.3608,-3.4609,-3.4756,-3.5067,-3.5498,-3.6141,-3.6488,-3.6598,-3.7262,-3.7633,-3.7793,-3.7793,-3.7793,-3.7835,-3.8206,-3.8234,-3.8064,0.0,0.0,0.0,0.0,0.0,0.0,0.0,0.0,0.0,0.0,0.0,0.0,0.0,0.0,0.0,0.0,0.0,0.0,0.0,0.0,0.0,0.0,0.0,0.0,0.0,-3.119,0.0,0.0,0.0,0.0,0.0,0.0,0.0,0.0,0.0,0.0,0.0,0.0,0.0,0.0,0.0,0.0,0.0,0.0,0.0,0.0,0.0,0.0,0.0,0.0,0.0,0.0,0.0,0.0,0.0,0.0,-3.0272,-3.0293,-3.0251,-2.9783,-2.9339,-2.9339,-2.8472,-2.76,-2.76,-2.763,-2.7854,-2.8472,-2.916,-2.9846,-3.0402,-3.1032,-3.1467,-3.1409,-3.1467,-3.1467,-3.1409,-3.1467,-3.1511,-3.1511,-3.1511,-3.1511,-3.1511,-3.1511,-3.1511,-3.1511,-3.1511,-3.1511,-3.1511,-3.1511,-3.1511,-3.1511,-3.1511,-3.1824,-3.252,-3.2559,-3.2586,-3.2614,-3.3862,-3.4503,-3.4624,-3.5234,-3.5205,-3.4732,-3.5374,-3.5711,-3.5838,-3.6514,-3.7185,-3.7793,-3.7793,-3.7793,-3.7978,-3.9428,-3.9463,-3.8827,0.0,0.0,0.0,0.0,0.0,0.0,0.0,0.0,0.0,0.0,0.0,0.0,0.0,0.0,0.0,0.0,0.0,0.0,0.0,0.0,0.0,0.0,0.0,-3.119,-3.119,-3.119,0.0,0.0,0.0,0.0,0.0,0.0,0.0,0.0,0.0,0.0,0.0,0.0,0.0,0.0,0.0,0.0,0.0,0.0,0.0,0.0,0.0,0.0,0.0,0.0,-3.1055,0.0,0.0,0.0,0.0,0.0,-3.0858,-3.0777,-3.0414,-2.9848,-2.9316,-2.8927,-2.8511,-2.8067,-2.77,-2.76,-2.766,-2.7929,-2.8502,-2.928,-3.0313,-3.0717,-3.1002,-3.1436,-3.1511,-3.1511,-3.1511,-3.1511,-3.1511,-3.1511,-3.1511,-3.1511,-3.1511,-3.1511,-3.1511,-3.1511,-3.1511,-3.1511,-3.1511,-3.1511,-3.1511,-3.1511,-3.1951,-3.2327,-3.2586,-3.3443,-3.3836,-3.3836,-3.4358,-3.4807,-3.523,-3.5492,-3.523,-3.4673,-3.5828,-3.61,-3.5817,-3.747,-3.8288,-3.8586,-3.906,-3.9226,-3.9305,-3.9876,-3.9901,-3.9636,0.0,0.0,0.0,0.0,0.0,0.0,0.0,0.0,0.0,0.0,0.0,0.0,0.0,0.0,0.0,0.0,0.0,0.0,0.0,0.0,0.0,0.0,0.0,-3.119,-3.119,-3.119,-3.119,0.0,0.0,0.0,0.0,0.0,0.0,0.0,0.0,0.0,0.0,0.0,0.0,0.0,0.0,0.0,0.0,0.0,0.0,0.0,0.0,0.0,0.0,0.0,-3.119,0.0,0.0,0.0,0.0,0.0,-3.1055,-3.0838,-3.0414,-2.9995,-2.9496,-2.8685,-2.8638,-2.8567,-2.7785,-2.776,-2.7835,-2.765,-2.8304,-2.9175,-3.0058,-3.0552,-3.0883,-3.1137,-3.1361,-3.1511,-3.1511,-3.1511,-3.1511,-3.1511,-3.1511,-3.1511,-3.1511,-3.1511,-3.1511,-3.1511,-3.1511,-3.1511,-3.1511,-3.1511,-3.1511,-3.1511,-3.2216,-3.2695,-3.2922,-3.4037,-3.4712,-3.4918,-3.4918,-3.5161,-3.56,-3.56,-3.5362,-3.4975,-3.5963,-3.6269,-3.618,-3.7939,-3.892,-3.9394,-3.991,-4.0096,-4.0096,-4.0096,-4.0096,-4.0096,0.0,0.0,0.0,0.0,0.0,0.0,0.0,0.0,0.0,0.0,0.0,0.0,0.0,0.0,0.0,0.0,0.0,0.0,0.0,0.0,0.0,0.0,0.0,-3.119,-3.119,-3.119,-3.119,0.0,0.0,0.0,0.0,0.0,0.0,0.0,0.0,0.0,0.0,0.0,0.0,0.0,0.0,0.0,0.0,0.0,0.0,0.0,0.0,0.0,0.0,0.0,-3.119,-3.119,0.0,0.0,0.0,-3.119,-3.0777,-3.0293,-3.0293,-3.0309,-3.0,-2.8803,-2.8966,-2.9088,-2.787,-2.8067,-2.8319,-2.771,-2.8663,-2.9592,-2.9606,-3.0642,-3.1271,-3.0627,-3.1062,-3.1511,-3.1511,-3.1511,-3.1511,-3.1511,-3.1511,-3.1511,-3.1511,-3.1511,-3.1511,-3.1511,-3.1511,-3.1511,-3.1511,-3.1511,-3.1511,-3.1511,-3.2216,-3.2949,-3.3582,-3.4284,-3.4941,-3.56,-3.56,-3.56,-3.56,-3.56,-3.56,-3.56,-3.56,-3.6062,-3.6846,-3.7584,-3.8768,-4.0096,-4.0096,-4.0096,-4.0096,-4.0096,-4.0096,-4.0096,0.0,0.0,0.0,0.0,0.0,0.0,0.0,0.0,0.0,0.0,0.0,0.0,0.0,0.0,0.0,0.0,0.0,0.0,0.0,0.0,0.0,0.0,0.0,0.0,0.0,0.0,-3.119,0.0,0.0,0.0,0.0,0.0,0.0,-3.119,0.0,0.0,0.0,0.0,0.0,0.0,0.0,0.0,0.0,0.0,0.0,0.0,0.0,0.0,0.0,0.0,0.0,0.0,-3.119,0.0,-3.119,-3.119,-3.1075,-3.0838,-3.0414,-2.9995,-2.9473,-2.8701,-2.863,-2.8567,-2.7785,-2.7735,-2.781,-2.765,-2.7914,-2.8483,-2.9442,-2.9909,-3.0387,-3.1077,-3.1376,-3.1511,-3.1511,-3.1511,-3.1511,-3.1511,-3.1511,-3.1511,-3.1511,-3.1511,-3.1511,-3.1511,-3.1511,-3.1511,-3.1511,-3.1979,-3.2272,-3.2272,-3.3401,-3.4112,-3.4309,-3.4981,-3.5385,-3.56,-3.56,-3.56,-3.56,-3.56,-3.56,-3.56,-3.56,-3.5735,-3.6062,-3.7364,-3.8464,-3.9377,-3.991,-4.0096,-4.0096,-4.0096,-4.0096,-4.0096,0.0,0.0,0.0,0.0,0.0,0.0,0.0,0.0,0.0,0.0,0.0,0.0,0.0,0.0,0.0,0.0,0.0,0.0,0.0,0.0,0.0,0.0,0.0,0.0,0.0,-3.119,-3.119,0.0,0.0,0.0,0.0,0.0,0.0,-3.119,0.0,0.0,0.0,0.0,0.0,0.0,0.0,0.0,0.0,0.0,0.0,0.0,0.0,0.0,0.0,0.0,0.0,0.0,-3.119,-3.119,-3.1151,-3.0918,-3.0679,-3.0335,-2.9739,-2.9316,-2.8896,-2.8295,-2.8319,-2.8343,-2.7735,-2.76,-2.76,-2.76,-2.7809,-2.8233,-2.9041,-2.9609,-3.0208,-3.0972,-3.1331,-3.1511,-3.1511,-3.1511,-3.1511,-3.1511,-3.1511,-3.1511,-3.1511,-3.1511,-3.1511,-3.1511,-3.1511,-3.1511,-3.1511,-3.1938,-3.2176,-3.2176,-3.3505,-3.4211,-3.4211,-3.5138,-3.56,-3.56,-3.56,-3.56,-3.56,-3.56,-3.56,-3.56,-3.56,-3.5769,-3.6146,-3.7077,-3.8058,-3.9039,-3.9503,-3.9842,-4.0096,-4.0096,-4.0096,-4.0096,0.0,0.0,0.0,0.0,0.0,0.0,0.0,0.0,0.0,0.0,0.0,0.0,0.0,0.0,0.0,0.0,0.0,0.0,0.0,0.0,0.0,0.0,0.0,0.0,0.0,0.0,0.0,0.0,0.0,0.0,0.0,0.0,-3.119,-3.119,0.0,-3.119,0.0,0.0,0.0,0.0,0.0,0.0,0.0,0.0,0.0,0.0,0.0,0.0,0.0,0.0,0.0,0.0,-3.119,-3.119,-3.1075,-3.0539,-2.9935,-2.9361,-2.8803,-2.8583,-2.8383,-2.781,-2.8042,-2.8271,-2.7735,-2.76,-2.76,-2.76,-2.8068,-2.8547,-2.8667,-2.9639,-3.0462,-3.0582,-3.1092,-3.1511,-3.1511,-3.1511,-3.1511,-3.1511,-3.1511,-3.1511,-3.1511,-3.1511,-3.1511,-3.1511,-3.1511,-3.1511,-3.1511,-3.1553,-3.1611,-3.1611,-3.2971,-3.3684,-3.3684,-3.4958,-3.56,-3.56,-3.56,-3.56,-3.56,-3.56,-3.56,-3.56,-3.56,-3.6011,-3.6711,-3.6778,-3.7608,-3.8802,-3.8937,-3.9419,-4.0011,-4.0079,-4.0096,-4.0096,0.0,0.0,0.0,0.0,0.0,0.0,0.0,0.0,0.0,0.0,0.0,0.0,0.0,0.0,0.0,0.0,0.0,0.0,0.0,0.0,0.0,0.0,0.0,0.0,0.0,0.0,0.0,0.0,0.0,0.0,0.0,0.0,0.0,-3.119,0.0,-3.119,0.0,0.0,0.0,0.0,0.0,0.0,0.0,0.0,0.0,0.0,0.0,0.0,0.0,0.0,0.0,0.0,-3.119,-3.119,-3.1171,-3.1035,-3.0597,-3.0081,-2.9951,-2.9225,-2.8463,-2.8343,-2.8042,-2.776,-2.7625,-2.76,-2.76,-2.76,-2.7705,-2.8139,-2.9202,-2.9594,-3.0118,-3.1122,-3.1406,-3.1511,-3.1511,-3.1511,-3.1511,-3.1511,-3.1511,-3.1511,-3.1511,-3.1511,-3.1511,-3.1511,-3.1511,-3.1511,-3.1511,-3.2064,-3.2355,-3.2355,-3.3684,-3.4382,-3.4382,-3.5184,-3.56,0.0,-3.56,-3.56,-3.56,-3.56,-3.56,-3.56,-3.56,-3.5701,-3.591,-3.6535,-3.6998,-3.7405,-3.8531,-3.9089,-3.9292,-3.9893,-4.0096,-4.0096,0.0,0.0,0.0,0.0,0.0,0.0,0.0,0.0,0.0,0.0,0.0,0.0,0.0,0.0,0.0,0.0,0.0,0.0,0.0,0.0,0.0,0.0,0.0,0.0,0.0,0.0,0.0,0.0,0.0,0.0,0.0,0.0,0.0,-3.119,0.0,-3.119,0.0,0.0,0.0,0.0,0.0,0.0,0.0,0.0,0.0,0.0,0.0,0.0,0.0,0.0,0.0,0.0,0.0,0.0,-3.1151,-3.0858,-3.0335,-2.9805,-2.9518,-2.8779,-2.8067,-2.8067,-2.7835,-2.76,-2.76,-2.76,-2.76,-2.76,-2.76,-2.7914,-2.8921,-2.937,-2.9909,-3.0881,-3.1286,-3.1511,-3.1511,-3.1511,-3.1511,-3.1511,-3.1511,-3.1511,-3.1511,-3.1511,-3.1511,-3.1511,-3.1511,-3.1511,-3.1511,-3.1866,-3.2259,-3.2602,-3.3582,-3.4284,-3.46,-3.5253,-3.56,-3.56,-3.56,-3.56,-3.56,-3.56,-3.56,-3.56,-3.56,-3.56,-3.5633,-3.6062,-3.6451,-3.688,-3.7658,-3.8386,-3.9039,-3.9411,-3.9808,-4.0096,0.0,0.0,0.0,0.0,0.0,0.0,0.0,0.0,0.0,0.0,0.0,0.0,0.0,0.0,0.0,0.0,0.0,0.0,0.0,0.0,0.0,0.0,0.0,0.0,0.0,0.0,0.0,0.0,0.0,0.0,0.0,0.0,0.0,-3.119,0.0,0.0,0.0,0.0,0.0,0.0,0.0,0.0,0.0,0.0,0.0,0.0,0.0,0.0,-3.119,-3.119,0.0,0.0,0.0,0.0,-3.1095,-3.0601,-3.0038,-2.9429,-2.8826,-2.814,-2.76,-2.76,-2.76,-2.76,-2.76,-2.76,-2.76,-2.76,-2.76,-2.7809,-2.8472,-2.9041,-2.9624,-3.0238,-3.0821,-3.1167,-3.1167,-3.1167,-3.1167,-3.1167,-3.1167,-3.1167,-3.1167,-3.1167,-3.1167,-3.1167,-3.1271,-3.1331,-3.1331,-3.1436,-3.1853,-3.2574,-3.3235,-3.3912,-3.4576,-3.5253,-3.56,-3.56,-3.56,-3.56,-3.56,-3.56,-3.56,-3.56,-3.56,-3.56,-3.56,-3.56,-3.5994,-3.6609,-3.6745,-3.7557,-3.8633,-3.8903,-3.9402,-3.9943,0.0,0.0,0.0,0.0,0.0,0.0,0.0,0.0,0.0,0.0,0.0,0.0,0.0,0.0,0.0,0.0,0.0,0.0,0.0,0.0,0.0,0.0,0.0,0.0,0.0,0.0,0.0,0.0,0.0,0.0,0.0,0.0,0.0,-3.119,0.0,0.0,0.0,0.0,0.0,0.0,0.0,0.0,0.0,0.0,0.0,0.0,0.0,0.0,0.0,-3.119,-3.119,0.0,0.0,0.0,-3.119,-3.1095,-3.0658,-3.0059,-2.9451,-2.8472,-2.76,-2.76,-2.76,-2.76,-2.76,-2.76,-2.76,-2.76,-2.76,-2.7809,-2.8472,-2.8667,-2.8951,-2.9594,-2.9816,-2.9849,-2.9849,-2.9849,-2.9849,-2.9849,-2.9849,-2.9849,-2.9849,-2.9849,-2.9849,-2.9849,-3.0342,-3.0642,-3.0642,-3.1182,-3.1853,-3.2574,-3.3235,-3.3912,-3.4576,-3.5253,-3.56,-3.56,-3.56,-3.56,-3.56,-3.56,-3.56,-3.56,-3.56,-3.56,-3.56,-3.56,-3.565,-3.5842,-3.6541,-3.6931,-3.7252,-3.8514,-3.9056,-3.9225,0.0,0.0,0.0,0.0,0.0,0.0,0.0,0.0,0.0,0.0,0.0,0.0,0.0,0.0,0.0,0.0,0.0,0.0,0.0,0.0,0.0,0.0,0.0,0.0,0.0,0.0,0.0,0.0,0.0,0.0,0.0,-3.119,-3.119,0.0,0.0,0.0,0.0,0.0,0.0,0.0,0.0,0.0,0.0,0.0,0.0,0.0,0.0,0.0,0.0,-3.119,-3.119,-3.119,-3.119,0.0,0.0,0.0,-3.076,-3.0102,-2.9157,-2.8511,-2.8018,-2.7685,-2.76,-2.76,-2.76,-2.76,-2.76,-2.76,-2.76,-2.769,-2.8004,-2.8338,-2.8697,-2.8981,-2.9367,-2.9606,-2.9606,-2.9606,-2.9606,-2.9606,-2.9606,-2.9606,-2.9606,-2.9606,-2.9606,-2.9606,-2.9834,-2.9983,-2.9983,-3.0283,-3.0943,-3.2013,-3.2691,-3.3533,-3.4576,-3.5253,-3.56,-3.56,-3.56,-3.56,-3.56,-3.56,-3.56,-3.56,-3.56,-3.56,-3.56,-3.56,-3.56,-3.5633,-3.5994,-3.64,-3.6931,-3.799,-3.865,-3.9106,0.0,0.0,0.0,0.0,0.0,0.0,0.0,0.0,0.0,0.0,0.0,0.0,0.0,0.0,0.0,0.0,0.0,0.0,0.0,0.0,0.0,0.0,0.0,0.0,0.0,0.0,0.0,0.0,0.0,0.0,-3.119,-3.119,-3.119,0.0,-3.119,0.0,0.0,0.0,0.0,0.0,0.0,0.0,0.0,0.0,0.0,0.0,0.0,0.0,0.0,0.0,0.0,-3.119,-3.119,-3.119,0.0,0.0,0.0,-3.0086,-2.9203,-2.8732,-2.8391,-2.7959,-2.771,-2.76,-2.76,-2.76,-2.76,-2.76,-2.76,-2.76,-2.76,-2.8019,-2.8338,-2.8338,-2.8783,-2.9097,-2.9097,-2.9097,-2.9097,-2.9097,-2.9097,-2.9097,-2.9097,-2.9097,-2.9097,-2.9097,-2.9262,-2.9367,-2.9367,-2.9517,-3.0125,-3.1326,-3.2162,-3.3153,-3.4319,-3.5193,-3.56,-3.56,-3.56,-3.56,-3.56,-3.56,-3.56,-3.56,-3.56,-3.56,-3.56,-3.56,-3.56,-3.56,-3.56,-3.5977,-3.6586,-3.7347,-3.8091,-3.8819,0.0,0.0,0.0,0.0,0.0,0.0,0.0,0.0,0.0,0.0,0.0,0.0,0.0,0.0,0.0,0.0,0.0,0.0,0.0,0.0,0.0,0.0,0.0,0.0,0.0,0.0,0.0,0.0,0.0,0.0,-3.119,-3.119,-3.119,-3.119,-3.119,-3.119,-3.119,0.0,0.0,0.0,0.0,0.0,0.0,0.0,0.0,0.0,0.0,0.0,0.0,0.0,0.0,0.0,0.0,-3.119,-3.119,0.0,0.0,0.0,-3.023,-2.9361,-2.8487,-2.8463,-2.8018,-2.76,-2.76,-2.76,-2.76,-2.76,-2.76,-2.76,-2.76,-2.763,-2.7645,-2.7645,-2.7675,-2.7705,-2.7705,-2.7705,-2.7705,-2.7705,-2.7705,-2.7705,-2.7705,-2.7705,-2.7705,-2.7705,-2.8278,-2.8652,-2.8652,-2.9235,-2.9925,-3.0623,-3.1917,-3.2951,-3.3664,-3.4964,-3.56,-3.56,-3.56,-3.56,-3.56,-3.56,-3.56,-3.56,-3.56,-3.56,-3.56,-3.56,-3.56,-3.56,-3.56,-3.5616,-3.5752,-3.6552,-3.7313,-3.8075,0.0,0.0,0.0,0.0,0.0,0.0,0.0,0.0,0.0,0.0,0.0,0.0,0.0,0.0,0.0,0.0,0.0,0.0,0.0,0.0,0.0,0.0,0.0,0.0,0.0,0.0,0.0,0.0,0.0,-3.119,-3.119,-3.119,-3.119,-3.119,-3.119,-3.119,-3.119,-3.119,0.0,0.0,0.0,0.0,0.0,0.0,0.0,0.0,0.0,0.0,0.0,0.0,0.0,0.0,0.0,0.0,0.0,-3.119,-3.1055,-3.0797,-3.0414,-2.9978,-2.9473,-2.8685,-2.8334,-2.8067,-2.7685,-2.76,-2.76,-2.76,-2.76,-2.76,-2.76,-2.76,-2.76,-2.76,-2.76,-2.76,-2.76,-2.76,-2.76,-2.76,-2.76,-2.76,-2.76,-2.76,-2.76,-2.76,-2.7824,-2.7959,-2.7959,-2.8184,-2.8628,-2.931,-3.0588,-3.2183,-3.4153,-3.5121,-3.56,-3.56,-3.56,-3.56,-3.56,-3.56,-3.56,-3.56,-3.56,-3.56,-3.56,-3.56,-3.56,-3.56,-3.56,-3.56,-3.5701,-3.6485,-3.7263,-3.8024,0.0,0.0,0.0,0.0,0.0,0.0,0.0,0.0,0.0,0.0,0.0,0.0,0.0,0.0,0.0,0.0,0.0,0.0,0.0,0.0,0.0,0.0,0.0,0.0,0.0,0.0,0.0,0.0,0.0,0.0,0.0,-3.119,-3.119,-3.119,-3.119,-3.119,0.0,0.0,0.0,-3.0858,0.0,0.0,-2.9104,0.0,0.0,0.0,0.0,0.0,0.0,0.0,0.0,0.0,0.0,0.0,0.0,0.0,-3.119,-3.1112,-3.0699,-3.0456,-3.0102,-2.9293,-2.8803,-2.8407,-2.7993,-2.7735,-2.76,-2.76,-2.76,-2.76,-2.76,-2.76,-2.76,-2.76,-2.76,-2.76,-2.76,-2.76,-2.76,-2.76,-2.76,-2.76,-2.76,-2.76,-2.76,-2.76,-2.76,0.0,-2.76,-2.76,-2.8087,-2.9194,-2.9854,-3.157,-3.4472,-3.4785,-3.5155,-3.56,-3.56,-3.56,-3.56,-3.56,-3.56,-3.56,-3.56,-3.56,-3.56,-3.56,-3.56,-3.56,-3.56,-3.56,-3.565,-3.6197,-3.7026,-3.7973,0.0,0.0,0.0,0.0,0.0,0.0,0.0,0.0,0.0,0.0,0.0,0.0,0.0,0.0,0.0,0.0,0.0,0.0,0.0,0.0,0.0,0.0,0.0,0.0,0.0,0.0,0.0,0.0,0.0,0.0,0.0,0.0,-3.119,-3.119,-3.119,-3.119,-3.1171,0.0,-3.0858,-3.0272,0.0,-2.9058,-2.8511,0.0,0.0,0.0,-2.8262,-2.8463,0.0,-2.8487,0.0,0.0,0.0,0.0,0.0,0.0,0.0,-3.119,0.0,0.0,0.0,-3.0272,-2.9384,-2.8511,-2.8487,-2.8018,-2.76,-2.76,-2.76,-2.76,-2.76,-2.76,-2.76,-2.76,-2.76,-2.76,-2.76,-2.76,-2.76,-2.76,-2.76,-2.76,-2.76,-2.76,-2.76,-2.76,-2.76,-2.76,-2.76,-2.76,-2.8465,-3.0366,-2.991,-3.1181,-3.4416,-3.3889,-3.4295,-3.56,-3.56,-3.56,-3.56,-3.56,-3.56,-3.56,-3.56,-3.56,-3.56,-3.56,-3.56,-3.56,-3.56,-3.56,-3.56,-3.56,-3.6563,-3.7905,0.0,0.0,0.0,0.0,0.0,0.0,0.0,0.0,0.0,0.0,0.0,0.0,0.0,0.0,0.0,0.0,0.0,0.0,0.0,0.0,0.0,0.0,0.0,0.0,0.0,0.0,0.0,0.0,0.0,0.0,0.0,0.0,0.0,0.0,-3.119,-3.0975,-3.0597,-3.1015,0.0,-3.0858,-2.9805,-2.9293,0.0,0.0,0.0,0.0,0.0,-2.786,-2.7934,0.0,-2.8606,-2.8896,0.0,0.0,0.0,0.0,0.0,0.0,-3.119,0.0,0.0,0.0,0.0,0.0,-2.8042,-2.771,-2.76,-2.76,-2.76,-2.76,-2.76,-2.76,-2.76,-2.76,-2.76,-2.76,-2.76,-2.76,-2.76,-2.76,-2.76,-2.76,-2.76,-2.76,-2.76,0.0,-2.76,-2.76,-2.76,-2.76,-2.806,-2.9037,-2.9824,-3.1142,-3.304,-3.3857,-3.4689,-3.56,-3.56,-3.56,-3.56,-3.56,-3.56,-3.56,-3.56,-3.56,-3.56,-3.56,-3.56,-3.56,-3.56,-3.56,-3.56,-3.56,-3.6563,-3.7905,0.0,0.0,0.0,0.0,0.0,0.0,0.0,0.0,0.0,0.0,0.0,0.0,0.0,0.0,0.0,0.0,0.0,0.0,0.0,0.0,0.0,0.0,0.0,0.0,0.0,0.0,0.0,0.0,0.0,0.0,0.0,0.0,0.0,0.0,0.0,0.0,0.0,0.0,0.0,-3.0021,-2.9585,0.0,0.0,-2.8165,-2.781,0.0,0.0,0.0,-2.7635,-2.7993,-2.8116,0.0,0.0,0.0,0.0,0.0,0.0,0.0,0.0,0.0,-3.0975,-3.0,0.0,0.0,-2.8198,-2.7785,-2.76,-2.76,-2.76,-2.76,-2.76,-2.76,-2.76,-2.76,-2.76,-2.76,-2.76,-2.76,-2.76,-2.76,-2.76,-2.76,-2.76,-2.76,-2.76,-2.76,-2.76,-2.76,-2.76,-2.76,-2.7885,-2.8463,-2.9012,-3.0322,-3.2496,-3.3038,-3.408,-3.56,-3.56,-3.56,-3.56,-3.56,-3.56,-3.56,-3.56,-3.56,-3.56,-3.56,-3.56,-3.56,-3.56,-3.56,-3.5633,-3.5994,-3.6874,-3.7939,0.0,0.0,0.0,0.0,0.0,0.0,0.0,0.0,0.0,0.0,0.0,0.0,0.0,0.0,0.0,0.0,0.0,0.0,0.0,0.0,0.0,0.0,0.0,0.0,0.0,0.0,0.0,0.0,0.0,0.0,0.0,0.0,0.0,0.0,0.0,0.0,0.0,0.0,-2.9651,-2.8559,-2.9157,-2.8717,0.0,0.0,-2.8067,-2.7675,-2.8213,-2.8067,-2.76,-2.76,-2.7635,0.0,0.0,0.0,0.0,0.0,-3.1055,0.0,0.0,0.0,0.0,0.0,-2.9783,0.0,-2.8543,-2.8008,-2.76,-2.76,-2.76,-2.76,-2.76,-2.76,-2.76,-2.76,-2.76,-2.76,-2.76,-2.76,-2.76,-2.76,-2.76,-2.76,-2.76,-2.76,-2.76,-2.76,-2.76,-2.76,-2.76,-2.76,-2.786,-2.8367,-2.7944,-2.9173,-3.2251,-3.188,-3.2964,-3.5481,-3.5566,-3.56,-3.56,-3.56,-3.56,-3.56,-3.56,-3.56,-3.56,-3.56,-3.56,-3.56,-3.56,-3.56,-3.5701,-3.6485,-3.7263,-3.8024,0.0,0.0,0.0,0.0,0.0,0.0,0.0,0.0,0.0,0.0,0.0,0.0,0.0,0.0,0.0,0.0,0.0,0.0,0.0,0.0,0.0,0.0,0.0,0.0,0.0,0.0,0.0,0.0,0.0,0.0,0.0,0.0,0.0,0.0,0.0,0.0,-2.9805,-3.0658,-3.0059,-2.8559,-2.9157,-2.8966,-2.8271,-2.7934,-2.771,-2.7625,-2.7735,-2.7685,-2.76,-2.76,-2.7919,-2.8383,0.0,0.0,0.0,-2.9673,0.0,0.0,0.0,0.0,0.0,0.0,0.0,0.0,-2.8018,-2.7685,-2.76,-2.76,-2.76,-2.76,-2.76,-2.76,-2.76,-2.76,-2.76,-2.76,-2.76,-2.76,-2.76,-2.76,-2.76,-2.76,-2.76,-2.76,-2.76,-2.76,-2.76,-2.76,-2.76,-2.76,-2.7635,-2.776,-2.814,-2.9147,-3.0877,-3.1844,-3.3122,-3.4726,-3.5312,-3.56,-3.56,-3.56,-3.56,-3.56,-3.56,-3.56,-3.56,-3.56,-3.56,-3.56,-3.56,-3.56,-3.5701,-3.6485,-3.7263,-3.8024,0.0,0.0,0.0,0.0,0.0,0.0,0.0,0.0,0.0,0.0,0.0,0.0,0.0,0.0,0.0,0.0,0.0,0.0,0.0,0.0,0.0,0.0,0.0,0.0,0.0,0.0,0.0,0.0,0.0,0.0,0.0,0.0,0.0,0.0,0.0,-2.9673,-2.9451,-3.0059,-2.9607,-2.8559,-2.9157,0.0,-2.8018,-2.7725,-2.76,-2.76,-2.76,-2.76,-2.76,-2.76,-2.781,0.0,0.0,-2.8724,-2.8996,0.0,-2.9827,-3.0293,0.0,0.0,0.0,-2.9695,0.0,0.0,0.0,-2.8042,-2.8042,-2.8042,-2.8042,-2.7944,-2.7675,-2.76,-2.76,-2.76,-2.76,-2.76,-2.76,-2.76,-2.76,-2.76,-2.76,-2.76,-2.76,-2.76,-2.76,-2.76,-2.76,-2.76,-2.76,-2.76,-2.76,-2.76,-2.7894,-2.8676,-3.0054,-3.1063,-3.2387,-3.4058,-3.4428,-3.4958,-3.56,-3.5253,-3.5276,-3.56,-3.56,-3.56,-3.56,-3.56,-3.56,-3.56,-3.56,-3.56,-3.5735,-3.6924,-3.7584,-3.8075,0.0,0.0,0.0,0.0,0.0,0.0,0.0,0.0,0.0,0.0,0.0,0.0,0.0,0.0,0.0,0.0,0.0,0.0,0.0,0.0,0.0,0.0,0.0,-3.119,0.0,0.0,0.0,0.0,0.0,0.0,0.0,0.0,0.0,0.0,-2.8966,-2.8989,-2.9225,-2.9361,-2.9042,-2.8535,-2.9019,-2.8551,-2.76,-2.76,-2.76,-2.76,-2.76,-2.76,-2.7615,-2.775,-2.7794,-2.7896,-2.8363,-2.8535,0.0,0.0,0.0,0.0,0.0,0.0,0.0,0.0,0.0,-2.9081,0.0,0.0,0.0,-2.8343,-2.8415,-2.8334,-2.771,-2.76,-2.7555,-2.742,-2.751,-2.7605,-2.7579,-2.7695,-2.7735,-2.761,-2.76,-2.76,-2.76,-2.76,-2.76,-2.76,-2.76,-2.76,-2.76,-2.76,-2.76,-2.76,-2.76,-2.8177,-2.9375,-3.0183,-3.1464,-3.3214,-3.3483,-3.4178,-3.5184,-3.4664,-3.4759,-3.5407,-3.5407,-3.547,-3.56,-3.56,-3.56,-3.56,-3.56,-3.5684,-3.6011,-3.7398,-3.799,-3.8311,-2.9065,-2.9293,0.0,0.0,0.0,0.0,0.0,0.0,0.0,-3.1075,0.0,0.0,0.0,-2.9339,-2.8919,0.0,0.0,0.0,-3.0356,0.0,0.0,0.0,0.0,0.0,-3.119,0.0,0.0,0.0,0.0,0.0,0.0,0.0,0.0,0.0,-2.9651,-2.954,-2.8654,-2.9157,-2.9042,-2.8511,-2.8583,-2.8198,0.0,-2.76,-2.76,-2.76,-2.76,-2.76,-2.769,0.0,-2.8487,-2.8513,0.0,-2.8576,-2.8482,-2.7966,0.0,0.0,0.0,0.0,0.0,0.0,-2.9012,0.0,0.0,0.0,-2.8343,-2.781,0.0,-2.8334,-2.771,0.0,0.0,-2.6821,-2.721,-2.7574,-2.7519,-2.8029,-2.8213,-2.766,-2.76,-2.76,-2.76,-2.76,-2.76,-2.76,-2.76,-2.76,-2.76,-2.76,-2.76,-2.76,-2.76,-2.794,-2.8635,-2.9925,-3.0979,-3.1742,-3.2992,-3.3684,-3.3811,-3.3735,-3.4087,-3.4712,-3.4712,-3.5052,-3.56,-3.56,-3.56,-3.56,-3.56,-3.6045,-3.6761,-3.7601,-3.8311,-3.8988,-2.8271,-2.8352,0.0,0.0,0.0,0.0,0.0,0.0,0.0,-3.0638,-3.0539,-3.0414,-3.0314,-2.9848,-2.9496,-2.9406,-2.9406,-2.9651,0.0,0.0,0.0,0.0,0.0,0.0,0.0,0.0,0.0,0.0,-3.0435,0.0,0.0,0.0,0.0,0.0,-2.918,-2.8966,-2.8511,-2.8756,-2.8519,-2.7993,-2.8359,-2.8385,0.0,-2.8173,-2.8438,-2.8768,-2.8768,-2.8768,-2.8813,0.0,-2.916,0.0,0.0,0.0,0.0,-2.7914,0.0,0.0,0.0,0.0,0.0,0.0,0.0,0.0,-2.905,0.0,-2.895,0.0,0.0,0.0,0.0,0.0,0.0,0.0,-2.8182,-2.8235,-2.8556,-2.8545,-2.8407,-2.8165,-2.8116,0.0,-2.7635,-2.76,-2.76,-2.76,-2.76,-2.76,-2.76,-2.76,-2.76,-2.76,-2.76,-2.771,-2.7984,-2.9331,-3.0335,-3.0989,-3.1931,-3.2826,-3.3582,-3.3182,-3.3582,-3.46,-3.46,-3.4965,-3.56,-3.56,-3.56,-3.565,-3.6113,-3.6485,-3.6897,-3.7635,-3.8362,-3.9106,-2.76,0.0,0.0,0.0,0.0,0.0,0.0,0.0,0.0,-3.0477,-3.0781,-3.0797,-3.0351,-3.0,-2.9629,-2.918,-2.8996,-2.9141,0.0,0.0,-2.987,0.0,0.0,0.0,0.0,0.0,0.0,0.0,0.0,0.0,0.0,0.0,0.0,0.0,-2.8873,-2.8559,-2.8262,-2.8262,-2.7993,-2.765,-2.828,-2.8774,-2.9101,-2.8936,-2.916,-2.9606,-2.9606,-2.9606,-2.9636,-2.9774,-2.9834,0.0,-2.9265,0.0,0.0,0.0,0.0,0.0,-2.8625,0.0,0.0,0.0,0.0,0.0,0.0,0.0,0.0,0.0,0.0,0.0,0.0,0.0,0.0,0.0,0.0,-2.8535,-2.8802,-2.8451,-2.8241,-2.8465,-2.8487,0.0,0.0,-2.7944,-2.786,-2.786,-2.7685,-2.76,-2.76,-2.76,-2.76,-2.76,-2.76,-2.76,-2.76,-2.8933,-2.9845,-3.0351,-3.1134,-3.2048,-3.3024,-3.2734,-3.3235,-3.4333,-3.4528,-3.4965,-3.56,-3.56,-3.56,-3.5667,-3.6508,-3.6931,-3.7178,-3.7922,-3.8667,-3.9377,-2.76,-2.8067,-2.8463,-2.8463,-2.9451,0.0,0.0,0.0,-3.1151,-3.1171,-3.0679,-3.0314,-3.0293,-2.9248,-2.8559,-2.8535,-2.7993,-2.7894,-2.8511,0.0,-2.8826,0.0,0.0,-3.0314,0.0,0.0,0.0,0.0,0.0,0.0,0.0,0.0,0.0,0.0,-2.9111,-2.8717,-2.7625,-2.7625,-2.7625,-2.766,-2.8319,-2.9352,-3.0372,0.0,-2.9592,-2.9606,-2.9606,0.0,0.0,-3.0268,-3.0477,0.0,0.0,0.0,0.0,0.0,0.0,0.0,0.0,0.0,0.0,-2.9111,0.0,0.0,0.0,0.0,-2.8535,0.0,0.0,0.0,0.0,0.0,0.0,0.0,0.0,0.0,0.0,-2.7384,-2.7634,-2.8404,-2.8487,-2.8709,0.0,-2.8826,-2.8463,-2.8463,-2.7919,-2.76,-2.76,-2.76,-2.76,-2.76,-2.76,-2.76,-2.76,-2.8933,-2.9606,-2.9648,-3.0911,-3.1524,-3.1582,-3.2272,-3.2986,-3.3659,-3.4333,-3.4965,-3.56,-3.56,-3.56,-3.5667,-3.6508,-3.7229,-3.7956,-3.8684,-3.9411,-4.0079,-2.7675,-2.84,-2.8834,-2.8042,-2.8231,-2.8841,-2.9848,-3.0351,-3.0601,-3.0601,-3.0435,-3.0145,-2.9739,-2.9339,-2.8927,-2.8535,-2.8295,-2.8271,-2.8487,-2.9328,0.0,0.0,0.0,-3.0835,0.0,0.0,0.0,0.0,0.0,0.0,-3.0878,0.0,0.0,0.0,-2.9081,-2.8583,-2.8195,-2.8243,-2.8248,-2.8353,-2.943,-3.0118,-3.0477,0.0,0.0,-3.0853,-3.0853,-3.0853,0.0,-3.1077,-3.1152,-3.1077,-3.0657,-3.0806,-3.0898,-2.9639,-2.9535,0.0,0.0,0.0,-2.8358,-2.8715,0.0,0.0,0.0,0.0,0.0,0.0,0.0,0.0,0.0,0.0,0.0,0.0,0.0,0.0,0.0,-2.8392,-2.792,-2.8199,-2.8305,-2.8491,-2.8779,-2.863,-2.8319,-2.7919,-2.7725,-2.76,-2.76,-2.76,-2.76,-2.76,-2.76,-2.76,-2.76,-2.8933,-2.9606,-2.9621,-3.0883,-3.1768,-3.2259,-3.2492,-3.3224,-3.4284,-3.4503,-3.4965,-3.56,-3.56,-3.56,-3.5718,-3.7026,-3.7686,-3.799,-3.8717,-3.9486,-4.0096,-2.7675,-2.8422,-2.8862,-2.8063,-2.8504,-2.9203,-2.9955,-3.0626,-3.0959,-3.0723,-3.0701,-3.0545,-3.0142,-2.9926,-2.9619,-2.9239,-2.9008,-2.8884,-2.8884,-2.9701,0.0,-2.8939,-3.0667,0.0,0.0,0.0,0.0,0.0,0.0,-3.1276,-3.1625,-3.1007,0.0,0.0,-2.9563,-2.9092,-2.8889,-2.894,-2.8951,-2.9041,-3.0073,-3.0657,0.0,0.0,-3.1122,-3.1511,0.0,-3.1511,-3.1511,-3.1511,-3.1511,-3.1421,-3.0972,-3.1152,-3.1286,-3.0223,-3.0193,-3.0268,-2.9235,-2.8786,0.0,-2.8796,-2.8225,0.0,-2.9629,0.0,0.0,0.0,0.0,0.0,0.0,0.0,0.0,0.0,0.0,0.0,0.0,-2.8066,-2.7457,-2.7704,-2.8253,-2.8656,-2.8745,-2.8785,-2.8567,-2.7968,-2.771,-2.76,-2.76,0.0,-2.76,-2.76,-2.76,-2.76,-2.76,-2.8933,-2.9606,-2.9621,-3.0883,-3.1881,-3.2629,-3.2841,-3.3556,-3.46,-3.4847,-3.5207,-3.56,-3.56,-3.5752,-3.6163,-3.7415,-3.8075,-3.8379,-3.9106,-3.9706,-4.0096,-2.769,-2.8255,-2.8686,-2.8632,-3.0138,-3.1331,-3.1259,-3.1888,-3.2108,-3.1454,-3.1357,-3.1333,-3.1308,-3.0804,-3.0454,-3.0454,-2.9925,-2.9606,-2.9606,-2.9663,0.0,0.0,-3.0241,-3.0587,-3.049,0.0,0.0,0.0,0.0,0.0,-3.2331,-3.1725,-3.1097,-3.049,-3.048,-3.0132,-2.9606,-2.9636,-2.9666,-2.9729,-3.0313,-3.0913,-3.1511,-3.1511,-3.1511,-3.1511,-3.1511,-3.1511,-3.1511,-3.1511,-3.1511,-3.1511,-3.1511,-3.1511,-3.1376,-3.0746,-3.0552,-3.0417,-2.9804,-2.9175,-2.8824,-2.9341,0.0,0.0,0.0,0.0,-2.776,0.0,0.0,0.0,0.0,0.0,0.0,0.0,0.0,0.0,0.0,0.0,-2.6328,-2.6988,-2.8286,-2.9156,-2.9206,-2.9318,-2.9157,-2.8559,-2.7959,-2.76,-2.76,0.0,-2.76,-2.76,-2.76,-2.76,-2.76,-2.8933,-2.9606,-2.9621,-3.0939,-3.1923,-3.2668,-3.3339,-3.4012,-3.4671,-3.5316,-3.56,-3.56,-3.56,-3.6079,-3.688,-3.7618,-3.8379,-3.914,-3.9842,-4.0096,-4.0096,-2.9072,-2.9598,-3.0155,-3.0574,-3.0709,-3.0737,-3.0712,-3.1246,-3.143,-3.0804,-3.0729,-3.0566,-3.0105,-2.991,-2.9818,-2.9818,-2.9672,0.0,0.0,0.0,0.0,-2.9621,-3.114,-3.1539,-3.0531,-3.126,0.0,-3.1646,0.0,-3.167,-3.1646,-3.1038,-3.0653,-3.0464,-3.0042,-2.9753,-2.9636,-3.0073,-3.0567,-3.1017,-3.1182,-3.1346,-3.1511,0.0,-3.1511,-3.1511,-3.1511,-3.1511,-3.1511,-3.1511,-3.1511,-3.1511,-3.1511,-3.1511,-3.1466,-3.1286,-3.1241,-3.1092,-3.0447,-3.0133,-2.9801,-2.9026,-2.8587,-2.8419,0.0,0.0,0.0,0.0,0.0,0.0,0.0,0.0,0.0,0.0,0.0,0.0,0.0,0.0,0.0,-2.6841,-2.775,-2.8609,-2.9156,-2.9318,-2.9157,-2.8559,-2.7959,-2.76,-2.76,0.0,0.0,-2.76,-2.76,-2.76,-2.76,-2.8933,-2.9606,-2.9621,-3.1451,-3.268,-3.3365,-3.4037,-3.4712,-3.5362,-3.5515,-3.56,-3.56,-3.56,-3.6079,-3.688,-3.7618,-3.8684,-3.9842,-4.0028,-4.0096,-4.0096,-3.0081,-3.0281,-3.0689,-3.1336,-3.1148,-3.0922,-3.0917,-3.1482,-3.1685,-3.1029,-3.0936,-3.08,-3.046,-3.0432,-3.0432,-3.0432,-3.0432,0.0,-3.0432,0.0,0.0,-3.0475,-3.1478,-3.172,-3.0963,-3.1581,0.0,-3.1927,0.0,-3.2215,-3.1927,-3.1597,-3.1243,-3.0921,-3.0584,-3.0432,-3.0447,-3.0778,-3.1152,-3.1511,-3.1511,-3.1511,0.0,-3.1511,-3.1511,-3.1511,-3.1511,-3.1511,-3.1511,-3.1511,-3.1511,-3.1511,-3.1511,-3.1511,-3.1511,-3.1511,-3.1511,-3.1421,-3.1032,-3.0731,-3.0268,-2.928,-2.8816,-2.8516,-2.8185,-2.7845,-2.7685,0.0,0.0,0.0,0.0,0.0,0.0,0.0,0.0,0.0,0.0,0.0,0.0,0.0,-2.8225,-2.8857,-2.9526,-2.9232,-2.8989,-2.8896,-2.8343,-2.7993,0.0,0.0,0.0,-2.7625,-2.786,-2.7885,-2.76,-2.9191,-2.9872,-2.9621,-3.1643,-3.2933,-3.3608,-3.4284,-3.4981,-3.56,-3.56,-3.56,-3.5616,-3.5994,-3.6586,-3.7381,-3.8447,-3.9385,-4.0096,-4.0096,-4.0096,-4.0096,-3.0825,-3.0754,-3.0962,-3.1534,-3.164,-3.1613,-3.1563,-3.2075,-3.2231,-3.1582,-3.1511,-3.1511,-3.1511,-3.1511,-3.1511,-3.1511,-3.1511,-3.1511,-3.1511,-3.1511,-3.1511,-3.1511,-3.1511,-3.1511,-3.1511,-3.2148,-3.2465,0.0,-3.3039,-3.3093,-3.2586,-3.2504,-3.2176,-3.164,-3.1524,-3.1511,-3.1511,-3.1511,-3.1511,-3.1511,-3.1511,-3.1511,-3.1511,-3.1511,-3.1511,-3.1511,-3.1511,-3.1511,-3.1511,-3.1511,-3.1511,-3.1511,-3.1511,-3.1511,-3.1511,-3.1511,-3.1511,-3.1511,-3.1511,-3.1062,-3.0492,-2.9864,-2.9205,-2.8547,-2.7884,-2.766,-2.76,-2.76,-2.76,-2.76,0.0,0.0,0.0,0.0,0.0,0.0,0.0,0.0,0.0,0.0,0.0,0.0,-3.0034,-2.927,-2.8966,-2.9473,-2.8966,0.0,0.0,0.0,0.0,-2.7625,-2.8116,-2.8165,-2.771,0.0,-3.021,-2.986,-3.1801,-3.3093,-3.3761,-3.4431,-3.5052,-3.56,-3.56,-3.56,-3.565,-3.6451,-3.728,-3.8176,-3.9571,-4.0096,-4.0096,-4.0096,-4.0096,-4.0096,-3.1259,-3.1817,-3.2256,-3.2379,-3.241,-3.2391,-3.2389,-3.1972,-3.164,-3.1511,-3.1511,-3.1511,-3.1511,-3.1511,-3.1511,-3.1511,-3.1511,0.0,0.0,0.0,0.0,-3.1511,-3.1511,-3.1511,-3.1511,-3.164,-3.1697,-3.1697,-3.1809,-3.2104,-3.2602,-3.1979,-3.1951,-3.2382,-3.1768,-3.1511,-3.1511,-3.1511,0.0,-3.1511,-3.1511,-3.1511,-3.1511,-3.1511,-3.1511,-3.1511,-3.1511,-3.1511,-3.1511,-3.1511,-3.1511,-3.1511,-3.1511,-3.1511,-3.1511,-3.1511,-3.1511,-3.1511,-3.1511,-3.1406,-3.1167,-3.0507,-2.9879,-2.9235,-2.8577,-2.8004,-2.76,-2.76,-2.76,-2.76,-2.76,0.0,0.0,0.0,0.0,0.0,0.0,0.0,0.0,0.0,0.0,-2.8881,-2.9996,-3.0042,-3.0038,-3.0145,-2.9585,0.0,0.0,0.0,0.0,0.0,-2.771,0.0,0.0,0.0,-3.0221,-3.1186,-3.2698,-3.3786,-3.4455,-3.5121,-3.5492,-3.56,-3.56,-3.56,-3.565,-3.6451,-3.7608,-3.8886,-3.9774,-4.0096,-4.0096,-4.0096,-4.0096,-4.0096,-3.3035,-3.3103,-3.3013,-3.2668,-3.2586,-3.2465,-3.2092,-3.171,-3.1511,-3.1511,-3.1511,-3.1511,-3.1511,-3.1511,-3.1511,-3.1511,-3.1511,-3.1511,-3.1511,-3.1511,-3.1511,-3.1511,-3.1511,-3.1511,-3.1511,-3.1511,-3.1511,-3.1511,-3.1881,-3.2244,0.0,-3.2259,-3.2272,-3.2559,-3.1824,-3.1511,-3.1511,0.0,0.0,-3.1511,-3.1511,-3.1511,-3.1511,-3.1511,-3.1511,-3.1511,-3.1511,-3.1511,-3.1511,-3.1511,-3.1511,-3.1511,-3.1511,-3.1511,-3.1511,-3.1511,-3.1511,-3.1511,-3.1511,-3.1511,-3.1346,-3.0672,-3.0043,-2.94,-2.8742,-2.8094,-2.76,-2.76,-2.76,-2.76,-2.76,-2.7835,0.0,0.0,0.0,0.0,0.0,0.0,-2.8516,0.0,0.0,0.0,0.0,0.0,-3.0293,-3.0293,-3.0038,-2.9473,-2.8559,0.0,0.0,0.0,0.0,0.0,0.0,0.0,0.0,-3.1565,-3.2934,-3.3962,-3.4624,-3.5276,-3.56,-3.56,-3.56,-3.56,-3.5684,-3.6891,-3.8227,-3.9622,-3.996,-4.0096,-4.0096,-4.0096,-4.0096,-4.0096,-3.4211,-3.3862,-3.3391,-3.2722,-3.2586,-3.241,-3.1824,-3.1611,-3.1511,-3.1511,-3.1511,-3.1511,-3.1511,-3.1511,-3.1511,-3.1511,-3.1511,-3.1511,-3.1511,-3.1511,-3.1511,-3.1511,-3.1511,-3.1511,-3.1511,-3.1511,-3.1511,0.0,-3.2092,-3.2465,0.0,0.0,-3.2355,-3.2355,0.0,0.0,0.0,0.0,-3.1511,-3.1511,-3.1511,-3.1511,-3.1511,-3.1511,-3.1511,-3.1511,-3.1511,-3.1511,-3.1511,-3.1511,-3.1511,-3.1511,-3.1511,-3.1511,-3.1511,-3.1511,-3.1511,-3.1511,-3.1511,-3.1511,-3.1376,-3.0823,-3.0253,-2.9609,-2.8951,-2.8304,-2.7764,-2.763,-2.76,-2.76,-2.76,-2.76,0.0,0.0,0.0,0.0,0.0,0.0,0.0,0.0,0.0,0.0,-3.0,0.0,0.0,0.0,-3.023,-2.9827,-2.8756,-2.9134,-2.8904,0.0,0.0,-2.8812,-2.8986,0.0,-3.1151,0.0,-3.3237,-3.4161,-3.4847,-3.5362,-3.56,-3.56,-3.56,-3.5785,-3.6191,-3.7584,-3.8903,-4.0096,-4.0096,-4.0096,-4.0096,-4.0096,-4.0096,-4.0096,-3.2922,-3.3251,-3.3391,-3.2722,-3.2586,-3.2574,-3.252,-3.1923,-3.1511,-3.1511,-3.1511,-3.1511,-3.1511,-3.1511,-3.1511,-3.1511,-3.1511,-3.1511,-3.1511,-3.1511,-3.1511,-3.1511,-3.1511,-3.1511,-3.1511,-3.1511,-3.1511,0.0,-3.1553,-3.1951,0.0,0.0,0.0,0.0,0.0,0.0,0.0,-3.1511,-3.1511,-3.1511,-3.1511,-3.1511,-3.1511,-3.1511,-3.1511,-3.1511,-3.1511,-3.1511,-3.1511,-3.1511,-3.1511,-3.1511,-3.1511,-3.1511,-3.1511,-3.1511,-3.1511,-3.1511,-3.1511,-3.1511,-3.1481,-3.1421,-3.0898,-3.0253,-2.9666,-2.8981,-2.8323,-2.772,-2.76,-2.76,-2.76,-2.76,-2.7625,0.0,0.0,0.0,0.0,0.0,-2.791,-2.8511,0.0,0.0,-2.9429,-2.9978,0.0,0.0,-2.9995,-3.0016,-2.9361,-2.9361,-2.9088,-2.8439,0.0,-2.9677,-3.0228,-3.106,-3.2117,-3.3334,-3.4127,-3.4871,-3.5515,-3.5577,-3.56,-3.56,-3.56,-3.6377,-3.7753,-3.8565,-3.9385,-4.0096,-4.0096,-4.0096,-4.0096,-4.0096,-4.0096,-4.0096,-3.3235,-3.3417,-3.3391,-3.2722,-3.2586,0.0,0.0,-3.2028,-3.2093,-3.2093,-3.175,-3.1645,-3.2049,-3.2093,-3.2243,-3.2677,-3.2706,-3.2706,-3.2706,-3.2303,-3.2093,-3.2093,-3.1705,-3.1511,-3.1511,-3.1511,-3.1511,0.0,0.0,0.0,0.0,0.0,0.0,0.0,0.0,-3.1511,-3.1511,-3.1511,-3.1511,-3.1511,-3.1511,-3.1511,-3.1511,-3.1511,-3.1511,-3.1511,-3.1511,-3.1511,-3.1511,-3.1511,-3.1511,-3.1511,-3.1511,-3.1511,-3.1511,-3.1511,-3.1511,-3.1511,-3.1511,-3.1511,-3.1511,-3.1511,-3.0987,-3.0342,-2.9756,-2.9071,-2.8412,-2.7735,-2.76,-2.76,-2.76,-2.76,-2.76,0.0,0.0,0.0,0.0,0.0,0.0,-2.7919,0.0,-2.8198,0.0,-2.9406,0.0,0.0,0.0,-3.0414,-2.9451,-2.9406,0.0,-2.9058,0.0,-2.9449,-3.0447,-3.0768,-3.1814,-3.3566,-3.3858,-3.4568,-3.56,-3.56,-3.5853,-3.6315,-3.6315,-3.7161,-3.8582,-3.887,-3.9411,-4.0096,-4.0096,-4.0096,-4.0096,-4.0096,-4.0096,-4.0096,-3.3339,-3.3313,-3.3156,-3.2672,-3.2578,-3.2442,-3.2137,-3.2497,-3.2796,-3.2796,-3.2363,-3.2258,-3.2751,-3.2796,-3.2991,-3.3455,-3.3499,-3.3499,-3.3499,-3.3066,-3.2796,-3.2796,-3.2138,0.0,-3.1795,-3.16,-3.1511,-3.1511,-3.2489,0.0,0.0,0.0,0.0,0.0,-3.1511,-3.1511,-3.1511,-3.1511,-3.1511,-3.1511,-3.1511,-3.1511,-3.1511,-3.1511,-3.1511,-3.1511,-3.1511,-3.1511,-3.1511,-3.1511,-3.1511,-3.1511,-3.1511,-3.1511,-3.1511,-3.1511,-3.1511,-3.1511,-3.1511,-3.1511,-3.1511,-3.1511,-3.1137,-3.0642,-2.9998,-2.9355,-2.8637,-2.7779,-2.76,-2.76,-2.76,-2.76,-2.76,-2.76,0.0,0.0,0.0,0.0,0.0,0.0,-2.76,-2.776,-2.8189,-2.8779,0.0,0.0,0.0,0.0,0.0,0.0,0.0,0.0,0.0,0.0,0.0,-3.1209,-3.214,-3.3608,-3.3987,-3.4681,-3.56,-3.5836,-3.6265,-3.6829,-3.7269,-3.8048,-3.9005,-3.9225,-3.9639,-4.0096,-4.0096,-4.0096,-4.0096,-4.0096,-4.0096,-4.0096,-3.2749,-3.2614,-3.2598,-3.2525,-3.2497,-3.2721,-3.338,-3.3484,-3.3484,-3.3484,-3.3469,-3.3469,-3.3484,-3.3484,-3.3484,-3.3499,-3.3499,-3.3499,-3.3499,-3.3484,-3.3484,0.0,0.0,-3.2497,-3.2497,-3.1839,-3.1511,-3.1511,0.0,0.0,-3.1496,0.0,-3.1511,-3.1511,-3.1511,-3.1511,-3.1511,-3.1511,-3.1511,-3.1511,-3.1511,-3.1511,-3.1511,-3.1511,-3.1511,-3.1511,-3.1511,-3.1511,-3.1511,-3.1511,-3.1511,-3.1511,-3.1511,-3.1511,-3.1511,-3.1511,-3.1511,-3.1511,-3.1511,-3.1511,-3.1511,-3.1511,-3.1496,-3.1316,-3.0657,-3.0013,-2.9217,-2.7869,-2.76,-2.76,-2.76,-2.76,-2.76,-2.76,0.0,0.0,0.0,0.0,0.0,-2.76,-2.76,-2.76,-2.7625,-2.8165,0.0,0.0,0.0,0.0,0.0,0.0,0.0,-2.9503,-3.0134,0.0,-3.138,-3.2829,-3.3582,-3.3624,-3.4934,-3.5577,-3.5616,-3.6417,-3.6795,-3.688,-3.8328,-3.8971,-3.9056,-3.9791,-4.0096,-4.0096,-4.0096,-4.0096,-4.0096,-4.0096,-4.0096,-4.0096,-3.4834,-3.4372,-3.403,-3.3986,-3.3562,-3.3245,-3.3469,-3.3873,-3.4158,-3.4158,-3.4577,-3.4861,-3.4861,-3.4442,-3.4352,0.0,-3.4861,-3.4861,0.0,-3.4427,-3.4158,-3.4158,-3.3529,-3.3185,-3.3185,-3.2976,-3.2647,-3.2168,0.0,0.0,0.0,-3.1754,-3.1511,-3.1511,-3.1511,-3.1511,-3.1511,-3.1511,-3.1511,-3.1511,-3.1511,-3.1511,-3.1511,-3.1511,-3.1511,-3.1511,-3.1511,-3.1511,-3.1511,-3.1511,-3.1511,-3.1511,-3.1511,-3.1511,-3.1511,-3.1511,-3.1511,-3.1511,-3.1511,-3.1511,-3.1511,-3.1511,-3.1511,-3.1316,-3.0657,-2.9684,-2.8678,-2.7779,-2.76,-2.76,-2.76,-2.76,-2.76,-2.76,-2.76,0.0,0.0,0.0,0.0,-2.76,-2.76,-2.76,-2.76,-2.814,0.0,0.0,0.0,0.0,0.0,0.0,0.0,0.0,-3.036,0.0,-3.138,-3.2429,-3.3145,-3.3608,-3.4496,-3.5452,-3.6417,-3.6694,-3.7354,-3.8335,-3.8785,-3.9276,-3.9774,-4.0011,-4.0096,-4.0096,-4.0096,-4.0096,-4.0096,-4.0096,-4.0096,-4.0096,-3.5814,-3.5419,-3.5194,-3.5446,-3.506,-3.4815,-3.5076,-3.5476,-3.5753,-3.5753,-3.6107,-3.6368,-3.6368,-3.5705,0.0,-3.5492,-3.575,-3.5814,-3.5537,-3.51,-3.4861,-3.4861,-3.4218,-3.3858,-3.3858,0.0,0.0,-3.2886,-3.3302,-3.3184,-3.2542,-3.2087,-3.1735,-3.1511,-3.1511,-3.1511,-3.1511,-3.1511,-3.1511,-3.1511,-3.1511,-3.1511,-3.1511,-3.1511,-3.1511,-3.1511,-3.1511,-3.1511,-3.1511,-3.1511,-3.1511,-3.1511,-3.1511,-3.1511,-3.1511,-3.1511,-3.1511,-3.1511,-3.1511,-3.1511,-3.1511,-3.1511,-3.1511,-3.1271,-3.0372,-2.9549,-2.8697,-2.7794,-2.76,-2.76,-2.76,-2.76,-2.76,-2.76,-2.76,-2.76,-2.76,0.0,0.0,0.0,0.0,0.0,0.0,-2.7959,-2.8319,0.0,0.0,0.0,0.0,0.0,0.0,-3.0407,-3.0479,0.0,-3.1433,-3.2446,-3.3198,-3.3608,-3.4824,-3.5901,-3.6829,-3.7371,-3.8125,-3.9005,-3.9276,-3.9673,-4.0096,-4.0096,-4.0096,-4.0096,-4.0096,-4.0096,-4.0096,-4.0096,-4.0096,-4.0096,-3.6093,-3.6039,-3.6221,0.0,-3.691,0.0,-3.771,-3.7793,-3.7793,-3.7793,-3.7793,-3.7793,-3.7793,-3.7114,-3.6399,-3.5636,0.0,0.0,0.0,-3.5504,-3.5504,-3.5504,-3.4891,-3.4578,-3.4578,-3.3948,-3.3619,-3.3559,-3.3514,-3.3185,-3.2557,-3.2557,-3.2228,-3.1645,-3.1645,-3.1645,-3.1645,-3.1585,-3.157,-3.157,-3.1525,-3.1511,-3.1511,-3.1511,-3.1511,-3.1511,-3.1511,-3.1511,-3.1511,-3.1511,-3.1511,-3.1511,-3.1511,-3.1511,-3.1511,-3.1511,-3.1511,-3.1511,-3.1511,-3.1511,-3.1511,-3.1511,-3.1511,-3.1182,-2.9939,-2.9636,-2.9232,-2.7944,-2.763,-2.76,-2.76,-2.76,-2.76,-2.76,-2.76,-2.76,-2.76,0.0,0.0,0.0,0.0,0.0,0.0,-2.7645,-2.77,0.0,0.0,0.0,0.0,0.0,-3.0492,-3.049,-3.0552,-3.0881,-3.1582,-3.2917,-3.3665,-3.3857,-3.5845,-3.6846,-3.6998,-3.8362,-3.9022,-3.9106,-3.9808,-4.0096,-4.0096,-4.0096,-4.0096,-4.0096,-4.0096,-4.0096,-4.0096,-4.0096,-4.0096,-4.0096,0.0,0.0,-3.8231,-3.8368,-3.7947,-3.7614,-3.779,-3.7793,-3.7793,-3.7793,-3.7793,-3.7793,-3.7793,-3.7632,-3.7189,-3.643,-3.5975,-3.5701,-3.5504,-3.5504,-3.5504,-3.5504,-3.5355,-3.5265,-3.5265,-3.5115,-3.4771,-3.4279,-3.3739,-3.3425,-3.326,-3.326,-3.3185,-3.3036,-3.3036,-3.3036,-3.2991,-3.2497,-3.2243,-3.2213,-3.1705,-3.1511,-3.1511,-3.1511,-3.1511,-3.1511,-3.1511,-3.1511,-3.1511,-3.1511,-3.1511,-3.1511,-3.1511,-3.1511,-3.1511,-3.1511,-3.1511,-3.1511,-3.1511,-3.1511,-3.1511,-3.1511,-3.1511,-3.1286,-3.0477,-2.9924,-2.934,-2.8532,-2.7959,-2.76,-2.76,-2.76,-2.76,-2.76,-2.76,-2.76,-2.76,-2.76,0.0,0.0,-2.76,-2.76,-2.76,-2.8053,-2.8544,0.0,0.0,0.0,0.0,-3.1011,-3.0955,-3.052,-3.0987,-3.1602,-3.2327,-3.3182,-3.4429,-3.6054,-3.6555,-3.7405,-3.8481,-3.8836,-3.9292,-3.9859,-4.0028,-4.0096,-4.0096,-4.0096,-4.0096,-4.0096,-4.0096,-4.0096,-4.0096,-4.0096,-4.0096,-4.0096,-4.0096,-3.9756,-3.9463,-3.9463,-3.9129,-3.8859,-3.8859,-3.8859,-3.8859,-3.8859,-3.8859,-3.8859,-3.8859,-3.8513,-3.8133,-3.77,-3.6661,-3.5863,-3.5537,-3.5504,-3.5504,-3.5504,-3.5504,-3.5504,-3.5504,-3.5504,-3.5325,-3.4951,-3.4592,-3.4262,-3.3948,-3.3948,-3.3784,-3.3499,-3.3499,-3.3499,-3.3469,-3.311,-3.2781,-3.2482,-3.2093,-3.1765,-3.1511,-3.1511,-3.1511,-3.1511,-3.1511,-3.1511,-3.1511,-3.1511,-3.1511,-3.1511,-3.1511,-3.1511,-3.1511,-3.1511,-3.1511,-3.1511,-3.1511,-3.1511,-3.1511,-3.1511,-3.1511,-3.1316,-3.0657,-3.0028,-2.9427,-2.8742,-2.8079,-2.76,-2.76,-2.76,-2.76,-2.76,-2.76,-2.76,-2.76,-2.76,0.0,-2.76,-2.7869,-2.8064,-2.8064,-2.8652,-2.9185,-2.952,-3.0155,0.0,-3.0982,-3.1275,-3.1306,-3.0971,-3.1628,-3.2203,-3.2602,-3.3918,-3.53,-3.6812,-3.7489,-3.8234,-3.9005,-3.9368,-3.9723,-4.0096,-4.0096,-4.0096,-4.0096,-4.0096,-4.0096,-4.0096,-4.0096,-4.0096,-4.0096,-4.0096,-4.0096,-4.0096,-4.0096,-4.0096,-4.0096,-4.0096,-4.0096,-4.0096,-4.0096,-4.0096,-4.0096,-4.0096,-4.0096,-4.0096,-4.0096,-3.9368,-3.8908,-3.8908,-3.7584,-3.6523,-3.5878,-3.5861,-3.5782,-3.5668,-3.5668,-3.5619,-3.5504,-3.5504,-3.5504,-3.5504,-3.5504,-3.5205,-3.4668,-3.4668,-3.4369,-3.3799,-3.3799,-3.3799,-3.3799,-3.3679,-3.326,-3.2647,-3.2557,-3.2093,-3.1511,-3.1511,-3.1511,-3.1511,-3.1511,-3.1511,-3.1511,-3.1511,-3.1511,-3.1511,-3.1511,-3.1511,-3.1511,-3.1511,-3.1511,-3.1511,-3.1511,-3.1511,-3.1511,-3.1511,-3.1511,-3.1346,-3.0791,-3.0178,-2.9564,-2.8996,-2.8263,-2.775,-2.775,-2.766,-2.76,-2.76,-2.76,-2.763,-2.7735,0.0,-2.7794,-2.7884,-2.8382,-2.8742,-2.8742,-2.934,-2.9756,-2.9756,-3.0298,-3.0657,0.0,-3.1182,-3.1553,-3.1668,-3.2272,-3.2742,-3.3052,-3.4942,-3.6285,-3.7151,-3.8396,-3.9056,-3.9174,-3.9808,-4.0096,-4.0096,-4.0096,-4.0096,-4.0096,-4.0096,-4.0096,-4.0096,-4.0096,-4.0096,-4.0096,-4.0096,-4.0096,-4.0096,-4.0096,-4.0096,-4.0096,-4.0096,-4.0096,-4.0096,-4.0096,-4.0096,-4.0096,-4.0096,-4.0096,-4.0096,-4.0096,-3.9368,-3.8908,-3.8908,-3.8104,-3.7573,-3.7442,-3.7442,-3.7145,-3.6477,-3.6446,-3.6134,-3.5504,-3.5504,-3.5504,-3.5504,-3.5504,-3.5444,-3.534,-3.534,-3.5295,-3.519,-3.519,-3.519,-3.516,-3.4608,-3.3948,-3.3305,-3.2736,-3.2093,-3.1511,-3.1511,-3.1511,-3.1511,-3.1511,-3.1511,-3.1511,-3.1511,-3.1511,-3.1511,-3.1511,-3.1511,-3.1511,-3.1511,-3.1511,-3.1511,-3.1511,-3.1511,-3.1511,-3.1511,-3.1511,-3.1481,-3.1376,-3.0823,-3.0328,-3.0238,-2.9265,-2.8442,-2.8442,-2.7989,-2.76,-2.76,-2.76,-2.7809,-2.8368,0.0,-2.8652,-2.9232,-2.9397,-2.943,-2.943,-2.9998,-3.0357,-3.0357,-3.0957,-3.1346,-3.1346,-3.1451,-3.1796,-3.241,-3.2532,-3.3456,-3.5199,-3.6159,-3.731,-3.865,-3.8886,-3.9326,-3.9943,-4.0045,-4.0096,-4.0096,-4.0096,-4.0096,-4.0096,-4.0096,-4.0096,-4.0096,-4.0096,-4.0096,-4.0096,-4.0096,-4.0096,-4.0096,-4.0096,-4.0096,-4.0096,-4.0096,-4.0096,-4.0096,-4.0096,-4.0096,-4.0096,-4.0096,-4.0096,-4.0096,-4.0096,-3.9782,-3.9542,-3.9542,-3.9252,-3.9022,-3.9022,-3.7847,-3.6994,-3.6615,-3.6228,-3.5831,-3.5504,-3.5504,-3.5504,-3.5504,-3.5504,-3.5504,-3.5504,-3.5504,-3.5504,-3.5504,-3.5504,-3.5504,-3.5489,-3.516,-3.4637,-3.3994,-3.3305,-3.2647,-3.1989,-3.1645,-3.1511,-3.1511,-3.1511,-3.1511,-3.1511,-3.1511,-3.1511,-3.1511,-3.1511,-3.1511,-3.1511,-3.1511,-3.1511,-3.1511,-3.1511,-3.1511,-3.1511,-3.1511,-3.1511,-3.1511,-3.1511,-3.0972,-3.0507,-3.0507,-2.9774,-2.9131,-2.9131,-2.8903,-2.8678,-2.8678,-2.8678,0.0,0.0,-2.9131,-2.9235,-2.9577,-2.9879,-3.0073,-3.0073,-3.0672,-3.1032,-3.1032,-3.1331,-3.1511,-3.1511,-3.1881,-3.2244,-3.2586,-3.3694,-3.491,-3.6281,-3.7431,-3.8335,-3.8988,-3.9394,-3.9774,-4.0096,-4.0096,-4.0096,-4.0096,-4.0096,-4.0096,-4.0096,-4.0096,-4.0096,-4.0096,-4.0096,-4.0096,-4.0096,-4.0096,-4.0096,-4.0096,-4.0096,-4.0096,-4.0096,-4.0096,-4.0096,-4.0096,-4.0096,-4.0096,-4.0096,-4.0096,-4.0096,-4.0096,-4.0096,-4.0096,-4.0096,-4.0096,-4.0096,-4.0096,-4.0096,-3.8088,-3.6873,-3.6873,-3.5975,-3.5504,-3.5504,-3.5504,-3.5504,-3.5504,-3.5504,-3.5504,-3.5504,-3.5504,-3.5504,-3.5504,-3.5504,-3.5504,-3.5504,-3.5504,-3.51,-3.4444,-3.3769,-3.3095,-3.2437,-3.175,-3.1511,-3.1511,-3.1511,-3.1511,-3.1511,-3.1511,-3.1511,-3.1511,-3.1511,-3.1511,-3.1511,-3.1511,-3.1511,-3.1511,-3.1511,-3.1511,-3.1511,-3.1511,-3.1511,-3.1511,-3.1511,-3.1092,-3.0746,-3.0746,-3.0238,-2.9804,-2.9804,-2.9696,-2.9606,-2.9606,0.0,0.0,0.0,-2.9804,-2.9864,-3.0013,-3.0447,-3.0746,-3.0746,-3.1197,-3.1511,-3.1511,-3.1511,-3.1582,-3.1739,-3.2299,-3.2812,-3.3318,-3.4883,-3.6222,-3.7297,-3.843,-3.9089,-3.9242,-3.9842,-4.0096,-4.0096,-4.0096,-4.0096,-4.0096,-4.0096,-4.0096,-4.0096,-4.0096,-4.0096,-4.0096,-4.0096,-4.0096,-4.0096,-4.0096,-4.0096,-4.0096,-4.0096,-4.0096,-4.0096,-4.0096,-4.0096,-4.0096,-4.0096,-4.0096,-4.0096,-4.0096,-4.0096,-4.0096,-4.0096,-4.0096,-4.0096,-4.0096,-4.0096,-4.0096,-4.0096,-3.8596,-3.769,-3.769,-3.629,-3.5504,-3.5504,-3.5504,-3.5504,-3.5504,-3.5504,-3.5504,-3.5504,-3.5504,-3.5504,-3.5504,-3.5504,-3.5504,-3.5504,-3.5504,-3.51,-3.4444,-3.3769,-3.3095,-3.2437,-3.175,-3.1511,-3.1511,-3.1511,-3.1511,-3.1511,-3.1511,-3.1511,-3.1511,-3.1511,-3.1511,-3.1511,-3.1511,-3.1511,-3.1511,-3.1511,-3.1511,-3.1511,-3.1511,-3.1511,-3.1511,-3.1511,-3.1466,-3.1436,-3.1436,-3.0883,-3.0432,-3.0432,-2.9968,-2.9606,-2.9606,0.0,0.0,-3.0357,-3.0432,-3.0672,-3.1286,-3.1406,-3.1436,-3.1436,-3.1466,-3.1511,-3.1511,-3.1511,-3.1796,-3.2492,-3.2559,-3.3498,-3.5415,-3.5622,-3.6704,-3.8819,-3.8937,-3.9326,-4.0028,-4.0079,-4.0096,-4.0096,-4.0096,-4.0096,-4.0096,-4.0096,-4.0096,-4.0096,-4.0096,-4.0096,-4.0096,-4.0096,-4.0096,-4.0096,-4.0096,-4.0096,-4.0096,-4.0096,-4.0096,-4.0096,-4.0096,-4.0096,-4.0096,-4.0096,-4.0096,-4.0096,-4.0096,-4.0096,-4.0096,-4.0096,-4.0096,-4.0096,-4.0096,-4.0096,-3.9901,-3.9385,-3.9262,-3.8374,-3.6461,-3.5829,-3.5504,-3.5504,-3.5504,-3.5504,-3.5504,-3.5504,-3.5504,-3.5504,-3.5504,-3.5504,-3.5504,-3.5504,-3.5504,-3.5504,-3.5504,-3.5355,-3.5026,-3.3933,-3.335,-3.3006,-3.1914,-3.1511,-3.1511,-3.1511,-3.1511,-3.1511,-3.1511,-3.1511,-3.1511,-3.1511,-3.1511,-3.1511,-3.1511,-3.1511,-3.1511,-3.1511,-3.1511,-3.1511,-3.1511,-3.1511,-3.1511,-3.1511,-3.1511,-3.1511,-3.1511,-3.1301,-3.1122,-3.1122,-3.0913,-3.0791,-3.0791,0.0,-3.0853,-3.1077,-3.1122,-3.1212,-3.1466,-3.1511,-3.1511,-3.1511,-3.1511,-3.1511,-3.1511,-3.1923,-3.2496,-3.3231,-3.4494,-3.5976,-3.7693,-3.7751,-3.816,-3.8988,-3.9445,-3.9825,-4.0096,-4.0096,-4.0096,-4.0096,-4.0096,-4.0096,-4.0096,-4.0096,-4.0096,-4.0096,-4.0096,-4.0096,-4.0096,-4.0096,-4.0096,-4.0096,-4.0096,-4.0096,-4.0096,-4.0096,-4.0096,-4.0096,-4.0096,-4.0096,-4.0096,-4.0096,-4.0096,-4.0096,-4.0096,-4.0096,-4.0096,-4.0096,-4.0096,-4.0096,-4.0096,-4.0096,-3.9876,-3.9315,-3.9332,-3.843,-3.6305,-3.5765,-3.5504,-3.5504,-3.5504,-3.5504,-3.5504,-3.5504,-3.5504,-3.5504,-3.5504,-3.5504,-3.5504,-3.5504,-3.5504,-3.5504,-3.5504,-3.5504,-3.5415,-3.4262,-3.3679,-3.338,-3.2228,-3.169,-3.1511,-3.1511,-3.1511,-3.1511,-3.1511,-3.1511,-3.1511,-3.1511,-3.1511,-3.1511,-3.1511,-3.1511,-3.1511,-3.1511,-3.1511,-3.1511,-3.1511,-3.1511,-3.1511,-3.1511,-3.1511,-3.1511,-3.1511,-3.1511,-3.1511,-3.1511,-3.1511,-3.1511,-3.1511,-3.1511,-3.1511,-3.1511,-3.1511,-3.1511,-3.1511,-3.1511,-3.1511,-3.1511,-3.1511,-3.1511,-3.1511,-3.2387,-3.3451,-3.4603,-3.6453,-3.7962,-3.8971,-3.9208,-3.9368,-3.9368,-3.9859,-4.0096,-4.0096,-4.0096,-4.0096,-4.0096,-4.0096,-4.0096,-4.0096,-4.0096,-4.0096,-4.0096,-4.0096,-4.0096,-4.0096,-4.0096,-4.0096,-4.0096,-4.0096,-4.0096,-4.0096,-4.0096,-4.0096,-4.0096,-4.0096,-4.0096,-4.0096,-4.0096,-4.0096,-4.0096,-4.0096,-4.0096,-4.0096,-4.0096,-4.0096,-4.0096,-4.0096,-4.0096,-4.0096,-4.0096,-3.8668,-3.7793,-3.7793,-3.6321,-3.5504,-3.5504,-3.5504,-3.5504,-3.5504,-3.5504,-3.5504,-3.5504,-3.5504,-3.5504,-3.5504,-3.5504,-3.5504,-3.5504,-3.5504,-3.5504,-3.5444,-3.4788,-3.4114,-3.3425,-3.2766,-3.2079,-3.1511,-3.1511,-3.1511,-3.1511,-3.1511,-3.1511,-3.1511,-3.1511,-3.1511,-3.1511,-3.1511,-3.1511,-3.1511,-3.1511,-3.1511,-3.1511,-3.1511,-3.1511,-3.1511,-3.1511,-3.1511,-3.1511,-3.1511,-3.1511,-3.1511,-3.1511,-3.1511,-3.1511,-3.1511,-3.1511,-3.1511,-3.1511,-3.1511,-3.1511,-3.1511,-3.1511,-3.1511,-3.1511,-3.1511,-3.1511,-3.1511,-3.2885,-3.4634,-3.6701,-3.8212,-3.9005,-3.9005,-3.9723,-4.0096,-4.0096,-4.0096,-4.0096,-4.0096,-4.0096,-4.0096,-4.0096,-4.0096,-4.0096,-4.0096,-4.0096,-4.0096,-4.0096,-4.0096,-4.0096,-4.0096,-4.0096,-4.0096,-4.0096,-4.0096,-4.0096,-4.0096,-4.0096,-4.0096,-4.0096,-4.0096,-4.0096,-4.0096,-4.0096,-4.0096,-4.0096,-4.0096,-4.0096,-4.0096,-4.0096,-4.0096,-4.0096,-4.0096,-4.0096,-4.0096,-4.0096,-3.8668,-3.7793,-3.7793,-3.6321,-3.5504,-3.5504,-3.5504,-3.5504,-3.5504,-3.5504,-3.5504,-3.5504,-3.5504,-3.5504,-3.5504,-3.5504,-3.5504,-3.5504,-3.5504,-3.5504,-3.5444,-3.4788,-3.4114,-3.3425,-3.2766,-3.2079,-3.1511,-3.1511,-3.1511,-3.1511,-3.1511,-3.1511,-3.1511,-3.1511,-3.1511,-3.1511,-3.1511,-3.1511,-3.1511,-3.1511,-3.1511,-3.1511,-3.1511,-3.1511,-3.1511,-3.1511,-3.1511,-3.1511,-3.1511,-3.1511,-3.1511,-3.1511,-3.1511,-3.1511,-3.1511,-3.1511,-3.1511,-3.1511,-3.1511,-3.1511,-3.1511,-3.1511,-3.1511,-3.1511,-3.1951,-3.2499,-3.3,-3.5318,-3.718,-3.8304,-3.9252,-3.9774,-3.9774,-3.9994,-4.0096,-4.0096,-4.0096,-4.0096,-4.0096,-4.0096,-4.0096,-4.0096,-4.0096,-4.0096,-4.0096,-4.0096,-4.0096,-4.0096,-4.0096,-4.0096,-4.0096,-4.0096,-4.0096,-4.0096,-4.0096,-4.0096,-4.0096,-4.0096,-4.0096,-4.0096,-4.0096,-4.0096,-4.0096,-4.0096,-4.0096,-4.0096,-4.0096,-4.0096,-4.0096,-4.0096,-4.0096,-4.0096,-4.0096,-4.0096,-3.9952,-3.9636,-3.8761,-3.8121,-3.7806,-3.692,-3.6101,-3.5504,-3.5504,-3.5504,-3.5504,-3.5504,-3.5504,-3.5504,-3.5504,-3.5504,-3.5504,-3.5504,-3.5504,-3.5504,-3.5504,-3.5504,-3.5474,-3.5055,-3.4487,-3.3814,-3.3155,-3.2497,-3.1854,-3.16,-3.1511,-3.1511,-3.1511,-3.1511,-3.1511,-3.1511,-3.1511,-3.1511,-3.1511,-3.1511,-3.1511,-3.1511,-3.1511,-3.1511,-3.1511,-3.1511,-3.1511,-3.1511,-3.1511,-3.1511,-3.1511,-3.1511,-3.1511,-3.1511,-3.1511,-3.1511,-3.1511,-3.1511,-3.1511,-3.1511,-3.1511,-3.1511,-3.1511,-3.1511,-3.1745,-3.2315,-3.2767,-3.3693,-3.527,-3.7008,-3.8426,-3.9369,-3.9859,-4.0096,-4.0096,-4.0096,-4.0096,-4.0096,-4.0096,-4.0096,-4.0096,-4.0096,-4.0096,-4.0096,-4.0096,-4.0096,-4.0096,-4.0096,-4.0096,-4.0096,-4.0096,-4.0096,-4.0096,-4.0096,-4.0096,-4.0096,-4.0096,-4.0096,-4.0096,-4.0096,-4.0096,-4.0096,-4.0096,-4.0096,-4.0096,-4.0096,-4.0096,-4.0096,-4.0096,-4.0096,-4.0096,-4.0096,-4.0096,-4.0096,-4.0096,-4.0096,-3.9782,-3.9059,-3.9005,-3.8679,-3.7921,-3.7892,-3.7205,-3.5733,-3.5651,-3.5587,-3.5587,-3.5537,-3.5504,-3.5504,-3.5504,-3.5504,-3.5504,-3.5504,-3.5504,-3.5504,-3.5504,-3.5504,-3.5504,-3.5504,-3.51,-3.4444,-3.3814,-3.314,-3.2407,-3.1809,-3.1555,-3.1511,-3.1511,-3.1511,-3.1511,-3.1511,-3.1511,-3.1511,-3.1511,-3.1511,-3.1511,-3.1511,-3.1511,-3.1511,-3.1511,-3.1511,-3.1511,-3.1511,-3.1511,-3.1511,-3.1511,-3.1511,-3.1511,-3.1511,-3.1511,-3.1511,-3.1511,-3.1511,-3.1511,-3.1511,-3.1511,-3.1511,-3.1511,-3.1613,-3.2213,-3.3572,-3.3923,-3.5211,-3.7883,-3.8153,-3.8744,-4.0037,-4.0096,-4.0096,-4.0096,-4.0096,-4.0096,-4.0096,-4.0096,-4.0096,-4.0096,-4.0096,-4.0096,-4.0096,-4.0096,-4.0096,-4.0096,-4.0096,-4.0096,-4.0096,-4.0096,-4.0096,-4.0096,-4.0096,-4.0096,-4.0096,-4.0096,-4.0096,-4.0096,-4.0096,-4.0096,-4.0096,-4.0096,-4.0096,-4.0096,-4.0096,-4.0096,-4.0096,-4.0096,-4.0096,-4.0096,-4.0096,-4.0096,-4.0096,-4.0096,-4.0096,-4.002,-3.9833,-3.9833,-3.9489,-3.869,-3.8663,-3.8246,-3.7324,-3.6692,-3.6353,-3.6353,-3.5782,-3.5504,-3.5504,-3.5504,-3.5504,-3.5504,-3.5504,-3.5504,-3.5504,-3.5504,-3.5504,-3.5504,-3.5504,-3.51,-3.4488,-3.4354,-3.3529,-3.2497,-3.2333,-3.1944,-3.1511,-3.1511,-3.1511,-3.1511,-3.1511,-3.1511,-3.1511,-3.1511,-3.1511,-3.1511,-3.1511,-3.1511,-3.1511,-3.1511,-3.1511,-3.1511,-3.1511,-3.1511,-3.1511,-3.1511,-3.1511,-3.1511,-3.1511,-3.1511,-3.1511,-3.1511,-3.1511,-3.1511,-3.1511,-3.1511,-3.1511,-3.1511,-3.2505,-3.3339,-3.3675,-3.5727,-3.7541,-3.869,-3.932,-3.9775,-4.0096,-4.0096,-4.0096,-4.0096,-4.0096,-4.0096,-4.0096,-4.0096,-4.0096,-4.0096,-4.0096,-4.0096,-4.0096,-4.0096,-4.0096,-4.0096,-4.0096,-4.0096,-4.0096,-4.0096,-4.0096,-4.0096,-4.0096,-4.0096,-4.0096,-4.0096,-4.0096,-4.0096,-4.0096,-4.0096,-4.0096,-4.0096,-4.0096,-4.0096,-4.0096,-4.0096,-4.0096,-4.0096,-4.0096,-4.0096,-4.0096,-4.0096,-4.0096,-4.0096,-4.0096,-4.0096,-4.0096,-4.0096,-3.9901,-3.9489,-3.9463,-3.9289,-3.8914,-3.8117,-3.7526,-3.7174,-3.6799,-3.6399,-3.6023,-3.6023,-3.5846,-3.5504,-3.5504,-3.5504,-3.5504,-3.5504,-3.5504,-3.5504,-3.5504,-3.5295,-3.4936,-3.4638,-3.4038,-3.3365,-3.2736,-3.2064,-3.1511,-3.1511,-3.1511,-3.1511,-3.1511,-3.1511,-3.1511,-3.1511,-3.1511,-3.1511,-3.1511,-3.1511,-3.1511,-3.1511,-3.1511,-3.1511,-3.1511,-3.1511,-3.1511,-3.1511,-3.1511,-3.1511,-3.1511,-3.1511,-3.1511,-3.1511,-3.1796,-3.2035,-3.2035,-3.2266,-3.259,-3.2968,-3.3727,-3.4595,-3.5657,-3.7712,-3.9151,-3.9512,-3.9893,-4.0096,-4.0096,-4.0096,-4.0096,-4.0096,-4.0096,-4.0096,-4.0096,-4.0096,-4.0096,-4.0096,-4.0096,-4.0096,-4.0096,-4.0096,-4.0096,-4.0096,-4.0096,-4.0096,-4.0096,-4.0096,-4.0096,-4.0096,-4.0096,-4.0096,-4.0096,-4.0096,-4.0096,-4.0096,-4.0096,-4.0096,-4.0096,-4.0096,-4.0096,-4.0096,-4.0096,-4.0096,-4.0096,-4.0096,-4.0096,-4.0096,-4.0096,-4.0096,-4.0096,-4.0096,-4.0096,-4.0096,-4.0096,-4.0096,-4.0096,-4.0096,-4.0096,-4.0096,-4.0096,-3.9437,-3.8734,-3.7978,-3.7863,-3.7397,-3.6615,-3.6615,-3.6196,-3.5504,-3.5504,-3.5504,-3.5504,-3.5504,-3.5504,-3.5504,-3.5504,-3.5504,-3.5444,-3.4861,-3.4608,-3.4354,-3.3245,-3.2333,-3.1675,-3.1675,-3.16,-3.1511,-3.1511,-3.1511,-3.1511,-3.1511,-3.1511,-3.1511,-3.1511,-3.1511,-3.1511,-3.1511,-3.1511,-3.1511,-3.1511,-3.1511,-3.1511,-3.1511,-3.1511,-3.1511,-3.1511,-3.1511,-3.1524,-3.1668,-3.2183,-3.2662,-3.2921,-3.3398,-3.4013,-3.4803,-3.5114,-3.6079,-3.815,-3.9404,-4.0096,-4.0096,-4.0096,-4.0096,-4.0096,-4.0096,-4.0096,-4.0096,-4.0096,-4.0096,-4.0096,-4.0096,-4.0096,-4.0096,-4.0096,-4.0096,-4.0096,-4.0096,-4.0096,-4.0096,-4.0096,-4.0096,-4.0096,-4.0096,-4.0096,-4.0096,-4.0096,-4.0096,-4.0096,-4.0096,-4.0096,-4.0096,-4.0096,-4.0096,-4.0096,-4.0096,-4.0096,-4.0096,-4.0096,-4.0096,-4.0096,-4.0096,-4.0096,-4.0096,-4.0096,-4.0096,-4.0096,-4.0096,-4.0096,-4.0096,-4.0096,-4.0096,-4.0096,-4.0096,-4.0096,-4.0096,-4.0096,-3.9978,-3.9558,-3.8745,-3.8121,-3.7397,-3.6615,-3.6615,-3.6196,-3.5504,-3.5504,-3.5504,-3.5504,-3.5504,-3.5504,-3.5504,-3.5504,-3.5504,-3.5489,-3.54,-3.4996,-3.4488,-3.4309,-3.3425,-3.2348,-3.2348,-3.1974,-3.1511,-3.1511,-3.1511,-3.1511,-3.1511,-3.1511,-3.1511,-3.1511,-3.1511,-3.1511,-3.1511,-3.1511,-3.1511,-3.1511,-3.1511,-3.1511,-3.1511,-3.1511,-3.1511,-3.1511,-3.1511,-3.1726,-3.2355,-3.2494,-3.2974,-3.4244,-3.4494,-3.4804,-3.5561,-3.6761,-3.8166,-3.9657,-3.9995,-4.0096,-4.0096,-4.0096,-4.0096,-4.0096,-4.0096,-4.0096,-4.0096,-4.0096,-4.0096,-4.0096,-4.0096,-4.0096,-4.0096,-4.0096,-4.0096,-4.0096,-4.0096,-4.0096,-4.0096,-4.0096,-4.0096,-4.0096,-4.0096,-4.0096,-4.0096,-4.0096,-4.0096,-4.0096,-4.0096,-4.0096,-4.0096,-4.0096,-4.0096,-4.0096,-4.0096,-4.0096,-4.0096,-4.0096,-4.0096,-4.0096,-4.0096,-4.0096,-4.0096,-4.0096,-4.0096,-4.0096,-4.0096,-4.0096,-4.0096,-4.0096,-4.0096,-4.0096,-4.0096,-4.0096,-4.0096,-4.0096,-4.0096,-3.9927,-3.9584,-3.9236,-3.8442,-3.7279,-3.7279,-3.6646,-3.5504,-3.5504,-3.5504,-3.5504,-3.5504,-3.5504,-3.5504,-3.5504,-3.5504,-3.5504,-3.5504,-3.531,-3.4996,-3.4638,-3.3858,-3.3066,-3.3066,-3.2617,-3.2049,-3.2049,-3.1795,-3.1511,-3.1511,-3.1511,-3.1511,-3.1511,-3.1796,-3.2104,-3.2104,-3.2394,-3.2555,-3.2188,-3.2104,-3.2007,-3.1582,-3.1511,-3.1511,-3.1511,-3.1853,-3.2366,-3.3082,-3.383,-3.4659,-3.5704,-3.619,-3.6706,-3.7433,-3.8493,-3.9421,-4.0054,-4.0096,-4.0096,-4.0096,-4.0096,-4.0096,-4.0096,-4.0096,-4.0096,-4.0096,-4.0096,-4.0096,-4.0096,-4.0096,-4.0096,-4.0096,-4.0096,-4.0096,-4.0096,-4.0096,-4.0096,-4.0096,-4.0096,-4.0096,-4.0096,-4.0096,-4.0096,-4.0096,-4.0096,-4.0096,-4.0096,-4.0096,-4.0096,-4.0096]},{"header":{"parameterUnit":"m.s-1","parameterCategory":1,"la1":30.6,"la2":28.766,"lo1":-90.7593,"lo2":-88.6598,"dx":0.0162,"dy":0.0183,"nx":116,"ny":114,"refTime":"2023-01-27T06:00:00:Z","depth":0,"parameterNumber":3,"parameterNumberName":"V-component_of_WINDS"},"data":[0.0,0.0,0.0,0.0,0.0,0.0,0.0,0.0,0.0,0.0,0.0,0.0,0.0,0.0,0.0,0.0,0.0,0.0,0.0,0.0,0.0,0.0,0.0,0.0,0.0,0.0,0.0,0.0,0.0,0.0,0.0,0.0,0.0,0.0,0.0,0.0,0.0,0.0,0.0,0.0,0.0,0.0,0.0,0.0,0.0,0.0,0.0,0.0,0.0,0.0,0.0,0.0,0.0,0.0,0.0,0.0,0.0,0.0,0.0,0.0,0.0,0.0,0.0,0.0,0.0,0.0,0.0,0.0,0.0,0.0,0.0,0.0,0.0,0.0,0.0,0.0,0.0,0.0,0.0,0.0,0.0,0.0,0.0,0.0,0.0,0.0,0.0,0.0,0.0,0.0,0.0,0.0,0.0,0.0,0.0,0.0,0.0,0.0,0.0,0.0,0.0,0.0,0.0,0.0,0.0,0.0,0.0,0.0,0.0,0.0,0.0,0.0,0.0,0.0,0.0,0.0,0.0,0.0,0.0,0.0,0.0,0.0,0.0,0.0,0.0,0.0,0.0,0.0,0.0,0.0,0.0,0.0,0.0,0.0,0.0,0.0,0.0,0.0,0.0,0.0,0.0,0.0,0.0,0.0,0.0,0.0,0.0,0.0,0.0,0.0,0.0,0.0,0.0,0.0,0.0,0.0,0.0,0.0,0.0,0.0,0.0,0.0,0.0,0.0,0.0,0.0,0.0,0.0,0.0,0.0,0.0,0.0,0.0,0.0,0.0,0.0,0.0,0.0,0.0,0.0,0.0,0.0,0.0,0.0,0.0,0.0,0.0,0.0,0.0,0.0,0.0,0.0,0.0,0.0,0.0,0.0,0.0,0.0,0.0,0.0,0.0,0.0,0.0,0.0,0.0,0.0,0.0,0.0,0.0,0.0,0.0,0.0,0.0,0.0,0.0,0.0,0.0,0.0,0.0,0.0,0.0,0.0,0.0,0.0,0.0,0.0,0.0,0.0,0.0,0.0,0.0,0.0,0.0,0.0,0.0,0.0,0.0,0.0,0.0,0.0,0.0,0.0,0.0,0.0,0.0,0.0,0.0,0.0,0.0,0.0,0.0,0.0,0.0,0.0,0.0,0.0,0.0,0.0,0.0,0.0,0.0,0.0,0.0,0.0,0.0,0.0,0.0,0.0,0.0,0.0,0.0,0.0,0.0,0.0,0.0,0.0,0.0,0.0,0.0,0.0,0.0,0.0,0.0,0.0,0.0,0.0,0.0,0.0,0.0,0.0,0.0,0.0,0.0,0.0,0.0,0.0,0.0,0.0,0.0,0.0,0.0,0.0,0.0,0.0,0.0,0.0,0.0,0.0,0.0,0.0,0.0,0.0,0.0,0.0,0.0,0.0,0.0,0.0,0.0,0.0,0.0,0.0,0.0,0.0,0.0,0.0,0.0,0.0,0.0,0.0,0.0,0.0,0.0,0.0,0.0,0.0,0.0,0.0,0.0,0.0,0.0,0.0,0.0,0.0,0.0,0.0,0.0,0.0,0.0,0.0,0.0,0.0,0.0,0.0,0.0,0.0,0.0,0.0,0.0,0.0,0.0,0.0,0.0,0.0,0.0,0.0,0.0,0.0,0.0,0.0,0.0,0.0,0.0,0.0,0.0,0.0,0.0,0.0,0.0,0.0,0.0,0.0,0.0,0.0,0.0,0.0,0.0,0.0,0.0,0.0,0.0,0.0,0.0,0.0,0.0,0.0,0.0,0.0,0.0,0.0,0.0,0.0,0.0,0.0,0.0,0.0,0.0,0.0,0.0,0.0,0.0,0.0,0.0,0.0,0.0,0.0,0.0,0.0,0.0,0.0,0.0,0.0,0.0,0.0,0.0,0.0,0.0,0.0,0.0,0.0,0.0,0.0,0.0,0.0,0.0,0.0,0.0,0.0,0.0,0.0,0.0,0.0,0.0,0.0,0.0,0.0,0.0,0.0,0.0,0.0,0.0,0.0,0.0,0.0,0.0,0.0,0.0,0.0,0.0,0.0,0.0,0.0,0.0,0.0,0.0,0.0,0.0,0.0,0.0,0.0,0.0,0.0,0.0,0.0,0.0,0.0,0.0,0.0,0.0,0.0,0.0,0.0,0.0,0.0,0.0,0.0,0.0,0.0,0.0,0.0,0.0,0.0,0.0,0.0,0.0,0.0,0.0,0.0,0.0,0.0,0.0,0.0,0.0,0.0,0.0,0.0,0.0,0.0,0.0,0.0,0.0,0.0,0.0,0.0,0.0,0.0,0.0,0.0,0.0,0.0,0.0,0.0,0.0,0.0,0.0,0.0,0.0,0.0,0.0,0.0,0.0,0.0,0.0,0.0,0.0,0.0,0.0,0.0,0.0,0.0,0.0,0.0,0.0,0.0,0.0,0.0,0.0,0.0,0.0,0.0,0.0,0.0,0.0,0.0,0.0,0.0,0.0,0.0,0.0,0.0,0.0,0.0,0.0,0.0,0.0,0.0,0.0,0.0,0.0,0.0,0.0,0.0,0.0,0.0,0.0,0.0,0.0,0.0,0.0,0.0,0.0,0.0,0.0,0.0,0.0,0.0,0.0,0.0,0.0,0.0,0.0,0.0,0.0,0.0,0.0,0.0,0.0,0.0,0.0,0.0,0.0,0.0,0.0,0.0,0.0,0.0,0.0,0.0,0.0,0.0,0.0,0.0,0.0,0.0,0.0,0.0,0.0,0.0,0.0,0.0,0.0,0.0,0.0,0.0,0.0,0.0,0.0,0.0,0.0,0.0,0.0,0.0,0.0,0.0,0.0,0.0,0.0,0.0,0.0,0.0,0.0,0.0,0.0,0.0,0.0,0.0,0.0,0.0,0.0,0.0,0.0,0.0,0.0,0.0,0.0,0.0,0.0,0.0,0.0,0.0,0.0,0.0,0.0,0.0,0.0,0.0,0.0,0.0,0.0,0.0,0.0,0.0,0.0,0.0,0.0,0.0,0.0,0.0,0.0,0.0,0.0,0.0,0.0,0.0,0.0,0.0,0.0,0.0,0.0,0.0,0.0,0.0,0.0,0.0,0.0,0.0,0.0,0.0,0.0,0.0,0.0,0.0,0.0,0.0,0.0,0.0,0.0,0.0,0.0,0.0,0.0,0.0,0.0,0.0,0.0,0.0,0.0,0.0,0.0,0.0,0.0,0.0,0.0,0.0,0.0,0.0,0.0,0.0,0.0,0.0,0.0,0.0,0.0,0.0,0.0,0.0,0.0,0.0,0.0,0.0,0.0,0.0,0.0,0.0,0.0,0.0,0.0,0.0,0.0,0.0,0.0,0.0,0.0,0.0,0.0,0.0,0.0,0.0,0.0,0.0,0.0,0.0,0.0,0.0,0.0,0.0,0.0,0.0,0.0,0.0,0.0,0.0,0.0,0.0,0.0,0.0,0.0,0.0,0.0,0.0,0.0,0.0,0.0,0.0,0.0,0.0,0.0,0.0,0.0,0.0,0.0,0.0,0.0,0.0,0.0,0.0,0.0,0.0,0.0,0.0,0.0,0.0,0.0,0.0,0.0,0.0,0.0,0.0,0.0,0.0,0.0,0.0,0.0,0.0,0.0,0.0,0.0,0.0,0.0,0.0,0.0,0.0,0.0,0.0,0.0,0.0,0.0,0.0,0.0,0.0,0.0,0.0,0.0,0.0,0.0,0.0,0.0,0.0,0.0,0.0,0.0,0.0,0.0,0.0,0.0,0.0,0.0,0.0,0.0,0.0,0.0,0.0,0.0,0.0,0.0,0.0,0.0,0.0,0.0,0.0,0.0,0.0,0.0,0.0,0.0,0.0,0.0,0.0,0.0,0.0,0.0,0.0,0.0,0.0,0.0,0.0,0.0,0.0,0.0,0.0,0.0,0.0,0.0,0.0,0.0,0.0,0.0,0.0,0.0,0.0,0.0,0.0,0.0,0.0,0.0,0.0,0.0,0.0,0.0,0.0,0.0,0.0,0.0,0.0,0.0,0.0,0.0,0.0,0.0,0.0,0.0,0.0,0.0,0.0,0.0,0.0,0.0,0.0,0.0,0.0,0.0,0.0,0.0,0.0,0.0,0.0,0.0,0.0,0.0,0.0,0.0,0.0,0.0,0.0,0.0,0.0,0.0,0.0,0.0,0.0,0.0,0.0,0.0,0.0,0.0,0.0,0.0,0.0,0.0,0.0,0.0,0.0,0.0,0.0,0.0,0.0,0.0,0.0,0.0,0.0,0.0,0.0,0.0,0.0,0.0,0.0,0.0,0.0,0.0,0.0,0.0,0.0,0.0,0.0,0.0,0.0,0.0,0.0,0.0,0.0,0.0,0.0,0.0,0.0,0.0,0.0,0.0,0.0,0.0,0.0,0.0,0.0,0.0,0.0,0.0,0.0,0.0,0.0,0.0,0.0,0.0,0.0,0.0,0.0,0.0,0.0,0.0,0.0,0.0,0.0,0.0,0.0,0.0,0.0,0.0,0.0,0.0,0.0,0.0,0.0,0.0,0.0,0.0,0.0,0.0,0.0,0.0,0.0,0.0,0.0,0.0,0.0,0.0,0.0,0.0,0.0,0.0,0.0,0.0,0.0,0.0,0.0,0.0,0.0,0.0,0.0,0.0,0.0,0.0,0.0,0.0,0.0,0.0,0.0,0.0,0.0,0.0,0.0,0.0,0.0,0.0,0.0,0.0,0.0,0.0,0.0,0.0,0.0,0.0,0.0,0.0,0.0,0.0,0.0,0.0,0.0,0.0,0.0,0.0,0.0,0.0,0.0,0.0,0.0,0.0,0.0,0.0,0.0,0.0,0.0,0.0,0.0,0.0,0.0,0.0,0.0,0.0,0.0,0.0,0.0,0.0,0.0,0.0,0.0,0.0,0.0,0.0,0.0,0.0,0.0,0.0,0.0,0.0,0.0,0.0,0.0,0.0,0.0,0.0,0.0,0.0,0.0,0.0,0.0,0.0,0.0,0.0,0.0,0.0,0.0,0.0,0.0,0.0,0.0,0.0,0.0,0.0,0.0,0.0,0.0,0.0,0.0,0.0,0.0,0.0,0.0,0.0,0.0,0.0,0.0,0.0,0.0,0.0,0.0,0.0,0.0,0.0,0.0,0.0,0.0,0.0,0.0,0.0,0.0,0.0,0.0,0.0,0.0,0.0,0.0,0.0,0.0,0.0,0.0,0.0,0.0,0.0,0.0,0.0,0.0,0.0,0.0,0.0,0.0,0.0,0.0,0.0,0.0,0.0,0.0,0.0,0.0,0.0,0.0,0.0,0.0,0.0,0.0,0.0,0.0,0.0,0.0,0.0,0.0,0.0,0.0,0.0,0.0,0.0,0.0,0.0,0.0,0.0,0.0,0.0,0.0,0.0,0.0,0.0,0.0,0.0,0.0,0.0,0.0,0.0,0.0,0.0,0.0,0.0,0.0,0.0,0.0,0.0,0.0,0.0,0.0,0.0,0.0,0.0,0.0,0.0,0.0,0.0,0.0,0.0,0.0,0.0,0.0,0.0,0.0,0.0,0.0,0.0,0.0,0.0,0.0,0.0,0.0,0.0,0.0,0.0,0.0,0.0,0.0,0.0,0.0,0.0,0.0,0.0,0.0,0.0,0.0,0.0,0.0,0.0,0.0,0.0,0.0,0.0,0.0,0.0,0.0,0.0,0.0,0.0,0.0,0.0,0.0,0.0,0.0,0.0,0.0,0.0,0.0,0.0,0.0,0.0,0.0,0.0,0.0,0.0,0.0,0.0,0.0,0.0,0.0,0.0,0.0,0.0,0.0,0.0,0.0,0.0,0.0,0.0,0.0,0.0,0.0,0.0,0.0,0.0,0.0,0.0,0.0,0.0,0.0,0.0,0.0,0.0,0.0,0.0,0.0,0.0,0.0,0.0,0.0,0.0,0.0,0.0,0.0,0.0,0.0,0.0,0.0,0.0,0.0,0.0,0.0,0.0,0.0,0.0,0.0,0.0,0.0,0.0,0.0,0.0,0.0,0.0,0.0,0.0,0.0,0.0,0.0,0.0,0.0,0.0,0.0,0.0,0.0,0.0,0.0,0.0,0.0,0.0,0.0,0.0,0.0,0.0,0.0,3.2927,0.0,0.0,0.0,0.0,0.0,0.0,0.0,0.0,0.0,0.0,0.0,0.0,0.0,0.0,0.0,0.0,0.0,0.0,0.0,0.0,0.0,0.0,0.0,0.0,0.0,0.0,0.0,0.0,0.0,0.0,0.0,0.0,0.0,0.0,0.0,0.0,0.0,0.0,0.0,0.0,0.0,0.0,0.0,0.0,0.0,0.0,0.0,0.0,0.0,0.0,0.0,0.0,0.0,0.0,0.0,0.0,0.0,0.0,0.0,0.0,0.0,0.0,0.0,0.0,0.0,0.0,0.0,0.0,0.0,0.0,0.0,0.0,0.0,0.0,0.0,0.0,0.0,0.0,0.0,0.0,0.0,0.0,0.0,0.0,0.0,0.0,0.0,0.0,0.0,0.0,0.0,0.0,0.0,0.0,0.0,0.0,0.0,0.0,0.0,0.0,0.0,0.0,0.0,0.0,0.0,0.0,0.0,0.0,0.0,0.0,0.0,0.0,0.0,0.0,0.0,0.0,3.3913,0.0,0.0,0.0,0.0,0.0,0.0,0.0,0.0,0.0,0.0,0.0,0.0,0.0,0.0,0.0,0.0,0.0,0.0,0.0,0.0,0.0,0.0,0.0,0.0,0.0,0.0,0.0,0.0,0.0,0.0,0.0,0.0,0.0,0.0,0.0,0.0,0.0,0.0,0.0,0.0,0.0,0.0,0.0,0.0,0.0,0.0,0.0,0.0,0.0,0.0,0.0,0.0,0.0,0.0,0.0,0.0,0.0,0.0,0.0,0.0,0.0,0.0,0.0,0.0,0.0,0.0,0.0,0.0,0.0,0.0,0.0,0.0,0.0,0.0,0.0,0.0,0.0,0.0,0.0,0.0,0.0,0.0,0.0,0.0,0.0,0.0,0.0,0.0,0.0,0.0,0.0,0.0,0.0,0.0,0.0,0.0,0.0,0.0,0.0,0.0,0.0,0.0,0.0,0.0,0.0,0.0,0.0,0.0,3.3887,3.3937,3.3978,3.4503,3.4759,3.4759,3.4759,3.5075,3.5515,3.4399,0.0,0.0,0.0,0.0,0.0,0.0,0.0,0.0,0.0,0.0,0.0,0.0,0.0,0.0,0.0,0.0,0.0,0.0,0.0,0.0,0.0,0.0,0.0,0.0,0.0,0.0,0.0,0.0,0.0,0.0,0.0,0.0,0.0,0.0,0.0,0.0,0.0,0.0,3.2281,3.2212,3.216,3.2091,3.024,0.0,0.0,0.0,0.0,0.0,0.0,0.0,0.0,0.0,0.0,0.0,0.0,0.0,0.0,0.0,0.0,0.0,0.0,0.0,0.0,0.0,0.0,0.0,0.0,0.0,0.0,0.0,0.0,0.0,0.0,0.0,0.0,0.0,0.0,0.0,0.0,0.0,0.0,0.0,0.0,0.0,0.0,0.0,3.3358,3.3453,0.0,0.0,0.0,0.0,0.0,0.0,0.0,0.0,0.0,0.0,0.0,0.0,0.0,3.4063,3.3479,3.4137,3.4455,3.4479,3.5052,3.5339,3.5339,3.5424,3.547,3.547,3.547,0.0,3.56,3.5424,0.0,0.0,0.0,0.0,0.0,0.0,0.0,0.0,0.0,0.0,0.0,0.0,0.0,0.0,0.0,0.0,0.0,0.0,0.0,0.0,0.0,0.0,0.0,0.0,0.0,0.0,0.0,0.0,0.0,0.0,0.0,0.0,0.0,0.0,0.0,0.0,3.2141,3.2494,3.2501,3.2501,3.2501,3.2451,3.1035,3.023,2.9908,2.9908,0.0,0.0,0.0,0.0,0.0,0.0,0.0,0.0,0.0,0.0,0.0,0.0,0.0,0.0,0.0,0.0,0.0,0.0,0.0,0.0,0.0,0.0,0.0,0.0,0.0,0.0,0.0,0.0,0.0,0.0,0.0,0.0,0.0,0.0,0.0,0.0,0.0,0.0,0.0,3.2841,3.3039,3.3039,3.3633,3.4012,0.0,0.0,0.0,0.0,0.0,0.0,0.0,0.0,0.0,3.4728,3.464,3.464,3.4728,3.5028,3.5144,3.5184,3.547,3.56,3.56,3.56,3.56,3.56,3.56,3.56,3.56,3.56,3.5447,3.5144,0.0,0.0,0.0,0.0,3.4752,3.426,0.0,0.0,0.0,0.0,0.0,0.0,0.0,0.0,0.0,0.0,0.0,0.0,0.0,0.0,0.0,2.8732,0.0,0.0,0.0,0.0,0.0,0.0,0.0,0.0,0.0,0.0,0.0,3.2501,3.2968,3.3014,3.2681,3.2793,3.2713,3.2467,3.1823,3.122,3.0673,3.0563,3.0187,0.0,0.0,0.0,0.0,0.0,0.0,0.0,0.0,0.0,0.0,0.0,0.0,0.0,0.0,0.0,0.0,0.0,0.0,0.0,0.0,0.0,0.0,0.0,0.0,0.0,0.0,0.0,0.0,0.0,0.0,0.0,0.0,0.0,0.0,0.0,0.0,0.0,0.0,3.2788,3.2986,3.2641,3.3495,3.3853,0.0,0.0,0.0,0.0,0.0,0.0,3.5864,3.5445,3.5482,3.6174,3.5706,3.5682,3.6174,3.6174,3.6174,3.6174,3.6174,3.6174,3.6174,3.6174,3.6174,3.6174,3.6174,3.6174,3.6157,3.5752,3.5492,3.5339,3.5339,3.5247,3.5115,3.5276,3.5028,3.4688,0.0,0.0,0.0,0.0,0.0,0.0,0.0,0.0,0.0,0.0,0.0,0.0,0.0,0.0,2.9361,2.9361,2.9384,2.9406,0.0,0.0,0.0,0.0,0.0,0.0,0.0,0.0,0.0,3.2501,3.2968,3.3184,3.3184,3.3564,3.3284,3.2501,3.2451,3.2161,3.1697,3.1332,3.0818,3.0251,0.0,0.0,0.0,0.0,0.0,0.0,0.0,0.0,0.0,0.0,0.0,0.0,0.0,0.0,0.0,0.0,0.0,0.0,0.0,0.0,0.0,0.0,0.0,0.0,0.0,0.0,0.0,0.0,0.0,0.0,0.0,0.0,0.0,0.0,0.0,0.0,0.0,0.0,0.0,3.2734,3.4317,0.0,0.0,0.0,0.0,3.5538,3.5538,3.5898,3.6711,3.6721,3.7019,3.777,3.7739,3.7739,3.7763,3.7787,3.7787,3.7787,3.7787,3.7787,3.7787,3.7787,3.7787,3.7787,3.7787,3.7787,3.7686,3.6191,3.523,3.4664,3.4664,3.426,3.3786,3.4406,3.4624,3.4688,0.0,0.0,0.0,0.0,0.0,0.0,0.0,0.0,0.0,0.0,0.0,0.0,0.0,2.9607,2.9978,2.9978,3.0335,3.0576,3.0576,0.0,0.0,0.0,0.0,0.0,0.0,0.0,3.2631,3.2501,3.3225,3.3447,3.3199,3.3346,3.339,3.3299,3.2432,3.2109,3.2196,3.1487,3.1092,3.0878,3.0878,3.074,0.0,0.0,0.0,0.0,0.0,0.0,0.0,0.0,0.0,0.0,0.0,0.0,0.0,0.0,0.0,0.0,0.0,0.0,0.0,0.0,0.0,0.0,0.0,0.0,0.0,0.0,0.0,0.0,0.0,0.0,0.0,0.0,0.0,0.0,0.0,0.0,0.0,3.3287,3.4633,0.0,3.5324,3.5951,3.6569,3.7043,3.707,3.7212,3.7483,3.7499,3.7635,3.7889,3.7905,3.7905,3.7905,3.7905,3.7905,3.7905,3.7905,3.7905,3.7905,3.7905,3.7905,3.7905,3.7905,3.7905,3.7872,3.7313,3.6936,3.6712,3.6712,3.6575,3.6405,3.664,3.6712,3.6776,0.0,0.0,0.0,0.0,0.0,0.0,0.0,0.0,0.0,0.0,0.0,2.9019,2.9629,3.0251,3.0601,3.0601,3.0975,3.119,3.119,0.0,0.0,0.0,3.119,0.0,0.0,3.2416,3.2729,3.2729,3.3299,3.3536,3.339,3.339,3.348,3.3564,3.2679,3.2349,3.2451,3.1714,3.1312,3.119,3.119,3.119,3.1055,0.0,0.0,0.0,0.0,0.0,0.0,0.0,0.0,0.0,0.0,0.0,0.0,0.0,0.0,0.0,0.0,0.0,0.0,0.0,0.0,0.0,0.0,0.0,0.0,0.0,0.0,0.0,0.0,0.0,0.0,0.0,0.0,0.0,0.0,3.3365,3.3958,3.397,3.5181,3.6011,3.6075,3.6738,3.7364,3.7872,3.7905,3.8024,3.8261,3.8278,3.8396,3.8633,3.8633,3.8633,3.8633,3.8633,3.8633,3.8633,3.8633,3.8633,3.8633,3.8633,3.8633,3.8633,3.8633,3.8633,3.8633,3.8633,3.8633,3.8582,3.8091,3.7905,3.7905,3.7905,3.7905,3.7905,0.0,0.0,0.0,0.0,0.0,0.0,0.0,0.0,0.0,0.0,2.9042,2.9629,3.0251,3.0858,3.119,3.119,3.119,3.119,3.119,3.119,0.0,0.0,0.0,0.0,3.1789,3.186,3.2334,3.3235,3.3268,3.3495,3.388,3.3844,3.3629,3.325,3.3232,3.2952,3.2484,3.2021,3.1584,3.121,3.121,3.119,3.1055,0.0,0.0,0.0,0.0,0.0,0.0,0.0,0.0,0.0,0.0,0.0,0.0,0.0,0.0,0.0,0.0,0.0,0.0,0.0,0.0,0.0,0.0,0.0,0.0,0.0,0.0,0.0,0.0,0.0,0.0,0.0,0.0,0.0,3.2578,3.3767,3.4669,3.4774,3.6008,3.6848,3.6869,3.7517,3.7939,3.7973,3.7973,3.8278,3.8988,3.9022,3.9343,4.0079,4.0096,4.0096,4.0096,4.0096,4.0096,4.0096,4.0096,4.0096,4.0096,4.0096,4.0096,4.0096,4.0096,4.0096,4.0096,4.0096,4.0096,3.996,3.8531,3.7973,3.7973,3.7973,3.7973,3.7973,0.0,0.0,0.0,0.0,0.0,0.0,0.0,0.0,0.0,0.0,2.9293,2.9783,3.0838,3.1095,3.119,3.119,3.119,3.119,3.119,0.0,0.0,0.0,0.0,0.0,3.1807,3.3049,3.3813,3.4065,3.5001,3.5487,3.5605,3.4968,3.46,3.4465,3.3604,3.3139,3.295,3.2144,3.1734,3.1621,3.1329,3.119,3.1131,0.0,0.0,0.0,0.0,0.0,0.0,0.0,0.0,0.0,0.0,0.0,0.0,0.0,0.0,0.0,0.0,0.0,0.0,0.0,0.0,0.0,0.0,0.0,0.0,0.0,0.0,0.0,0.0,0.0,0.0,0.0,3.3493,3.3887,3.4075,3.4428,3.5261,3.6829,3.7352,3.78,3.8345,3.8569,3.892,3.9445,3.9503,3.9588,3.9791,3.9808,3.9893,4.0096,4.0096,4.0096,4.0096,4.0096,4.0096,4.0096,4.0096,4.0096,4.0096,4.0096,4.0096,4.0096,4.0096,4.0096,4.0096,4.0096,4.0096,4.0062,3.9656,3.9503,3.9503,3.9503,3.9503,3.9503,0.0,0.0,0.0,0.0,0.0,0.0,0.0,0.0,0.0,0.0,2.9406,2.9848,3.1055,3.119,3.119,3.119,3.119,3.119,3.119,0.0,0.0,0.0,0.0,3.2328,3.2328,3.4027,3.4893,3.4893,3.5835,3.6303,3.6285,3.5789,3.5536,3.55,3.4426,3.3854,3.3622,3.2558,3.1969,3.1771,3.137,3.119,3.1131,3.0518,3.0293,3.0145,2.8927,2.8487,2.8415,2.781,0.0,0.0,0.0,0.0,0.0,0.0,0.0,0.0,0.0,0.0,0.0,0.0,0.0,0.0,0.0,0.0,0.0,0.0,0.0,0.0,0.0,0.0,0.0,0.0,3.3769,3.4401,3.4991,3.5625,3.6605,3.8164,3.8362,3.865,3.9402,3.9469,3.9656,4.0079,4.0096,4.0096,4.0096,4.0096,4.0096,4.0096,4.0096,4.0096,4.0096,4.0096,4.0096,4.0096,4.0096,4.0096,4.0096,4.0096,4.0096,4.0096,4.0096,4.0096,4.0096,4.0096,4.0096,0.0,0.0,0.0,0.0,0.0,4.0096,4.0096,0.0,0.0,0.0,0.0,0.0,0.0,0.0,0.0,0.0,0.0,0.0,2.9858,3.0975,3.1112,3.1131,3.119,3.119,3.119,0.0,0.0,0.0,3.1309,3.2536,3.3254,3.3292,3.4898,3.5772,3.582,3.6321,3.656,3.656,3.6468,3.6431,3.6376,3.5426,3.4787,3.4305,3.3035,3.223,3.1771,3.137,3.119,3.1151,3.0617,3.0356,3.0145,2.8996,2.8559,2.8415,2.781,0.0,0.0,0.0,0.0,0.0,0.0,0.0,0.0,0.0,0.0,0.0,0.0,0.0,0.0,0.0,0.0,0.0,0.0,0.0,0.0,0.0,0.0,0.0,0.0,3.3367,3.4243,3.5756,3.7147,3.8258,3.8923,3.9007,3.9286,4.0045,4.0096,4.0096,4.0096,4.0096,4.0096,4.0096,0.0,0.0,0.0,0.0,4.0096,4.0096,4.0096,4.0096,4.0096,4.0096,4.0096,4.0096,4.0096,4.0096,4.0096,4.0096,4.0096,4.0096,4.0096,4.0096,4.0096,4.0096,4.0096,4.0096,4.0096,4.0096,4.0096,0.0,0.0,0.0,0.0,0.0,0.0,0.0,0.0,0.0,2.9443,2.9488,2.9745,3.0401,3.0477,3.0679,3.1151,3.119,3.119,0.0,0.0,3.209,3.209,3.3309,3.4151,3.4447,3.5855,3.6751,3.7131,3.7869,3.8248,3.823,3.7584,3.7272,3.7199,3.5683,3.4787,3.4305,3.3035,3.223,3.1771,3.137,3.119,3.119,3.1055,3.072,3.0208,2.9473,2.8919,2.8415,2.781,2.76,2.769,2.8233,2.8412,0.0,0.0,0.0,0.0,0.0,0.0,0.0,0.0,0.0,0.0,0.0,0.0,0.0,0.0,0.0,0.0,0.0,0.0,0.0,3.4725,3.5121,3.5919,3.7978,3.8525,3.8748,3.8897,3.8914,3.9218,4.0028,4.0096,4.0096,4.0096,4.0096,4.0096,4.0096,4.0096,4.0096,4.0096,4.0096,4.0096,4.0096,4.0096,4.0096,4.0096,0.0,0.0,4.0096,4.0096,4.0096,4.0096,4.0096,4.0096,4.0096,4.0096,4.0096,4.0096,4.0096,4.0096,4.0096,4.0096,4.0096,4.0096,0.0,0.0,0.0,0.0,0.0,0.0,0.0,0.0,0.0,0.0,2.9726,2.972,3.0283,3.0315,3.0435,3.072,3.1035,0.0,0.0,3.231,3.2462,3.2831,3.4063,3.4938,3.5403,3.668,3.7602,3.8102,3.8505,3.8707,3.8689,3.8285,3.8102,3.8028,3.6376,3.5281,3.4554,3.3113,3.2109,3.147,3.1291,3.119,3.119,3.119,3.1015,3.0638,2.9717,2.9203,2.8826,2.7894,2.7824,2.8169,2.8487,2.8831,2.922,0.0,0.0,0.0,0.0,0.0,0.0,0.0,0.0,0.0,0.0,0.0,0.0,0.0,0.0,3.1961,3.1883,0.0,3.3848,3.4866,3.5323,3.5938,3.7053,3.7203,3.7774,3.9315,3.9489,3.9662,4.0045,4.0096,4.0096,4.0096,4.0096,4.0096,4.0096,4.0096,4.0096,4.0096,4.0096,4.0096,4.0096,4.0096,4.0096,4.0096,4.0096,4.0096,4.0096,4.0096,4.0096,4.0096,4.0096,4.0096,4.0096,4.0096,4.0096,4.0096,4.0096,4.0096,4.0096,4.0096,4.0096,4.0096,0.0,0.0,0.0,0.0,0.0,0.0,0.0,0.0,0.0,0.0,3.0033,2.9884,3.0363,3.0258,3.0234,0.0,0.0,0.0,3.3322,3.2966,3.3004,3.3592,3.4816,3.5682,3.6069,3.7184,3.8015,3.8546,3.8546,3.8611,3.8707,3.8707,3.8615,3.8395,3.6853,3.5602,3.4569,3.3017,3.1914,3.119,3.119,3.119,3.119,3.1055,3.0938,3.072,2.9739,2.9248,2.8919,2.8071,2.8143,2.8637,2.8891,2.934,2.9906,3.0507,3.0702,0.0,0.0,0.0,0.0,0.0,0.0,0.0,0.0,3.1029,3.1322,3.0673,3.1574,3.2557,3.2677,3.3679,3.4548,3.4651,3.5145,3.5587,3.591,3.5941,3.6965,3.9756,3.985,3.9756,4.007,4.0096,4.0096,4.0096,4.0096,4.0096,4.0096,4.0096,4.0096,4.0096,4.0096,4.0096,4.0096,4.0096,4.0096,4.0096,4.0096,4.0096,4.0096,4.0096,4.0096,4.0096,4.0096,4.0096,4.0096,4.0096,4.0096,4.0096,4.0096,4.0096,4.0096,4.0096,4.0096,4.0096,0.0,0.0,0.0,0.0,0.0,0.0,0.0,0.0,0.0,0.0,0.0,0.0,0.0,0.0,0.0,0.0,0.0,0.0,3.3389,3.3931,3.4286,3.437,3.5607,3.6315,3.6339,3.6965,3.7506,3.798,3.798,3.8232,3.8707,3.8707,3.8322,3.7588,3.6266,3.4988,3.3738,3.2441,3.1621,3.119,3.119,3.119,3.1151,3.0601,3.0081,2.9585,2.9451,2.8717,2.7876,2.8329,2.8532,2.8801,2.9939,3.0342,3.0537,3.1182,3.1391,3.1377,3.1365,3.138,3.138,3.138,3.1438,3.1467,0.0,3.1438,3.1467,3.138,3.196,3.2691,3.3275,3.3978,3.4681,3.5295,3.5459,3.5973,3.7354,3.7531,3.8177,3.9901,3.8887,3.8613,3.9969,4.0096,4.0096,4.0096,4.0096,4.0096,4.0096,4.0096,4.0096,4.0096,4.0096,4.0096,4.0096,4.0096,4.0096,4.0096,4.0096,4.0096,4.0096,4.0096,4.0096,4.0096,4.0096,4.0096,4.0096,4.0096,4.0096,4.0096,4.0096,4.0096,4.0096,4.0096,4.0096,4.0096,0.0,0.0,0.0,0.0,0.0,0.0,0.0,0.0,0.0,0.0,0.0,0.0,0.0,0.0,0.0,0.0,0.0,3.2784,3.4028,3.4342,3.4692,3.5131,3.5657,3.6075,3.6395,3.6623,3.6981,3.7488,3.7755,3.778,3.7544,3.7866,3.7427,3.6355,3.5351,3.4308,3.3282,3.2228,3.1565,3.119,3.119,3.0995,3.0658,3.0393,2.9695,2.892,2.9328,2.9133,0.0,0.0,2.9415,2.9804,3.0328,3.0776,3.1137,3.1421,3.1511,3.1511,3.1511,3.1511,3.1511,3.1511,3.1511,3.1511,3.1511,3.1511,3.1615,3.1989,3.2632,3.329,3.3948,3.4622,3.5175,3.5459,3.5863,3.6368,3.701,3.7084,3.7658,3.9209,3.8458,3.8402,3.9952,4.0096,4.0096,4.0096,4.0096,4.0096,4.0096,4.0096,4.0096,4.0096,4.0096,4.0096,4.0096,4.0096,4.0096,4.0096,4.0096,4.0096,4.0096,4.0096,4.0096,4.0096,4.0096,4.0096,4.0096,4.0096,4.0096,4.0096,4.0096,4.0096,4.0096,4.0096,4.0096,4.0096,0.0,0.0,0.0,0.0,0.0,0.0,0.0,0.0,0.0,0.0,0.0,0.0,0.0,0.0,0.0,0.0,3.1665,3.2462,3.418,3.4251,3.4448,3.4974,3.4991,3.5171,3.5562,3.5583,3.5853,3.6384,3.6701,3.6647,3.6211,3.6592,3.6175,3.5058,3.4354,3.3562,3.2695,3.1956,3.1374,3.0938,3.0938,3.058,3.0021,2.9886,2.9248,2.858,2.9261,2.9385,0.0,0.0,3.0133,3.0537,3.0731,3.1107,3.1511,3.1511,3.1511,3.1511,3.1511,3.1511,3.1511,3.1511,3.1511,3.1511,3.1511,3.1511,3.169,3.2348,3.3036,3.3694,3.4384,3.504,3.5504,3.5504,3.5943,3.6368,3.6584,3.6783,3.7424,3.8728,3.8608,3.8887,3.9995,4.0096,4.0096,4.0096,4.0096,4.0096,4.0096,4.0096,4.0096,4.0096,4.0096,4.0096,4.0096,4.0096,4.0096,4.0096,4.0096,4.0096,4.0096,4.0096,4.0096,4.007,3.9876,3.9782,3.9782,3.9782,3.9782,3.9782,4.002,4.0096,4.0096,4.0096,4.0096,4.0096,0.0,0.0,0.0,0.0,0.0,0.0,0.0,0.0,0.0,0.0,0.0,0.0,0.0,0.0,0.0,3.1585,3.2209,3.2854,3.3484,3.3538,3.3516,3.3465,3.3474,3.3474,3.3495,3.3495,3.3751,3.4291,3.431,3.4525,3.4959,3.4977,3.4551,3.3737,3.3316,3.2644,3.1805,3.1389,3.0878,3.033,3.033,2.9973,2.9361,2.8779,2.8535,2.858,2.9261,0.0,0.0,0.0,3.0492,3.0612,3.1256,3.1481,3.1511,3.1511,3.1511,3.1511,3.1511,3.1511,3.1511,3.1511,3.1511,3.1511,3.1511,3.1511,3.169,3.2348,3.3036,3.3694,3.4384,3.504,3.5504,3.5504,3.5537,3.5782,3.6492,3.7263,3.8064,3.8799,3.9584,4.0045,4.0113,4.0096,4.0096,4.0096,4.0096,4.0096,4.0096,4.0096,4.0096,4.0096,4.0096,4.0096,4.0096,4.0096,4.0096,4.0096,4.0096,4.0096,4.0096,4.0096,4.0096,4.0045,3.9289,3.8935,3.8935,3.8935,3.8935,3.9016,3.9808,4.0096,4.0096,4.0096,4.0096,4.0096,0.0,0.0,0.0,0.0,0.0,0.0,0.0,0.0,0.0,0.0,0.0,0.0,0.0,0.0,0.0,0.0,2.972,3.0346,3.1441,3.2337,3.302,3.3449,3.3429,3.3406,3.3406,3.3406,3.3473,3.3663,3.4027,3.402,3.3647,3.397,3.3494,3.2423,3.2297,3.1936,3.1372,3.0825,3.0477,3.0272,2.9848,2.9339,2.8779,2.8583,2.7938,2.7384,0.0,0.0,0.0,0.0,3.1152,3.1197,3.1436,3.1511,3.1511,3.1511,3.1511,3.1511,3.1511,3.1511,3.1511,3.1511,3.1511,3.1511,3.1511,3.1511,3.1809,3.2946,3.3335,3.3844,3.4951,3.5355,3.5504,3.5504,3.5926,3.6306,3.6584,3.7308,3.8064,3.8799,3.9139,3.9516,4.0045,4.0096,4.0096,4.0096,4.0096,4.0096,4.0096,4.0096,4.0096,4.0096,4.0096,3.9833,3.9315,3.9315,3.9076,3.8569,3.8569,3.8569,3.8569,3.8569,3.8569,3.8557,3.829,3.8177,3.8177,3.8177,3.8177,3.8206,3.8458,3.8569,3.8569,3.8569,3.8569,3.8723,0.0,0.0,0.0,0.0,0.0,0.0,0.0,0.0,0.0,0.0,0.0,0.0,0.0,0.0,0.0,0.0,0.0,2.8221,2.9292,3.0398,3.1229,3.1611,3.1846,3.1955,3.1955,3.2164,3.2286,3.2286,3.2844,3.2859,3.2359,3.2662,3.2257,3.1268,3.1268,3.0993,3.0518,3.0145,2.9848,2.9629,2.9225,2.8709,2.8165,2.7904,2.7261,0.0,0.0,0.0,0.0,0.0,3.1307,3.1117,3.1409,3.1307,3.1117,3.1409,3.1307,3.1117,3.1409,3.1278,3.1058,3.1058,3.1058,3.1058,3.1058,3.1278,3.1869,3.3215,3.3499,3.3903,3.525,3.5504,3.5504,3.5504,3.5894,3.6196,3.6196,3.6859,3.7645,3.8414,3.8745,3.9113,3.961,3.9662,3.9782,4.007,4.0096,4.0096,4.0096,3.985,3.9662,3.9662,3.9428,3.9022,3.8497,3.8497,3.829,3.7793,3.7793,3.7793,3.7793,3.7793,3.7793,3.7777,3.7485,3.7368,3.7368,3.7368,3.7368,3.7397,3.769,3.7793,3.7793,3.7793,3.7793,3.7921,0.0,0.0,0.0,0.0,0.0,0.0,0.0,0.0,0.0,0.0,0.0,0.0,0.0,0.0,0.0,0.0,0.0,0.0,2.7135,2.7889,2.8293,2.8252,2.8933,2.93,2.93,2.9854,3.0171,3.0192,3.0781,3.1075,3.1112,3.1112,3.0801,3.0251,3.0251,2.9951,2.9406,2.9361,2.8996,2.8439,2.8415,2.8027,2.7408,2.6721,0.0,0.0,0.0,0.0,2.7539,3.0426,3.0911,3.0419,3.1248,3.097,3.0524,3.1278,3.0925,3.0464,3.1219,3.0837,3.0238,3.0299,3.0299,3.0299,3.0359,3.0925,3.184,3.323,3.3454,3.3872,3.525,3.5504,3.5504,3.5504,3.5504,3.5504,3.5504,3.6134,3.6873,3.7661,3.8386,3.8854,3.8854,3.8854,3.9166,3.9927,3.9978,3.9978,3.9978,3.9262,3.8854,3.8854,3.8161,3.7793,3.7719,3.7706,3.7677,3.7677,3.7677,3.7677,3.7677,3.7677,3.7677,3.7648,3.6889,3.6554,3.6554,3.6554,3.6554,3.6615,3.7368,3.7677,3.7677,3.7677,3.7677,3.7677,0.0,0.0,0.0,0.0,0.0,0.0,0.0,0.0,0.0,0.0,0.0,0.0,0.0,0.0,0.0,0.0,0.0,0.0,2.5708,2.6421,2.7053,2.753,2.7705,0.0,0.0,0.0,0.0,2.8816,2.8976,2.9317,2.9848,2.9848,2.9783,2.9629,2.9629,2.954,2.9361,2.8919,2.8306,2.764,0.0,2.6587,2.5946,0.0,0.0,0.0,0.0,0.0,2.6137,2.8926,3.0073,3.0419,3.1248,3.1351,3.1219,3.1438,3.0925,3.0329,3.0554,2.9981,2.9473,3.0133,3.0299,3.045,3.1058,3.0896,3.1173,3.3093,3.2991,3.3152,3.5121,3.5504,3.5504,3.5504,3.5504,3.5504,3.5504,3.6134,3.6676,3.6873,3.7587,3.8092,3.8092,3.8092,3.8177,3.8374,3.8374,3.8374,3.8374,3.8206,3.8092,3.8092,3.7892,3.7515,3.6904,3.6352,3.6085,3.6085,3.6085,3.6085,3.6085,3.6085,3.6085,3.6085,3.5878,3.5782,3.5782,3.5782,3.5782,3.5814,3.6005,3.6085,3.6085,3.6085,3.6085,3.6085,0.0,0.0,0.0,0.0,0.0,0.0,0.0,0.0,0.0,0.0,0.0,0.0,0.0,0.0,0.0,0.0,0.0,0.0,0.0,2.5003,2.5578,2.5981,2.6256,0.0,0.0,0.0,0.0,0.0,0.0,0.0,2.8902,2.86,2.8474,2.8513,2.8189,2.7899,2.7634,2.7278,0.0,0.0,0.0,0.0,0.0,0.0,0.0,0.0,0.0,2.5354,2.5435,2.7267,2.9023,3.0338,3.0044,3.0172,3.0389,3.0389,2.9827,2.9254,2.9628,2.9097,2.8556,2.9034,2.916,2.9286,2.9721,2.9797,3.0337,3.2493,3.2553,3.2882,3.5073,3.5504,3.5504,3.5504,3.5504,3.5504,3.5504,3.5863,3.6259,3.6554,3.6994,3.7263,3.7263,3.7263,3.713,3.6799,3.7413,3.7793,3.7793,3.7456,3.7263,3.7263,3.6981,3.6569,3.6117,3.5701,3.5504,3.5504,3.5504,3.5504,3.5504,3.5504,3.5504,3.5504,0.0,3.5504,3.5504,3.5504,3.5504,3.5504,3.5504,3.5504,3.5504,3.5504,3.5504,3.5504,0.0,0.0,0.0,0.0,0.0,0.0,0.0,0.0,0.0,0.0,0.0,0.0,0.0,0.0,0.0,0.0,0.0,0.0,0.0,0.0,0.0,0.0,2.4753,0.0,2.5091,2.5616,2.5937,0.0,0.0,0.0,0.0,0.0,0.0,0.0,0.0,0.0,0.0,0.0,0.0,0.0,0.0,0.0,0.0,0.0,0.0,0.0,2.4147,2.4505,2.508,2.5673,2.7668,2.9694,2.8442,2.8433,2.8892,2.8975,2.8363,2.7855,2.862,2.8214,2.7571,2.767,2.7703,2.7736,2.7855,2.8363,2.9448,3.1607,3.2051,3.2709,3.4969,3.5444,3.5504,3.5504,3.5504,3.5504,3.5504,3.5504,3.5718,3.6384,3.6446,3.6446,3.6446,3.6446,3.6196,3.5569,3.6753,3.7501,3.7501,3.6828,3.6446,3.6446,3.5831,3.5504,3.5504,3.5504,3.5504,3.5504,3.5504,3.5504,3.5504,3.5504,3.5504,3.5504,3.5504,0.0,3.5504,3.5504,3.5504,3.5504,3.5504,3.5504,3.5504,3.5504,3.5504,3.5504,0.0,0.0,0.0,0.0,0.0,0.0,0.0,0.0,0.0,0.0,0.0,0.0,0.0,0.0,0.0,0.0,0.0,0.0,0.0,0.0,0.0,0.0,0.0,0.0,2.3501,2.3594,2.3979,2.4641,2.4755,0.0,0.0,0.0,0.0,0.0,0.0,0.0,0.0,0.0,0.0,0.0,0.0,0.0,0.0,0.0,0.0,0.0,2.3305,2.3802,2.4464,2.4585,2.5611,2.7019,2.7878,2.8235,2.8415,2.885,2.8363,2.7736,2.7887,2.7317,2.6871,2.755,2.7703,2.7887,2.862,2.833,2.8584,3.088,3.1304,3.1933,3.4233,3.5115,3.5504,3.5504,3.5504,3.5504,3.5504,3.5504,3.5569,3.5668,3.5701,3.5701,3.5701,3.5701,3.5651,3.5504,3.5733,3.591,3.591,3.5765,3.5701,3.5701,3.5569,3.5504,3.5504,3.5504,3.5504,3.5504,3.5504,3.5504,3.5504,3.5504,3.5504,3.5504,3.5504,0.0,3.5504,3.5504,3.5504,3.5504,3.5504,3.5504,3.5504,3.5504,3.5504,3.5504,0.0,0.0,0.0,0.0,0.0,0.0,0.0,0.0,0.0,0.0,0.0,0.0,0.0,0.0,0.0,0.0,0.0,0.0,0.0,0.0,0.0,0.0,0.0,0.0,0.0,2.2476,2.2871,2.3679,0.0,2.3669,2.4823,2.4381,2.4439,2.4823,2.4381,2.4208,0.0,0.0,0.0,0.0,0.0,0.0,0.0,0.0,0.0,0.0,0.0,2.3335,2.3679,2.3679,2.4069,2.4793,2.6136,2.7029,2.7476,2.7279,2.717,2.7061,2.7061,2.6782,2.6589,2.6973,2.7061,2.7196,2.7604,2.7384,2.7728,3.0085,3.0797,3.1726,3.407,3.504,3.5504,3.5504,3.5504,3.5504,3.5504,3.5504,3.5504,3.5504,3.5504,3.5504,3.5504,3.5504,3.5504,3.5504,3.5504,3.5504,3.5504,3.5504,3.5504,3.5504,3.5504,3.5504,3.5504,3.5504,3.5504,3.5504,3.5504,3.5504,3.5504,3.5504,3.5213,3.4725,3.4725,0.0,3.3973,3.3973,3.3973,3.4056,3.4509,3.4725,3.4725,3.4725,3.5052,3.5439,0.0,0.0,0.0,0.0,0.0,0.0,0.0,0.0,0.0,0.0,0.0,0.0,0.0,0.0,0.0,0.0,0.0,0.0,0.0,0.0,0.0,0.0,0.0,0.0,0.0,0.0,0.0,2.2567,2.1939,0.0,0.0,0.0,0.0,0.0,2.2919,2.2659,2.2854,0.0,0.0,0.0,0.0,2.2445,0.0,0.0,0.0,0.0,0.0,2.3108,2.3108,2.3108,2.3108,2.3291,2.4356,2.5401,2.618,2.5722,2.5946,2.6336,2.6461,2.6499,2.6499,2.6499,2.6499,2.6499,2.6499,2.6499,2.7067,2.9089,3.019,3.1429,3.3625,3.472,3.5325,3.5489,3.5504,3.5504,3.5504,3.5504,3.5504,3.5504,3.5504,3.5504,3.5504,3.5504,3.5504,3.5504,3.5504,3.5504,3.5504,3.5504,3.5504,3.5504,3.5504,3.5504,3.5504,3.5279,3.518,3.518,3.4953,3.4887,3.4887,3.4887,3.4442,3.3705,3.3705,0.0,0.0,3.2593,3.2593,3.2664,3.3415,3.3705,3.3705,3.3705,3.4211,3.4773,0.0,0.0,0.0,0.0,0.0,0.0,0.0,0.0,0.0,0.0,0.0,0.0,0.0,0.0,0.0,0.0,0.0,0.0,0.0,0.0,0.0,0.0,0.0,0.0,0.0,0.0,0.0,2.0846,2.0751,0.0,0.0,0.0,0.0,0.0,0.0,2.1259,2.2002,2.2002,0.0,0.0,0.0,0.0,0.0,0.0,0.0,0.0,0.0,2.3108,2.3108,2.3108,2.3108,2.3108,2.3248,2.3732,2.4425,2.5343,2.5636,2.5787,2.6348,2.6499,2.6499,2.6499,2.6499,2.6499,2.6499,2.6499,2.676,2.7716,2.9081,3.0569,3.2112,3.361,3.4771,3.54,3.5504,3.5504,3.5504,3.5504,3.5504,3.5504,3.5504,3.5504,3.5504,3.5504,3.5504,3.5504,3.5504,3.5504,3.5504,3.5504,3.5504,3.5504,3.5504,3.5504,3.5504,3.4576,3.4129,3.4129,3.3276,3.2855,3.2855,3.2855,3.282,3.2749,3.2749,0.0,0.0,3.2593,3.2593,3.2593,3.2713,3.2749,3.2749,3.2749,3.2784,3.2855,0.0,0.0,0.0,0.0,0.0,0.0,0.0,0.0,0.0,0.0,0.0,0.0,0.0,0.0,0.0,0.0,0.0,0.0,0.0,0.0,0.0,0.0,0.0,0.0,0.0,0.0,2.0074,2.059,2.0074,0.0,0.0,0.0,0.0,0.0,0.0,2.0782,2.1101,2.1101,0.0,0.0,0.0,0.0,0.0,0.0,0.0,0.0,0.0,0.0,2.3108,2.3108,2.3108,2.3108,2.3108,2.3258,2.3597,2.4406,2.487,2.5247,2.5799,2.5971,2.6059,2.6411,2.6499,2.6499,2.6499,2.6499,2.6714,2.755,2.8519,2.9706,3.1303,3.2768,3.3974,3.4767,3.5235,3.5504,3.5504,3.5504,3.5504,3.5504,3.5504,3.5504,3.5504,3.5504,3.5504,3.5504,3.4953,3.461,3.461,3.461,3.461,3.461,3.4041,3.3754,3.3754,3.3359,3.3171,3.3136,3.2784,3.2593,3.2593,3.2593,3.2285,3.1742,3.1742,0.0,0.0,3.0921,3.0921,3.0959,3.1536,3.1742,3.1742,3.1742,3.2105,3.2522,0.0,0.0,0.0,0.0,0.0,0.0,0.0,0.0,0.0,0.0,0.0,0.0,0.0,0.0,0.0,0.0,0.0,0.0,0.0,0.0,0.0,0.0,0.0,0.0,0.0,0.0,0.0,0.0,1.921,1.9243,0.0,0.0,1.9977,2.0204,0.0,0.0,0.0,0.0,0.0,0.0,0.0,0.0,0.0,0.0,0.0,0.0,0.0,0.0,0.0,0.0,0.0,2.3078,2.2823,2.2914,2.3221,2.3828,2.4268,2.4695,2.5222,2.5473,2.5686,2.6135,2.6361,2.6499,2.6499,2.6499,2.6658,2.7229,2.7898,2.8839,3.0201,3.164,3.2879,3.3704,3.4614,3.519,3.519,3.537,3.5504,3.5504,3.5504,3.5504,3.5504,3.5504,3.5359,3.51,3.4394,3.3876,3.3602,3.331,3.331,3.3602,3.2961,3.2593,3.2593,3.2321,3.2177,3.2177,3.1901,3.1756,3.1756,3.1756,3.1402,3.0796,3.0796,0.0,0.0,2.9792,2.9792,2.9869,3.052,3.0796,3.0796,3.0796,3.1193,3.1696,0.0,0.0,0.0,0.0,0.0,0.0,0.0,0.0,0.0,0.0,0.0,0.0,0.0,0.0,0.0,0.0,0.0,0.0,0.0,0.0,0.0,0.0,0.0,0.0,0.0,0.0,0.0,0.0,0.0,0.0,1.8042,1.8042,1.8496,1.9276,0.0,0.0,0.0,0.0,0.0,0.0,0.0,0.0,0.0,0.0,0.0,0.0,0.0,0.0,0.0,0.0,0.0,0.0,0.0,2.2445,2.3221,2.3828,2.4004,2.413,2.465,2.5209,2.5598,2.5598,2.6072,2.6499,2.6499,2.6499,2.6499,2.6499,2.7129,2.7921,2.859,3.0081,3.1454,3.2118,3.3505,3.4518,3.4518,3.507,3.5504,3.5504,3.5504,3.5504,3.5504,3.5504,3.51,3.4095,3.4027,3.3602,3.2664,3.1742,3.1633,3.2593,3.2593,3.2593,3.2593,3.1669,3.1217,3.1217,3.0279,2.983,2.983,2.983,2.983,2.983,2.983,0.0,0.0,2.9792,2.9792,2.9792,2.9792,2.983,2.983,2.983,2.983,2.983,0.0,0.0,0.0,0.0,0.0,0.0,0.0,0.0,0.0,0.0,0.0,0.0,0.0,0.0,0.0,0.0,0.0,0.0,0.0,0.0,0.0,0.0,0.0,0.0,0.0,0.0,0.0,0.0,0.0,0.0,0.0,0.0,0.0,1.8395,1.81,1.8134,0.0,0.0,0.0,0.0,0.0,0.0,0.0,0.0,0.0,0.0,0.0,0.0,0.0,0.0,0.0,0.0,0.0,0.0,0.0,2.3321,2.3384,2.3496,2.4104,2.4381,2.4594,2.4971,2.5473,2.5875,2.5875,2.621,2.6499,2.6499,2.6679,2.7126,2.7874,2.8838,2.9759,3.0587,3.1961,3.2748,3.2201,3.3272,3.3925,3.3308,3.3784,3.4072,3.3886,3.3849,3.3629,3.3073,3.2464,3.196,3.1669,3.0771,3.0658,3.1609,3.102,3.0671,3.0671,3.0394,3.0241,3.0241,2.9934,2.9792,2.9792,2.9792,2.9792,2.9792,0.0,0.0,0.0,2.9792,2.9792,2.9792,2.9792,2.9792,2.9792,2.9792,2.9792,2.9792,0.0,0.0,0.0,0.0,0.0,0.0,0.0,0.0,0.0,0.0,0.0,0.0,0.0,0.0,0.0,0.0,0.0,0.0,0.0,0.0,0.0,0.0,0.0,0.0,0.0,0.0,0.0,0.0,0.0,0.0,0.0,0.0,0.0,0.0,0.0,0.0,0.0,0.0,0.0,0.0,0.0,0.0,1.9266,0.0,0.0,0.0,0.0,0.0,0.0,0.0,0.0,0.0,0.0,0.0,0.0,0.0,2.3108,2.3183,2.3547,2.3841,2.4079,2.4418,2.4908,2.536,2.5548,2.5908,2.6235,2.6449,2.6499,2.6658,2.7162,2.7839,2.8499,2.9048,3.0392,3.1286,3.111,3.2188,3.2914,3.271,3.2882,3.2949,3.2796,3.2663,3.2372,3.1787,3.1416,3.1044,3.0696,3.0101,3.0075,3.0658,3.0101,2.9792,2.9792,2.9792,2.9792,2.9792,2.9792,2.9792,2.9792,2.9792,2.9792,2.9792,0.0,0.0,0.0,2.9792,2.9792,2.9792,2.9792,2.9792,2.9792,2.9792,2.9792,2.9792,0.0,0.0,0.0,0.0,0.0,0.0,0.0,0.0,0.0,0.0,0.0,0.0,0.0,0.0,0.0,0.0,0.0,0.0,0.0,0.0,0.0,0.0,0.0,0.0,0.0,0.0,0.0,0.0,0.0,0.0,0.0,0.0,0.0,0.0,0.0,0.0,0.0,0.0,0.0,0.0,0.0,0.0,0.0,0.0,0.0,0.0,0.0,0.0,0.0,0.0,0.0,0.0,0.0,0.0,0.0,0.0,0.0,0.0,0.0,2.3496,2.3941,2.3941,2.4356,2.4863,2.5423,2.5573,0.0,2.6373,2.6499,2.6499,2.6499,2.7095,2.7604,2.7604,2.8855,3.009,3.084,3.1527,3.2312,3.3151,3.2516,3.1961,3.194,3.1713,3.1182,3.0296,3.0698,3.0603,2.9743,2.9679,2.9679,2.9679,2.9679,2.9716,2.9792,2.9792,2.9792,2.9792,2.9792,2.9792,2.9792,2.9792,2.9792,0.0,0.0,0.0,0.0,2.9792,2.9792,2.9792,2.9792,2.9792,2.9792,2.9792,2.9792,2.9792,0.0,0.0,0.0,0.0,0.0,0.0,0.0,0.0,0.0,0.0,0.0,0.0,0.0,0.0,0.0,0.0,0.0,0.0,0.0,0.0,0.0,0.0,0.0,0.0,0.0,0.0,0.0,0.0,0.0,0.0,0.0,0.0,0.0,0.0,0.0,0.0,0.0,0.0,0.0,0.0,0.0,0.0,0.0,0.0,0.0,0.0,1.8303,1.8303,0.0,0.0,0.0,0.0,0.0,0.0,0.0,0.0,2.3108,0.0,2.3108,0.0,2.3308,2.3308,2.3735,2.4343,0.0,2.531,2.5762,2.6373,2.6499,2.6499,2.6499,2.6658,2.6782,2.6782,2.7589,2.8317,2.85,2.9238,3.0066,3.0929,3.0284,2.9661,2.9376,2.9315,2.9092,2.8686,2.8766,2.8732,2.8499,2.8499,2.8499,2.8499,2.8499,2.8913,2.9779,2.9792,2.9792,2.9792,2.9792,2.9792,2.9792,2.9792,2.9792,0.0,0.0,0.0,2.9792,2.9792,2.9792,2.9792,2.9792,2.9792,2.9792,2.9792,2.9792,2.9792,0.0,0.0,0.0,0.0,0.0,0.0,0.0,0.0,0.0,0.0,0.0,0.0,0.0,0.0,0.0,0.0,0.0,0.0,0.0,0.0,0.0,0.0,0.0,0.0,0.0,0.0,0.0,0.0,0.0,0.0,0.0,0.0,0.0,0.0,0.0,0.0,0.0,0.0,0.0,0.0,1.8008,0.0,0.0,0.0,0.0,0.0,1.8008,1.8008,0.0,1.8008,1.8303,1.8921,0.0,0.0,0.0,0.0,2.2823,0.0,2.3017,2.3108,2.3108,2.3108,2.3346,2.3753,2.4318,2.4858,2.5398,2.5984,2.6311,2.6499,2.6499,2.6499,2.6499,2.6499,2.7196,2.7835,2.8247,2.8716,2.9192,2.9659,2.8939,2.8322,2.8145,2.8027,2.7886,2.7731,2.7959,2.8109,2.8109,2.8109,2.8109,2.8109,2.8109,2.8398,2.9013,2.9013,2.9013,2.9013,2.9013,2.8774,2.8369,2.9074,2.8866,0.0,0.0,0.0,2.9067,2.9573,2.9792,2.9792,2.9792,2.9792,2.9792,2.9792,2.9792,2.9792,0.0,0.0,0.0,0.0,0.0,0.0,0.0,0.0,0.0,0.0,0.0,0.0,0.0,0.0,0.0,0.0,0.0,0.0,0.0,0.0,0.0,0.0,0.0,0.0,0.0,0.0,0.0,0.0,0.0,0.0,0.0,0.0,0.0,0.0,0.0,0.0,0.0,0.0,0.0,0.0,1.8008,0.0,0.0,0.0,0.0,0.0,0.0,0.0,0.0,1.8008,1.8076,1.8462,1.9944,0.0,0.0,0.0,0.0,0.0,2.2732,2.3017,2.3108,2.3108,2.3108,2.3258,2.3866,2.4356,2.4838,2.5473,2.6021,2.6386,2.6474,2.6499,2.6499,2.6499,2.7196,2.7953,2.8716,2.8812,2.8812,2.8812,2.8051,2.7517,2.7517,2.7305,2.719,2.719,2.7595,2.7858,2.7858,2.7858,2.7858,2.7858,2.7858,2.7858,2.7858,2.8021,2.8109,2.8109,2.7938,2.7422,2.6651,2.7788,2.7447,2.6041,0.0,0.0,2.8306,2.9367,2.9792,2.9792,2.9792,2.9702,2.9573,2.9753,2.9585,2.9326,0.0,0.0,0.0,0.0,0.0,0.0,0.0,0.0,0.0,0.0,0.0,0.0,0.0,0.0,0.0,0.0,0.0,0.0,0.0,0.0,0.0,0.0,0.0,0.0,0.0,0.0,0.0,0.0,0.0,0.0,0.0,0.0,0.0,0.0,0.0,0.0,0.0,0.0,0.0,0.0,1.8008,0.0,0.0,0.0,0.0,0.0,0.0,0.0,0.0,1.8008,1.8496,1.9144,1.9431,0.0,0.0,0.0,0.0,0.0,2.2032,2.2567,2.3108,2.3108,2.3108,2.3258,2.3866,2.4067,2.4406,2.5398,2.5661,2.5875,2.6411,2.6499,2.6499,2.6499,2.7196,2.7769,2.7887,2.7887,2.7887,2.7887,2.7196,2.6692,2.6692,2.6631,2.6612,2.6612,2.67,2.6751,2.6751,2.6751,2.6751,2.6751,2.6751,2.6751,2.6751,2.7645,2.8109,2.8109,2.7236,2.6752,2.6602,2.6012,2.6047,2.6517,0.0,2.8214,2.8811,2.9501,2.9792,2.9792,2.9792,2.9197,2.8478,2.9443,2.8633,2.7139,0.0,0.0,0.0,0.0,0.0,0.0,0.0,0.0,0.0,0.0,0.0,0.0,0.0,0.0,0.0,0.0,0.0,0.0,0.0,0.0,0.0,0.0,0.0,0.0,0.0,0.0,0.0,0.0,0.0,0.0,0.0,0.0,0.0,0.0,0.0,0.0,0.0,0.0,0.0,0.0,0.0,0.0,0.0,0.0,0.0,0.0,0.0,0.0,0.0,0.0,1.8269,1.8687,1.9144,0.0,0.0,0.0,0.0,0.0,2.1069,2.1803,2.2445,2.2445,2.2793,2.317,2.3446,2.3778,2.4142,2.4632,2.5197,2.5674,2.5971,2.6285,2.6658,2.7061,2.7095,2.7196,2.7637,2.7317,2.704,2.704,2.6714,2.6499,2.6499,2.6499,2.6499,2.6499,2.6499,2.6499,2.6499,2.6499,2.6499,2.6499,2.6499,2.6499,2.6499,2.6448,2.6431,2.6431,2.5973,2.5168,2.4149,2.4554,2.4628,2.4574,0.0,2.6804,2.7152,2.7786,2.8011,2.8011,2.8011,2.7706,2.729,2.7839,2.7383,2.6565,0.0,0.0,0.0,0.0,0.0,0.0,0.0,0.0,0.0,0.0,0.0,0.0,0.0,0.0,0.0,0.0,0.0,0.0,0.0,0.0,0.0,0.0,0.0,0.0,0.0,0.0,0.0,0.0,0.0,0.0,0.0,0.0,0.0,0.0,0.0,0.0,0.0,0.0,0.0,0.0,0.0,0.0,0.0,0.0,0.0,0.0,0.0,0.0,0.0,0.0,0.0,0.0,0.0,0.0,0.0,0.0,1.9814,1.9464,2.0107,2.0942,2.1596,2.1596,2.2341,2.3108,2.3108,2.3446,2.3841,2.3966,2.4757,2.5448,2.5573,2.6097,2.6679,2.7317,2.6905,2.6714,2.7317,2.6871,2.6499,2.6499,2.6499,2.6499,2.6499,2.6499,2.6499,2.6499,2.6499,2.6499,2.6499,2.6499,2.6499,2.6499,2.6499,2.6383,2.6129,2.537,2.5004,2.5004,2.4528,2.3478,2.2048,2.3005,2.3101,2.2615,2.4377,2.5254,2.5507,2.6091,2.6412,2.6524,2.6524,2.6524,2.6431,2.5891,2.585,2.6099,0.0,0.0,0.0,0.0,0.0,0.0,0.0,0.0,0.0,0.0,0.0,0.0,0.0,0.0,0.0,0.0,0.0,0.0,0.0,0.0,0.0,0.0,0.0,0.0,0.0,1.8008,0.0,0.0,0.0,0.0,0.0,0.0,0.0,0.0,0.0,0.0,0.0,0.0,0.0,0.0,0.0,0.0,0.0,0.0,0.0,0.0,0.0,0.0,0.0,0.0,0.0,0.0,0.0,0.0,0.0,0.0,1.9332,1.9299,1.9365,2.0042,2.0687,2.0687,2.1896,2.3108,2.3108,2.3133,2.3321,2.3891,2.4469,2.4988,2.5511,2.6097,2.6521,2.6589,2.6521,2.6521,2.6589,2.6521,2.6499,2.6499,2.6499,2.6499,2.6499,2.6499,2.6499,2.6499,2.6499,2.6499,2.6499,2.6499,2.6499,2.6499,2.6499,2.606,2.5123,2.504,2.5004,2.4969,2.311,2.214,2.1952,2.1223,2.131,2.2073,2.2808,2.3861,2.5094,2.5627,2.6098,2.6524,2.6524,2.6524,2.6224,2.4102,2.4006,2.4914,0.0,0.0,0.0,0.0,0.0,0.0,0.0,0.0,0.0,0.0,0.0,0.0,0.0,0.0,0.0,0.0,0.0,0.0,0.0,0.0,0.0,0.0,0.0,1.8008,1.8008,1.8008,0.0,0.0,0.0,0.0,0.0,0.0,0.0,0.0,0.0,0.0,0.0,0.0,0.0,0.0,0.0,0.0,0.0,0.0,0.0,0.0,0.0,0.0,0.0,0.0,1.8202,0.0,0.0,0.0,0.0,0.0,1.8496,1.863,1.9144,1.9944,2.0719,2.1259,2.1877,2.2476,2.2987,2.3108,2.3158,2.3384,2.3916,2.4569,2.5435,2.5774,2.6072,2.6436,2.6499,2.6499,2.6499,2.6499,2.6499,2.6499,2.6499,2.6499,2.6499,2.6499,2.6499,2.6499,2.6499,2.6499,2.6499,2.6499,2.6499,2.6499,2.5873,2.537,2.5004,2.3745,2.3147,2.3147,2.2366,2.1697,2.1116,2.075,2.1116,2.1983,2.1902,2.2503,2.3595,2.3699,2.3867,2.4053,2.4289,2.4392,2.4264,2.343,2.3387,2.3757,0.0,0.0,0.0,0.0,0.0,0.0,0.0,0.0,0.0,0.0,0.0,0.0,0.0,0.0,0.0,0.0,0.0,0.0,0.0,0.0,0.0,0.0,0.0,1.8008,1.8008,1.8008,1.8008,0.0,0.0,0.0,0.0,0.0,0.0,0.0,0.0,0.0,0.0,0.0,0.0,0.0,0.0,0.0,0.0,0.0,0.0,0.0,0.0,0.0,0.0,0.0,1.8008,0.0,0.0,0.0,0.0,0.0,1.8202,1.8529,1.9144,1.9759,2.0462,2.1616,2.1678,2.1772,2.2854,2.2884,2.2793,2.3047,2.3697,2.4481,2.5222,2.5636,2.5971,2.6185,2.6373,2.6499,2.6499,2.6499,2.6499,2.6499,2.6499,2.6499,2.6499,2.6499,2.6499,2.6499,2.6499,2.6499,2.6499,2.6499,2.6499,2.6499,2.5511,2.4862,2.4528,2.285,2.1849,2.1555,2.1555,2.1231,2.0605,2.0605,2.0934,2.1538,2.1184,2.1471,2.2225,2.2292,2.2471,2.2744,2.2984,2.3091,2.3091,2.3091,2.3091,2.3091,0.0,0.0,0.0,0.0,0.0,0.0,0.0,0.0,0.0,0.0,0.0,0.0,0.0,0.0,0.0,0.0,0.0,0.0,0.0,0.0,0.0,0.0,0.0,1.8008,1.8008,1.8008,1.8008,0.0,0.0,0.0,0.0,0.0,0.0,0.0,0.0,0.0,0.0,0.0,0.0,0.0,0.0,0.0,0.0,0.0,0.0,0.0,0.0,0.0,0.0,0.0,1.8008,1.8008,0.0,0.0,0.0,1.8008,1.863,1.9299,1.9299,1.9309,1.9716,2.1459,2.1239,2.1037,2.272,2.2476,2.2125,2.2944,2.3998,2.4775,2.4788,2.5711,2.6298,2.5699,2.6122,2.6499,2.6499,2.6499,2.6499,2.6499,2.6499,2.6499,2.6499,2.6499,2.6499,2.6499,2.6499,2.6499,2.6499,2.6499,2.6499,2.6499,2.5511,2.4492,2.3514,2.2478,2.1517,2.0605,2.0605,2.0605,2.0605,2.0605,2.0605,2.0605,2.0605,2.082,2.122,2.1699,2.2383,2.3091,2.3091,2.3091,2.3091,2.3091,2.3091,2.3091,0.0,0.0,0.0,0.0,0.0,0.0,0.0,0.0,0.0,0.0,0.0,0.0,0.0,0.0,0.0,0.0,0.0,0.0,0.0,0.0,0.0,0.0,0.0,0.0,0.0,0.0,1.8008,0.0,0.0,0.0,0.0,0.0,0.0,1.8008,0.0,0.0,0.0,0.0,0.0,0.0,0.0,0.0,0.0,0.0,0.0,0.0,0.0,0.0,0.0,0.0,0.0,0.0,1.8008,0.0,1.8008,1.8008,1.8168,1.8529,1.9144,1.9759,2.0494,2.1628,2.1721,2.1772,2.2854,2.2914,2.2823,2.3047,2.3371,2.3847,2.465,2.5096,2.5498,2.6135,2.6386,2.6499,2.6499,2.6499,2.6499,2.6499,2.6499,2.6499,2.6499,2.6499,2.6499,2.6499,2.6499,2.6499,2.6499,2.5838,2.5441,2.5441,2.377,2.2739,2.244,2.1489,2.0895,2.0605,2.0605,2.0605,2.0605,2.0605,2.0605,2.0605,2.0605,2.0683,2.082,2.1572,2.2207,2.2734,2.2984,2.3091,2.3091,2.3091,2.3091,2.3091,0.0,0.0,0.0,0.0,0.0,0.0,0.0,0.0,0.0,0.0,0.0,0.0,0.0,0.0,0.0,0.0,0.0,0.0,0.0,0.0,0.0,0.0,0.0,0.0,0.0,1.8008,1.8008,0.0,0.0,0.0,0.0,0.0,0.0,1.8008,0.0,0.0,0.0,0.0,0.0,0.0,0.0,0.0,0.0,0.0,0.0,0.0,0.0,0.0,0.0,0.0,0.0,0.0,1.8008,1.8008,1.8076,1.8395,1.8754,1.9233,2.0107,2.0719,2.1333,2.2156,2.2125,2.2094,2.2914,2.3108,2.3108,2.3108,2.3283,2.369,2.4368,2.4845,2.5347,2.6047,2.6348,2.6499,2.6499,2.6499,2.6499,2.6499,2.6499,2.6499,2.6499,2.6499,2.6499,2.6499,2.6499,2.6499,2.6499,2.5921,2.5594,2.5594,2.3624,2.259,2.259,2.127,2.0605,2.0605,2.0605,2.0605,2.0605,2.0605,2.0605,2.0605,2.0605,2.0703,2.0869,2.1406,2.1973,2.2539,2.275,2.2945,2.3091,2.3091,2.3091,2.3091,0.0,0.0,0.0,0.0,0.0,0.0,0.0,0.0,0.0,0.0,0.0,0.0,0.0,0.0,0.0,0.0,0.0,0.0,0.0,0.0,0.0,0.0,0.0,0.0,0.0,0.0,0.0,0.0,0.0,0.0,0.0,0.0,1.8008,1.8008,0.0,1.8008,0.0,0.0,0.0,0.0,0.0,0.0,0.0,0.0,0.0,0.0,0.0,0.0,0.0,0.0,0.0,0.0,1.8008,1.8008,1.8168,1.8944,1.9814,2.0655,2.1459,2.1784,2.2075,2.2823,2.2506,2.2187,2.2914,2.3108,2.3108,2.3108,2.3552,2.3954,2.4054,2.487,2.5561,2.5661,2.6147,2.6499,2.6499,2.6499,2.6499,2.6499,2.6499,2.6499,2.6499,2.6499,2.6499,2.6499,2.6499,2.6499,2.6499,2.6418,2.6349,2.6349,2.4397,2.3368,2.3368,2.1527,2.0605,2.0605,2.0605,2.0605,2.0605,2.0605,2.0605,2.0605,2.0605,2.0791,2.1142,2.1181,2.1658,2.2402,2.248,2.2701,2.3042,2.3081,2.3091,2.3091,0.0,0.0,0.0,0.0,0.0,0.0,0.0,0.0,0.0,0.0,0.0,0.0,0.0,0.0,0.0,0.0,0.0,0.0,0.0,0.0,0.0,0.0,0.0,0.0,0.0,0.0,0.0,0.0,0.0,0.0,0.0,0.0,0.0,1.8008,0.0,1.8008,0.0,0.0,0.0,0.0,0.0,0.0,0.0,0.0,0.0,0.0,0.0,0.0,0.0,0.0,0.0,0.0,1.8008,1.8008,1.8042,1.8236,1.8888,1.9628,1.9824,2.0846,2.1939,2.2094,2.2506,2.2884,2.3078,2.3108,2.3108,2.3108,2.3195,2.3559,2.4449,2.4833,2.5272,2.6172,2.6411,2.6499,2.6499,2.6499,2.6499,2.6499,2.6499,2.6499,2.6499,2.6499,2.6499,2.6499,2.6499,2.6499,2.6499,2.5734,2.5335,2.5335,2.3368,2.2328,2.2328,2.1193,2.0605,0.0,2.0605,2.0605,2.0605,2.0605,2.0605,2.0605,2.0605,2.0664,2.0732,2.1094,2.1307,2.1541,2.2246,2.2568,2.2685,2.2974,2.3091,2.3091,0.0,0.0,0.0,0.0,0.0,0.0,0.0,0.0,0.0,0.0,0.0,0.0,0.0,0.0,0.0,0.0,0.0,0.0,0.0,0.0,0.0,0.0,0.0,0.0,0.0,0.0,0.0,0.0,0.0,0.0,0.0,0.0,0.0,1.8008,0.0,1.8008,0.0,0.0,0.0,0.0,0.0,0.0,0.0,0.0,0.0,0.0,0.0,0.0,0.0,0.0,0.0,0.0,0.0,0.0,1.8076,1.8496,1.9233,2.0009,2.043,2.1491,2.2476,2.2476,2.2793,2.3108,2.3108,2.3108,2.3108,2.3108,2.3108,2.3371,2.4268,2.4644,2.5096,2.5912,2.6311,2.6499,2.6499,2.6499,2.6499,2.6499,2.6499,2.6499,2.6499,2.6499,2.6499,2.6499,2.6499,2.6499,2.6499,2.5978,2.5488,2.5016,2.3514,2.2478,2.1989,2.1078,2.0605,2.0605,2.0605,2.0605,2.0605,2.0605,2.0605,2.0605,2.0605,2.0605,2.0625,2.082,2.1045,2.1239,2.1687,2.2107,2.2539,2.2754,2.2925,2.3091,0.0,0.0,0.0,0.0,0.0,0.0,0.0,0.0,0.0,0.0,0.0,0.0,0.0,0.0,0.0,0.0,0.0,0.0,0.0,0.0,0.0,0.0,0.0,0.0,0.0,0.0,0.0,0.0,0.0,0.0,0.0,0.0,0.0,1.8008,0.0,0.0,0.0,0.0,0.0,0.0,0.0,0.0,0.0,0.0,0.0,0.0,0.0,0.0,1.8008,1.8008,0.0,0.0,0.0,0.0,1.8134,1.8844,1.9694,2.0558,2.1428,2.2384,2.3108,2.3108,2.3108,2.3108,2.3108,2.3108,2.3108,2.3108,2.3108,2.3283,2.3891,2.4368,2.4858,2.5372,2.5862,2.621,2.621,2.621,2.621,2.621,2.621,2.621,2.621,2.621,2.621,2.621,2.6298,2.6348,2.6348,2.6436,2.6025,2.5052,2.4036,2.3036,2.2027,2.1078,2.0605,2.0605,2.0605,2.0605,2.0605,2.0605,2.0605,2.0605,2.0605,2.0605,2.0605,2.0605,2.0781,2.1083,2.1161,2.1629,2.2305,2.2461,2.2691,2.3003,0.0,0.0,0.0,0.0,0.0,0.0,0.0,0.0,0.0,0.0,0.0,0.0,0.0,0.0,0.0,0.0,0.0,0.0,0.0,0.0,0.0,0.0,0.0,0.0,0.0,0.0,0.0,0.0,0.0,0.0,0.0,0.0,0.0,1.8008,0.0,0.0,0.0,0.0,0.0,0.0,0.0,0.0,0.0,0.0,0.0,0.0,0.0,0.0,0.0,1.8008,1.8008,0.0,0.0,0.0,1.8008,1.8134,1.8787,1.9661,2.0526,2.1896,2.3108,2.3108,2.3108,2.3108,2.3108,2.3108,2.3108,2.3108,2.3108,2.3283,2.3891,2.4054,2.4293,2.4833,2.4963,2.5046,2.5046,2.5046,2.5046,2.5046,2.5046,2.5046,2.5046,2.5046,2.5046,2.5046,2.546,2.5711,2.5711,2.6223,2.6025,2.5052,2.4036,2.3036,2.2027,2.1078,2.0605,2.0605,2.0605,2.0605,2.0605,2.0605,2.0605,2.0605,2.0605,2.0605,2.0605,2.0605,2.0635,2.0693,2.1044,2.1268,2.1453,2.2236,2.2549,2.2646,0.0,0.0,0.0,0.0,0.0,0.0,0.0,0.0,0.0,0.0,0.0,0.0,0.0,0.0,0.0,0.0,0.0,0.0,0.0,0.0,0.0,0.0,0.0,0.0,0.0,0.0,0.0,0.0,0.0,0.0,0.0,1.8008,1.8008,0.0,0.0,0.0,0.0,0.0,0.0,0.0,0.0,0.0,0.0,0.0,0.0,0.0,0.0,0.0,0.0,1.8008,1.8008,1.8008,1.8008,0.0,0.0,0.0,1.862,1.9595,2.0942,2.1877,2.2537,2.2975,2.3108,2.3108,2.3108,2.3108,2.3108,2.3108,2.3108,2.3183,2.3446,2.3778,2.4079,2.4318,2.4587,2.4788,2.4788,2.4788,2.4788,2.4788,2.4788,2.4788,2.4788,2.4788,2.4788,2.4788,2.5034,2.5159,2.5159,2.541,2.5225,2.4564,2.3588,2.2725,2.2027,2.1078,2.0605,2.0605,2.0605,2.0605,2.0605,2.0605,2.0605,2.0605,2.0605,2.0605,2.0605,2.0605,2.0605,2.0625,2.0781,2.1016,2.1268,2.1934,2.2314,2.2578,0.0,0.0,0.0,0.0,0.0,0.0,0.0,0.0,0.0,0.0,0.0,0.0,0.0,0.0,0.0,0.0,0.0,0.0,0.0,0.0,0.0,0.0,0.0,0.0,0.0,0.0,0.0,0.0,0.0,0.0,1.8008,1.8008,1.8008,0.0,1.8008,0.0,0.0,0.0,0.0,0.0,0.0,0.0,0.0,0.0,0.0,0.0,0.0,0.0,0.0,0.0,0.0,1.8008,1.8008,1.8008,0.0,0.0,0.0,1.9584,2.0878,2.1553,2.2032,2.2641,2.2944,2.3108,2.3108,2.3108,2.3108,2.3108,2.3108,2.3108,2.3108,2.3459,2.3778,2.3778,2.4098,2.4362,2.4362,2.4362,2.4362,2.4362,2.4362,2.4362,2.4362,2.4362,2.4362,2.4362,2.4499,2.4587,2.4587,2.4713,2.4559,2.3983,2.3153,2.2415,2.1811,2.0989,2.0605,2.0605,2.0605,2.0605,2.0605,2.0605,2.0605,2.0605,2.0605,2.0605,2.0605,2.0605,2.0605,2.0605,2.0605,2.0771,2.1123,2.1562,2.1992,2.2412,0.0,0.0,0.0,0.0,0.0,0.0,0.0,0.0,0.0,0.0,0.0,0.0,0.0,0.0,0.0,0.0,0.0,0.0,0.0,0.0,0.0,0.0,0.0,0.0,0.0,0.0,0.0,0.0,0.0,0.0,1.8008,1.8008,1.8008,1.8008,1.8008,1.8008,1.8008,0.0,0.0,0.0,0.0,0.0,0.0,0.0,0.0,0.0,0.0,0.0,0.0,0.0,0.0,0.0,0.0,1.8008,1.8008,0.0,0.0,0.0,1.9398,2.0655,2.1908,2.1939,2.2537,2.3108,2.3108,2.3108,2.3108,2.3108,2.3108,2.3108,2.3108,2.3133,2.3145,2.3145,2.317,2.3195,2.3195,2.3195,2.3195,2.3195,2.3195,2.3195,2.3195,2.3195,2.3195,2.3195,2.3728,2.4042,2.4042,2.4531,2.4341,2.3392,2.2924,2.2226,2.124,2.0801,2.0605,2.0605,2.0605,2.0605,2.0605,2.0605,2.0605,2.0605,2.0605,2.0605,2.0605,2.0605,2.0605,2.0605,2.0605,2.0615,2.0693,2.1103,2.1543,2.1982,0.0,0.0,0.0,0.0,0.0,0.0,0.0,0.0,0.0,0.0,0.0,0.0,0.0,0.0,0.0,0.0,0.0,0.0,0.0,0.0,0.0,0.0,0.0,0.0,0.0,0.0,0.0,0.0,0.0,1.8008,1.8008,1.8008,1.8008,1.8008,1.8008,1.8008,1.8008,1.8008,0.0,0.0,0.0,0.0,0.0,0.0,0.0,0.0,0.0,0.0,0.0,0.0,0.0,0.0,0.0,0.0,0.0,1.8008,1.8202,1.8596,1.9144,1.9748,2.0494,2.1616,2.2137,2.2476,2.2975,2.3108,2.3108,2.3108,2.3108,2.3108,2.3108,2.3108,2.3108,2.3108,2.3108,2.3108,2.3108,2.3108,2.3108,2.3108,2.3108,2.3108,2.3108,2.3108,2.3108,2.3108,2.3296,2.3409,2.3409,2.3597,2.3704,2.3735,2.2428,2.1301,2.0369,2.0534,2.0605,2.0605,2.0605,2.0605,2.0605,2.0605,2.0605,2.0605,2.0605,2.0605,2.0605,2.0605,2.0605,2.0605,2.0605,2.0605,2.0664,2.1064,2.1514,2.1953,0.0,0.0,0.0,0.0,0.0,0.0,0.0,0.0,0.0,0.0,0.0,0.0,0.0,0.0,0.0,0.0,0.0,0.0,0.0,0.0,0.0,0.0,0.0,0.0,0.0,0.0,0.0,0.0,0.0,0.0,0.0,1.8008,1.8008,1.8008,1.8008,1.8008,0.0,0.0,0.0,1.8496,0.0,0.0,2.1049,0.0,0.0,0.0,0.0,0.0,0.0,0.0,0.0,0.0,0.0,0.0,0.0,0.0,1.8008,1.8144,1.8721,1.9077,1.9595,2.0751,2.1459,2.2044,2.2567,2.2914,2.3108,2.3108,2.3108,2.3108,2.3108,2.3108,2.3108,2.3108,2.3108,2.3108,2.3108,2.3108,2.3108,2.3108,2.3108,2.3108,2.3108,2.3108,2.3108,2.3108,2.3108,0.0,2.3108,2.3108,2.3102,2.3066,2.2141,2.1094,1.9902,2.049,2.0708,2.0605,2.0605,2.0605,2.0605,2.0605,2.0605,2.0605,2.0605,2.0605,2.0605,2.0605,2.0605,2.0605,2.0605,2.0605,2.0635,2.0898,2.1377,2.1924,0.0,0.0,0.0,0.0,0.0,0.0,0.0,0.0,0.0,0.0,0.0,0.0,0.0,0.0,0.0,0.0,0.0,0.0,0.0,0.0,0.0,0.0,0.0,0.0,0.0,0.0,0.0,0.0,0.0,0.0,0.0,0.0,1.8008,1.8008,1.8008,1.8008,1.8042,0.0,1.8496,1.9332,0.0,2.1112,2.1877,0.0,0.0,0.0,2.223,2.1939,0.0,2.1908,0.0,0.0,0.0,0.0,0.0,0.0,0.0,1.8008,0.0,0.0,0.0,1.9332,2.0623,2.1877,2.1908,2.2537,2.3108,2.3108,2.3108,2.3108,2.3108,2.3108,2.3108,2.3108,2.3108,2.3108,2.3108,2.3108,2.3108,2.3108,2.3108,2.3108,2.3108,2.3108,2.3108,2.3108,2.3108,2.3108,2.3108,2.3108,2.2541,2.1263,2.2031,2.1631,1.992,2.0767,2.0965,2.0605,2.0605,2.0605,2.0605,2.0605,2.0605,2.0605,2.0605,2.0605,2.0605,2.0605,2.0605,2.0605,2.0605,2.0605,2.0605,2.0605,2.1163,2.1885,0.0,0.0,0.0,0.0,0.0,0.0,0.0,0.0,0.0,0.0,0.0,0.0,0.0,0.0,0.0,0.0,0.0,0.0,0.0,0.0,0.0,0.0,0.0,0.0,0.0,0.0,0.0,0.0,0.0,0.0,0.0,0.0,0.0,0.0,1.8008,1.8337,1.8888,1.8269,0.0,1.8496,2.0009,2.0751,0.0,0.0,0.0,0.0,0.0,2.2763,2.2671,0.0,2.1753,2.1333,0.0,0.0,0.0,0.0,0.0,0.0,1.8008,0.0,0.0,0.0,0.0,0.0,2.2506,2.2944,2.3108,2.3108,2.3108,2.3108,2.3108,2.3108,2.3108,2.3108,2.3108,2.3108,2.3108,2.3108,2.3108,2.3108,2.3108,2.3108,2.3108,2.3108,2.3108,0.0,2.3108,2.3108,2.3108,2.3108,2.2672,2.1733,2.1619,2.1204,2.0396,2.0293,2.0383,2.0605,2.0605,2.0605,2.0605,2.0605,2.0605,2.0605,2.0605,2.0605,2.0605,2.0605,2.0605,2.0605,2.0605,2.0605,2.0605,2.0605,2.1163,2.1885,0.0,0.0,0.0,0.0,0.0,0.0,0.0,0.0,0.0,0.0,0.0,0.0,0.0,0.0,0.0,0.0,0.0,0.0,0.0,0.0,0.0,0.0,0.0,0.0,0.0,0.0,0.0,0.0,0.0,0.0,0.0,0.0,0.0,0.0,0.0,0.0,0.0,0.0,0.0,1.9683,2.0333,0.0,0.0,2.2353,2.2823,0.0,0.0,0.0,2.3035,2.2567,2.2414,0.0,0.0,0.0,0.0,0.0,0.0,0.0,0.0,0.0,1.8337,1.9716,0.0,0.0,2.2279,2.2854,2.3108,2.3108,2.3108,2.3108,2.3108,2.3108,2.3108,2.3108,2.3108,2.3108,2.3108,2.3108,2.3108,2.3108,2.3108,2.3108,2.3108,2.3108,2.3108,2.3108,2.3108,2.3108,2.3108,2.3108,2.2732,2.1939,2.1961,2.1529,2.0603,2.0695,2.068,2.0605,2.0605,2.0605,2.0605,2.0605,2.0605,2.0605,2.0605,2.0605,2.0605,2.0605,2.0605,2.0605,2.0605,2.0605,2.0625,2.0781,2.1289,2.1904,0.0,0.0,0.0,0.0,0.0,0.0,0.0,0.0,0.0,0.0,0.0,0.0,0.0,0.0,0.0,0.0,0.0,0.0,0.0,0.0,0.0,0.0,0.0,0.0,0.0,0.0,0.0,0.0,0.0,0.0,0.0,0.0,0.0,0.0,0.0,0.0,0.0,0.0,2.0236,2.1815,2.0942,2.1542,0.0,0.0,2.2476,2.3017,2.2292,2.2476,2.3108,2.3108,2.3035,0.0,0.0,0.0,0.0,0.0,1.8202,0.0,0.0,0.0,0.0,0.0,2.0042,0.0,2.1803,2.258,2.3108,2.3108,2.3108,2.3108,2.3108,2.3108,2.3108,2.3108,2.3108,2.3108,2.3108,2.3108,2.3108,2.3108,2.3108,2.3108,2.3108,2.3108,2.3108,2.3108,2.3108,2.3108,2.3108,2.3108,2.2763,2.2063,2.2628,2.2234,2.0695,2.1403,2.1356,2.0537,2.0586,2.0605,2.0605,2.0605,2.0605,2.0605,2.0605,2.0605,2.0605,2.0605,2.0605,2.0605,2.0605,2.0605,2.0664,2.1064,2.1514,2.1953,0.0,0.0,0.0,0.0,0.0,0.0,0.0,0.0,0.0,0.0,0.0,0.0,0.0,0.0,0.0,0.0,0.0,0.0,0.0,0.0,0.0,0.0,0.0,0.0,0.0,0.0,0.0,0.0,0.0,0.0,0.0,0.0,0.0,0.0,0.0,0.0,2.0009,1.8787,1.9661,2.1815,2.0942,2.1239,2.2187,2.2671,2.2944,2.3078,2.2914,2.2975,2.3108,2.3108,2.2659,2.2075,0.0,0.0,0.0,2.0204,0.0,0.0,0.0,0.0,0.0,0.0,0.0,0.0,2.2537,2.2975,2.3108,2.3108,2.3108,2.3108,2.3108,2.3108,2.3108,2.3108,2.3108,2.3108,2.3108,2.3108,2.3108,2.3108,2.3108,2.3108,2.3108,2.3108,2.3108,2.3108,2.3108,2.3108,2.3108,2.3108,2.3035,2.2884,2.2384,2.1815,2.1073,2.0928,2.0597,2.0049,2.0439,2.0605,2.0605,2.0605,2.0605,2.0605,2.0605,2.0605,2.0605,2.0605,2.0605,2.0605,2.0605,2.0605,2.0664,2.1064,2.1514,2.1953,0.0,0.0,0.0,0.0,0.0,0.0,0.0,0.0,0.0,0.0,0.0,0.0,0.0,0.0,0.0,0.0,0.0,0.0,0.0,0.0,0.0,0.0,0.0,0.0,0.0,0.0,0.0,0.0,0.0,0.0,0.0,0.0,0.0,0.0,0.0,2.0204,2.0526,1.9661,2.0301,2.1815,2.0942,0.0,2.2537,2.2957,2.3108,2.3108,2.3108,2.3108,2.3108,2.3108,2.2823,0.0,0.0,2.1596,2.1164,0.0,1.9977,1.9299,0.0,0.0,0.0,2.0171,0.0,0.0,0.0,2.2506,2.2506,2.2506,2.2506,2.2628,2.3017,2.3108,2.3108,2.3108,2.3108,2.3108,2.3108,2.3108,2.3108,2.3108,2.3108,2.3108,2.3108,2.3108,2.3108,2.3108,2.3108,2.3108,2.3108,2.3108,2.3108,2.3108,2.2689,2.2303,2.1835,2.1902,2.1488,2.0565,2.1565,2.1527,2.0605,2.1078,2.1039,2.0605,2.0605,2.0605,2.0605,2.0605,2.0605,2.0605,2.0605,2.0605,2.0683,2.1318,2.1699,2.1982,0.0,0.0,0.0,0.0,0.0,0.0,0.0,0.0,0.0,0.0,0.0,0.0,0.0,0.0,0.0,0.0,0.0,0.0,0.0,0.0,0.0,0.0,0.0,1.8008,0.0,0.0,0.0,0.0,0.0,0.0,0.0,0.0,0.0,0.0,2.1239,2.1207,2.0846,2.0655,2.1101,2.1846,2.1132,2.176,2.3108,2.3108,2.3108,2.3108,2.3108,2.3108,2.312,2.3233,2.3271,2.3149,2.2511,2.2294,0.0,0.0,0.0,0.0,0.0,0.0,0.0,0.0,0.0,2.108,0.0,0.0,0.0,2.2094,2.2002,2.2137,2.2944,2.3108,2.307,2.2957,2.3032,2.301,2.2735,2.2779,2.2914,2.3065,2.3108,2.3108,2.3108,2.3108,2.3108,2.3108,2.3108,2.3108,2.3108,2.3108,2.3108,2.3108,2.3108,2.2868,2.2388,2.3003,2.2651,2.1364,2.2798,2.2675,2.1193,2.1924,2.1773,2.0857,2.0857,2.0789,2.0605,2.0605,2.0605,2.0605,2.0605,2.0654,2.0791,2.1592,2.1934,2.2119,2.1069,2.0751,0.0,0.0,0.0,0.0,0.0,0.0,0.0,1.8168,0.0,0.0,0.0,2.0687,2.1302,0.0,0.0,0.0,1.9199,0.0,0.0,0.0,0.0,0.0,1.8008,0.0,0.0,0.0,0.0,0.0,0.0,0.0,0.0,0.0,2.0236,2.0398,2.169,2.0942,2.1101,2.1877,2.1784,2.2279,0.0,2.3108,2.3108,2.3108,2.3108,2.3108,2.3183,0.0,2.3904,2.3873,0.0,2.3767,2.3636,2.3002,0.0,0.0,0.0,0.0,0.0,0.0,2.1175,0.0,0.0,0.0,2.2094,2.2823,0.0,2.2137,2.2944,0.0,0.0,2.2456,2.2782,2.268,2.1404,2.1703,2.2292,2.3005,2.3108,2.3108,2.3108,2.3108,2.3108,2.3108,2.3108,2.3108,2.3108,2.3108,2.3108,2.3108,2.3108,2.2726,2.1972,2.2858,2.2819,2.1918,2.2994,2.3368,2.3184,2.3294,2.2776,2.1849,2.1849,2.1375,2.0605,2.0605,2.0605,2.0605,2.0605,2.081,2.1171,2.1709,2.2119,2.251,2.2187,2.2051,0.0,0.0,0.0,0.0,0.0,0.0,0.0,1.8821,1.8944,1.9144,1.9266,1.9944,2.0462,2.059,2.059,2.0236,0.0,0.0,0.0,0.0,0.0,0.0,0.0,0.0,0.0,0.0,1.911,0.0,0.0,0.0,0.0,0.0,2.091,2.1239,2.1877,2.1522,2.1834,2.2567,2.2106,2.2578,0.0,2.364,2.381,2.4086,2.4086,2.4086,2.4123,0.0,2.4469,0.0,0.0,0.0,0.0,2.3371,0.0,0.0,0.0,0.0,0.0,0.0,0.0,0.0,2.1057,0.0,2.1227,0.0,0.0,0.0,0.0,0.0,0.0,0.0,2.192,2.201,2.0938,2.1413,2.2044,2.2353,2.2414,0.0,2.3035,2.3108,2.3108,2.3108,2.3108,2.3108,2.3108,2.3108,2.3108,2.3108,2.3108,2.2944,2.261,2.3646,2.3701,2.2774,2.4446,2.4624,2.3514,2.4108,2.3514,2.1989,2.1989,2.1479,2.0605,2.0605,2.0605,2.0635,2.085,2.1064,2.1249,2.1728,2.2148,2.2578,2.3108,0.0,0.0,0.0,0.0,0.0,0.0,0.0,0.0,1.9044,1.8586,1.8596,1.9243,1.9716,2.0268,2.091,2.1164,2.093,0.0,0.0,1.9911,0.0,0.0,0.0,0.0,0.0,0.0,0.0,0.0,0.0,0.0,0.0,0.0,0.0,2.1365,2.1815,2.223,2.223,2.2567,2.3047,2.2647,2.3249,2.4418,2.428,2.4469,2.4788,2.4788,2.4788,2.4813,2.4983,2.5034,0.0,2.4556,0.0,0.0,0.0,0.0,0.0,2.2114,0.0,0.0,0.0,0.0,0.0,0.0,0.0,0.0,0.0,0.0,0.0,0.0,0.0,0.0,0.0,0.0,2.1066,2.0261,2.0718,2.1329,2.1842,2.1908,0.0,0.0,2.2628,2.2763,2.2763,2.2975,2.3108,2.3108,2.3108,2.3108,2.3108,2.3108,2.3108,2.3108,2.4224,2.4439,2.3713,2.5608,2.5721,2.4325,2.4779,2.4036,2.2403,2.2103,2.1479,2.0605,2.0605,2.0605,2.0644,2.1025,2.1268,2.1465,2.1894,2.2324,2.2734,2.3108,2.2476,2.1939,2.1939,2.0526,0.0,0.0,0.0,1.8076,1.8042,1.8754,1.9266,1.9299,2.0814,2.1815,2.1846,2.2567,2.2689,2.1877,0.0,2.1428,0.0,0.0,1.9266,0.0,0.0,0.0,0.0,0.0,0.0,0.0,0.0,0.0,0.0,2.1005,2.1542,2.3078,2.3078,2.3078,2.3158,2.371,2.4575,2.5485,0.0,2.4775,2.4788,2.4788,0.0,0.0,2.5398,2.5573,0.0,0.0,0.0,0.0,0.0,0.0,0.0,0.0,0.0,0.0,2.1005,0.0,0.0,0.0,0.0,2.1846,0.0,0.0,0.0,0.0,0.0,0.0,0.0,0.0,0.0,0.0,1.9086,1.9848,2.1696,2.1908,2.1585,0.0,2.1428,2.1939,2.1939,2.2659,2.3108,2.3108,2.3108,2.3108,2.3108,2.3108,2.3108,2.3108,2.4224,2.4788,2.4768,2.5937,2.6452,2.6383,2.5441,2.4409,2.3404,2.2403,2.1479,2.0605,2.0605,2.0605,2.0644,2.1025,2.1494,2.1914,2.2334,2.2754,2.3081,2.3017,2.199,2.1385,2.2506,2.2206,2.1342,1.9944,1.9243,1.8844,1.8844,1.911,1.9529,2.0107,2.0687,2.1259,2.1846,2.2156,2.2187,2.1908,2.1603,0.0,0.0,0.0,1.9502,0.0,0.0,0.0,0.0,0.0,0.0,1.8462,0.0,0.0,0.0,2.108,2.1784,2.2377,2.3281,2.3703,2.3791,2.4695,2.5272,2.5573,0.0,0.0,2.5946,2.5946,2.5946,0.0,2.6135,2.6197,2.6135,2.5724,2.585,2.5984,2.487,2.4782,0.0,0.0,0.0,2.3325,2.1835,0.0,0.0,0.0,0.0,0.0,0.0,0.0,0.0,0.0,0.0,0.0,0.0,0.0,0.0,0.0,1.8175,1.8611,1.9245,2.0051,2.0795,2.1393,2.1721,2.2125,2.2659,2.2957,2.3108,2.3108,2.3108,2.3108,2.3108,2.3108,2.3108,2.3108,2.4224,2.4788,2.48,2.5971,2.6129,2.5488,2.5158,2.4084,2.2478,2.214,2.1479,2.0605,2.0605,2.0605,2.0674,2.1377,2.1758,2.1934,2.2353,2.274,2.3091,2.3017,2.2406,2.1997,2.2574,2.227,2.1609,2.0587,2.0079,1.9961,2.0287,2.032,2.0554,2.1106,2.1445,2.1867,2.2436,2.2766,2.2924,2.2924,2.2636,0.0,2.2916,2.1275,0.0,0.0,0.0,0.0,0.0,0.0,1.9496,1.9002,1.9849,0.0,0.0,2.1975,2.2627,2.2979,2.3909,2.4293,2.4368,2.5234,2.5724,0.0,0.0,2.6172,2.6499,0.0,2.6499,2.6499,2.6499,2.6499,2.6424,2.6047,2.6197,2.6311,2.536,2.5335,2.5398,2.4531,2.4155,0.0,2.2498,2.2653,0.0,2.0268,0.0,0.0,0.0,0.0,0.0,0.0,0.0,0.0,0.0,0.0,0.0,0.0,1.741,1.7534,1.7692,1.8745,1.9787,2.0646,2.1155,2.1772,2.2598,2.2944,2.3108,2.3108,0.0,2.3108,2.3108,2.3108,2.3108,2.3108,2.4224,2.4788,2.48,2.5971,2.599,2.4981,2.4636,2.3551,2.1989,2.1669,2.1155,2.0605,2.0605,2.0693,2.0879,2.1602,2.1982,2.2158,2.2578,2.2867,2.3091,2.3183,2.3603,2.3542,2.2169,2.0907,2.0104,2.0252,2.061,2.1202,2.2127,2.2264,2.2298,2.2332,2.3055,2.358,2.358,2.4341,2.4788,2.4788,2.4781,0.0,0.0,2.3947,2.3471,2.3501,0.0,0.0,0.0,0.0,0.0,2.0896,2.1702,2.2593,2.3501,2.3547,2.4022,2.4788,2.4813,2.4838,2.4946,2.5435,2.5996,2.6499,2.6499,2.6499,2.6499,2.6499,2.6499,2.6499,2.6499,2.6499,2.6499,2.6499,2.6499,2.6386,2.5799,2.5636,2.5523,2.5008,2.4481,2.3866,2.2975,0.0,0.0,0.0,0.0,2.2884,0.0,0.0,0.0,0.0,0.0,0.0,0.0,0.0,0.0,0.0,0.0,1.6652,1.707,1.7977,1.8575,1.8606,1.9822,2.0942,2.1815,2.2641,2.3108,2.3108,0.0,2.3108,2.3108,2.3108,2.3108,2.3108,2.4224,2.4788,2.48,2.5904,2.5908,2.4898,2.3891,2.2888,2.1876,2.1011,2.0605,2.0605,2.0605,2.083,2.1239,2.1719,2.2158,2.2598,2.2945,2.3091,2.3091,2.4179,2.3968,2.3296,2.2315,2.2362,2.2589,2.2622,2.2185,2.2161,2.3055,2.3156,2.3402,2.4054,2.4329,2.4471,2.4471,2.4678,0.0,0.0,0.0,0.0,2.48,2.368,2.3179,2.348,2.24,0.0,2.1851,0.0,2.1817,2.1851,2.2706,2.3256,2.3535,2.4165,2.4581,2.4813,2.5234,2.5649,2.6084,2.6223,2.6361,2.6499,0.0,2.6499,2.6499,2.6499,2.6499,2.6499,2.6499,2.6499,2.6499,2.6499,2.6499,2.6461,2.6311,2.6273,2.6147,2.5548,2.5285,2.4951,2.3927,2.3723,2.3375,0.0,0.0,0.0,0.0,0.0,0.0,0.0,0.0,0.0,0.0,0.0,0.0,0.0,0.0,0.0,1.5889,1.7214,1.827,1.8575,1.9822,2.0942,2.1815,2.2641,2.3108,2.3108,0.0,0.0,2.3108,2.3108,2.3108,2.3108,2.4224,2.4788,2.48,2.5186,2.485,2.3854,2.285,2.1849,2.0934,2.0712,2.0605,2.0605,2.0605,2.083,2.1239,2.1719,2.2334,2.2945,2.3052,2.3091,2.3091,2.3928,2.4303,2.4356,2.4099,2.45,2.4597,2.3939,2.3616,2.3768,2.4682,2.4829,2.4997,2.5502,2.5536,2.5536,2.5536,2.5536,0.0,2.5536,0.0,0.0,2.5515,2.4871,2.456,2.4795,2.3906,0.0,2.341,0.0,2.2979,2.341,2.3918,2.441,2.4817,2.5324,2.5536,2.5548,2.5883,2.6197,2.6499,2.6499,2.6499,0.0,2.6499,2.6499,2.6499,2.6499,2.6499,2.6499,2.6499,2.6499,2.6499,2.6499,2.6499,2.6499,2.6499,2.6499,2.6424,2.6097,2.5787,2.5398,2.4569,2.418,2.3717,2.2672,2.275,2.2975,0.0,0.0,0.0,0.0,0.0,0.0,0.0,0.0,0.0,0.0,0.0,0.0,0.0,1.7339,1.8207,1.8094,1.995,2.1207,2.1333,2.2094,2.2567,0.0,0.0,0.0,2.3078,2.2763,2.2732,2.3108,2.385,2.4406,2.48,2.4945,2.448,2.3478,2.2478,2.1489,2.0605,2.0605,2.0605,2.0615,2.0781,2.1123,2.1582,2.2197,2.2682,2.3091,2.3091,2.3091,2.3091,2.3546,2.4682,2.5694,2.6227,2.6314,2.5886,2.4604,2.4835,2.5523,2.6383,2.6499,2.6499,2.6499,2.6499,2.6499,2.6499,2.6499,2.6499,2.6499,2.6499,2.6499,2.6499,2.6499,2.6499,2.6499,2.5629,2.5194,0.0,2.4337,2.4264,2.5004,2.5111,2.5594,2.6314,2.6452,2.6499,2.6499,2.6499,2.6499,2.6499,2.6499,2.6499,2.6499,2.6499,2.6499,2.6499,2.6499,2.6499,2.6499,2.6499,2.6499,2.6499,2.6499,2.6499,2.6499,2.6499,2.6499,2.6499,2.6499,2.6122,2.5586,2.5059,2.4506,2.3954,2.3346,2.3158,2.3108,2.3108,2.3108,2.3108,0.0,0.0,0.0,0.0,0.0,0.0,0.0,0.0,0.0,0.0,0.0,0.0,1.7471,1.9929,2.1239,2.0494,2.1239,0.0,0.0,0.0,0.0,2.3078,2.2414,2.2353,2.2944,0.0,2.3923,2.4451,2.4679,2.4264,2.3257,2.2253,2.1375,2.0605,2.0605,2.0605,2.0635,2.1045,2.1523,2.2041,2.2789,2.3091,2.3091,2.3091,2.3091,2.3091,2.5825,2.5479,2.5144,2.524,2.5264,2.5193,2.4909,2.566,2.6314,2.6499,2.6499,2.6499,2.6499,2.6499,2.6499,2.6499,2.6499,0.0,0.0,0.0,0.0,2.6499,2.6499,2.6499,2.6499,2.6314,2.6245,2.6245,2.6047,2.5652,2.5016,2.5838,2.5873,2.53,2.6129,2.6499,2.6499,2.6499,0.0,2.6499,2.6499,2.6499,2.6499,2.6499,2.6499,2.6499,2.6499,2.6499,2.6499,2.6499,2.6499,2.6499,2.6499,2.6499,2.6499,2.6499,2.6499,2.6499,2.6499,2.6411,2.621,2.5598,2.5071,2.4531,2.3979,2.3446,2.3108,2.3108,2.3108,2.3108,2.3108,0.0,0.0,0.0,0.0,0.0,0.0,0.0,0.0,0.0,0.0,1.9071,1.7537,1.8818,1.9694,1.9529,2.0333,0.0,0.0,0.0,0.0,0.0,2.2944,0.0,0.0,0.0,2.3878,2.2502,2.3377,2.322,2.2215,2.126,2.075,2.0605,2.0605,2.0605,2.0635,2.1045,2.1658,2.2451,2.2906,2.3091,2.3091,2.3091,2.3091,2.3091,2.4112,2.4217,2.4373,2.4898,2.5004,2.5194,2.5699,2.6198,2.6499,2.6499,2.6499,2.6499,2.6499,2.6499,2.6499,2.6499,2.6499,2.6499,2.6499,2.6499,2.6499,2.6499,2.6499,2.6499,2.6499,2.6499,2.6499,2.6499,2.599,2.5476,0.0,2.5488,2.5441,2.504,2.606,2.6499,2.6499,0.0,0.0,2.6499,2.6499,2.6499,2.6499,2.6499,2.6499,2.6499,2.6499,2.6499,2.6499,2.6499,2.6499,2.6499,2.6499,2.6499,2.6499,2.6499,2.6499,2.6499,2.6499,2.6499,2.6361,2.5737,2.5209,2.4669,2.4117,2.3521,2.3108,2.3108,2.3108,2.3108,2.3108,2.2793,0.0,0.0,0.0,0.0,0.0,0.0,2.0529,0.0,0.0,0.0,0.0,0.0,1.9299,1.9299,1.9694,2.0494,2.1815,0.0,0.0,0.0,0.0,0.0,0.0,0.0,0.0,2.3144,2.3383,2.2962,2.1952,2.1039,2.0605,2.0605,2.0605,2.0605,2.0654,2.1299,2.207,2.2818,2.3013,2.3091,2.3091,2.3091,2.3091,2.3091,2.259,2.311,2.3818,2.4826,2.5004,2.5264,2.606,2.6349,2.6499,2.6499,2.6499,2.6499,2.6499,2.6499,2.6499,2.6499,2.6499,2.6499,2.6499,2.6499,2.6499,2.6499,2.6499,2.6499,2.6499,2.6499,2.6499,0.0,2.5699,2.5194,0.0,0.0,2.5335,2.5335,0.0,0.0,0.0,0.0,2.6499,2.6499,2.6499,2.6499,2.6499,2.6499,2.6499,2.6499,2.6499,2.6499,2.6499,2.6499,2.6499,2.6499,2.6499,2.6499,2.6499,2.6499,2.6499,2.6499,2.6499,2.6499,2.6386,2.5921,2.5385,2.4845,2.4293,2.3697,2.3246,2.3133,2.3108,2.3108,2.3108,2.3108,0.0,0.0,0.0,0.0,0.0,0.0,0.0,0.0,0.0,0.0,1.9716,0.0,0.0,0.0,1.9398,1.9977,2.1522,2.0974,2.129,0.0,0.0,2.251,2.342,0.0,2.3634,0.0,2.3327,2.2664,2.1669,2.0934,2.0605,2.0605,2.0605,2.0713,2.0948,2.1699,2.2461,2.3091,2.3091,2.3091,2.3091,2.3091,2.3091,2.3091,2.4528,2.4047,2.3818,2.4826,2.5004,2.5052,2.5123,2.5908,2.6499,2.6499,2.6499,2.6499,2.6499,2.6499,2.6499,2.6499,2.6499,2.6499,2.6499,2.6499,2.6499,2.6499,2.6499,2.6499,2.6499,2.6499,2.6499,0.0,2.6418,2.5873,0.0,0.0,0.0,0.0,0.0,0.0,0.0,2.6499,2.6499,2.6499,2.6499,2.6499,2.6499,2.6499,2.6499,2.6499,2.6499,2.6499,2.6499,2.6499,2.6499,2.6499,2.6499,2.6499,2.6499,2.6499,2.6499,2.6499,2.6499,2.6499,2.6474,2.6424,2.5984,2.5385,2.4838,2.4318,2.3766,2.3208,2.3108,2.3108,2.3108,2.3108,2.3078,0.0,0.0,0.0,0.0,0.0,2.2702,2.1877,0.0,0.0,2.0558,1.9748,0.0,0.0,1.9759,1.9726,2.0655,2.0655,2.1037,2.197,0.0,2.2312,2.1661,2.33,2.3281,2.1647,2.2004,2.1631,2.0712,2.0644,2.0605,2.0605,2.0605,2.1055,2.1797,2.2266,2.2682,2.3091,2.3091,2.3091,2.3091,2.3091,2.3091,2.3091,2.4036,2.3781,2.3818,2.4826,2.5004,0.0,0.0,2.6519,2.6989,2.6989,2.67,2.6612,2.6952,2.6989,2.7115,2.7419,2.7444,2.7444,2.7444,2.7165,2.6989,2.6989,2.6663,2.6499,2.6499,2.6499,2.6499,0.0,0.0,0.0,0.0,0.0,0.0,0.0,0.0,2.6499,2.6499,2.6499,2.6499,2.6499,2.6499,2.6499,2.6499,2.6499,2.6499,2.6499,2.6499,2.6499,2.6499,2.6499,2.6499,2.6499,2.6499,2.6499,2.6499,2.6499,2.6499,2.6499,2.6499,2.6499,2.6499,2.6499,2.6059,2.546,2.4913,2.4393,2.3841,2.3221,2.3108,2.3108,2.3108,2.3108,2.3108,0.0,0.0,0.0,0.0,0.0,0.0,2.2659,0.0,2.2279,0.0,2.059,0.0,0.0,0.0,1.9144,2.0526,2.059,0.0,2.1112,0.0,2.3216,2.2684,2.4256,2.4246,2.2641,2.2837,2.2075,2.0605,2.0605,2.0752,2.0967,2.0967,2.1455,2.2275,2.2441,2.2754,2.3091,2.3091,2.3091,2.3091,2.3091,2.3091,2.3091,2.3891,2.3927,2.4311,2.5469,2.5683,2.598,2.6847,2.7268,2.7519,2.7519,2.7216,2.7128,2.7482,2.7519,2.7682,2.8072,2.8109,2.8109,2.8109,2.7745,2.7519,2.7519,2.7027,0.0,2.6738,2.6575,2.6499,2.6499,2.5099,0.0,0.0,0.0,0.0,0.0,2.6499,2.6499,2.6499,2.6499,2.6499,2.6499,2.6499,2.6499,2.6499,2.6499,2.6499,2.6499,2.6499,2.6499,2.6499,2.6499,2.6499,2.6499,2.6499,2.6499,2.6499,2.6499,2.6499,2.6499,2.6499,2.6499,2.6499,2.6499,2.6185,2.5711,2.5172,2.4632,2.4029,2.3258,2.3108,2.3108,2.3108,2.3108,2.3108,2.3108,0.0,0.0,0.0,0.0,0.0,0.0,2.3108,2.2884,2.2322,2.1491,0.0,0.0,0.0,0.0,0.0,0.0,0.0,0.0,0.0,0.0,0.0,2.4548,2.4495,2.3478,2.2925,2.1935,2.0605,2.0742,2.0937,2.121,2.1463,2.1912,2.2519,2.2646,2.2828,2.3091,2.3091,2.3091,2.3091,2.3091,2.3091,2.3091,2.4791,2.4969,2.5468,2.6991,2.7268,2.7457,2.8009,2.8097,2.8097,2.8097,2.8084,2.8084,2.8097,2.8097,2.8097,2.8109,2.8109,2.8109,2.8109,2.8097,2.8097,0.0,0.0,2.7268,2.7268,2.6776,2.6499,2.6499,0.0,0.0,2.6487,0.0,2.6499,2.6499,2.6499,2.6499,2.6499,2.6499,2.6499,2.6499,2.6499,2.6499,2.6499,2.6499,2.6499,2.6499,2.6499,2.6499,2.6499,2.6499,2.6499,2.6499,2.6499,2.6499,2.6499,2.6499,2.6499,2.6499,2.6499,2.6499,2.6499,2.6499,2.6487,2.6336,2.5724,2.5184,2.4462,2.3333,2.3108,2.3108,2.3108,2.3108,2.3108,2.3108,0.0,0.0,0.0,0.0,0.0,2.3108,2.3108,2.3108,2.3078,2.2353,0.0,0.0,0.0,0.0,0.0,0.0,0.0,2.2638,2.3227,0.0,2.4297,2.3797,2.3514,2.3489,2.1565,2.0644,2.0615,2.1025,2.119,2.1239,2.2129,2.25,2.2549,2.2916,2.3091,2.3091,2.3091,2.3091,2.3091,2.3091,2.3091,2.3091,2.4789,2.5492,2.6171,2.6673,2.736,2.7896,2.8084,2.8423,2.8662,2.8662,2.9013,2.9252,2.9252,2.89,2.8825,0.0,2.9252,2.9252,0.0,2.8888,2.8662,2.8662,2.8134,2.7846,2.7846,2.767,2.7394,2.7052,0.0,0.0,0.0,2.6176,2.6499,2.6499,2.6499,2.6499,2.6499,2.6499,2.6499,2.6499,2.6499,2.6499,2.6499,2.6499,2.6499,2.6499,2.6499,2.6499,2.6499,2.6499,2.6499,2.6499,2.6499,2.6499,2.6499,2.6499,2.6499,2.6499,2.6499,2.6499,2.6499,2.6499,2.6499,2.6336,2.5724,2.4908,2.401,2.3258,2.3108,2.3108,2.3108,2.3108,2.3108,2.3108,2.3108,0.0,0.0,0.0,0.0,2.3108,2.3108,2.3108,2.3108,2.2384,0.0,0.0,0.0,0.0,0.0,0.0,0.0,0.0,2.3827,0.0,2.4297,2.4437,2.4192,2.3478,2.2188,2.1354,2.1025,2.1132,2.1512,2.2077,2.2393,2.2676,2.2906,2.3042,2.3091,2.3091,2.3091,2.3091,2.3091,2.3091,2.3091,2.3091,2.4787,2.5381,2.5923,2.6109,2.6721,2.7262,2.7466,2.7779,2.7996,2.7996,2.8337,2.8542,2.8542,2.8592,0.0,2.9715,2.9404,2.9326,2.9753,2.9453,2.9252,2.9252,2.8712,2.8411,2.8411,0.0,0.0,2.7595,2.6967,2.6396,2.5885,2.6509,2.6688,2.6499,2.6499,2.6499,2.6499,2.6499,2.6499,2.6499,2.6499,2.6499,2.6499,2.6499,2.6499,2.6499,2.6499,2.6499,2.6499,2.6499,2.6499,2.6499,2.6499,2.6499,2.6499,2.6499,2.6499,2.6499,2.6499,2.6499,2.6499,2.6499,2.6499,2.6298,2.5485,2.4795,2.4079,2.3271,2.3108,2.3108,2.3108,2.3108,2.3108,2.3108,2.3108,2.3108,2.3108,0.0,0.0,0.0,0.0,0.0,0.0,2.2641,2.2125,0.0,0.0,0.0,0.0,0.0,0.0,2.2966,2.4681,0.0,2.5115,2.4673,2.412,2.3478,2.2292,2.1518,2.121,2.1522,2.2012,2.2519,2.2676,2.2847,2.3091,2.3091,2.3091,2.3091,2.3091,2.3091,2.3091,2.3091,2.3091,2.3091,2.469,2.4769,2.4952,0.0,2.5605,0.0,2.6405,2.6524,2.6524,2.6524,2.6524,2.6524,2.6524,2.74,2.8438,2.9573,0.0,0.0,0.0,2.9792,2.9792,2.9792,2.9277,2.895,2.895,2.8486,2.821,2.816,2.8122,2.7846,2.7379,2.7379,2.7102,2.6612,2.6612,2.6612,2.6612,2.6562,2.6549,2.6549,2.6512,2.6499,2.6499,2.6499,2.6499,2.6499,2.6499,2.6499,2.6499,2.6499,2.6499,2.6499,2.6499,2.6499,2.6499,2.6499,2.6499,2.6499,2.6499,2.6499,2.6499,2.6499,2.6499,2.6223,2.5121,2.4813,2.4474,2.3396,2.3133,2.3108,2.3108,2.3108,2.3108,2.3108,2.3108,2.3108,2.3108,0.0,0.0,0.0,0.0,0.0,0.0,2.3145,2.314,0.0,0.0,0.0,0.0,0.0,2.2821,2.5528,2.5636,2.5912,2.6383,2.4469,2.3463,2.3324,2.1912,2.122,2.1307,2.2148,2.2529,2.2578,2.2925,2.3091,2.3091,2.3091,2.3091,2.3091,2.3091,2.3091,2.3091,2.3091,2.3091,2.3091,0.0,0.0,2.4828,2.4976,2.5716,2.6337,2.6461,2.6524,2.6524,2.6524,2.6524,2.6524,2.6524,2.6719,2.7331,2.8398,2.9067,2.9495,2.9792,2.9792,2.9792,2.9792,2.9666,2.9591,2.9591,2.9465,2.9176,2.87,2.831,2.8047,2.7908,2.7908,2.7846,2.772,2.772,2.772,2.7682,2.7268,2.7115,2.709,2.6663,2.6499,2.6499,2.6499,2.6499,2.6499,2.6499,2.6499,2.6499,2.6499,2.6499,2.6499,2.6499,2.6499,2.6499,2.6499,2.6499,2.6499,2.6499,2.6499,2.6499,2.6499,2.6499,2.6311,2.5573,2.5109,2.4619,2.3941,2.3409,2.3108,2.3108,2.3108,2.3108,2.3108,2.3108,2.3108,2.3108,2.3108,0.0,0.0,2.3108,2.3108,2.3108,2.354,2.353,0.0,0.0,0.0,0.0,2.3849,2.4239,2.5553,2.6059,2.5993,2.537,2.4108,2.2896,2.1717,2.1372,2.1541,2.2217,2.2422,2.2685,2.2955,2.3052,2.3091,2.3091,2.3091,2.3091,2.3091,2.3091,2.3091,2.3091,2.3091,2.3091,2.3091,2.3091,2.3594,2.4006,2.4006,2.451,2.4935,2.4935,2.4935,2.4935,2.4935,2.4935,2.4935,2.4935,2.5431,2.5964,2.6521,2.8068,2.9236,2.9753,2.9792,2.9792,2.9792,2.9792,2.9792,2.9792,2.9792,2.9641,2.9327,2.9026,2.875,2.8486,2.8486,2.8348,2.8109,2.8109,2.8109,2.8084,2.7783,2.7507,2.7256,2.6989,2.6713,2.6499,2.6499,2.6499,2.6499,2.6499,2.6499,2.6499,2.6499,2.6499,2.6499,2.6499,2.6499,2.6499,2.6499,2.6499,2.6499,2.6499,2.6499,2.6499,2.6499,2.6499,2.6336,2.5724,2.5197,2.4637,2.4117,2.3509,2.3108,2.3108,2.3108,2.3108,2.3108,2.3108,2.3108,2.3108,2.3108,0.0,2.3108,2.3333,2.3496,2.3496,2.4042,2.4165,2.3692,2.4148,0.0,2.4866,2.5157,2.5521,2.5988,2.5899,2.5558,2.5016,2.375,2.2489,2.12,2.159,2.2019,2.2519,2.2672,2.2877,2.3091,2.3091,2.3091,2.3091,2.3091,2.3091,2.3091,2.3091,2.3091,2.3091,2.3091,2.3091,2.3091,2.3091,2.3091,2.3091,2.3091,2.3091,2.3091,2.3091,2.3091,2.3091,2.3091,2.3091,2.3091,2.3091,2.4125,2.4787,2.4787,2.6685,2.8279,2.9248,2.93,2.9365,2.9534,2.9534,2.9624,2.9792,2.9792,2.9792,2.9792,2.9792,2.9541,2.9026,2.9026,2.8775,2.836,2.836,2.836,2.836,2.826,2.7908,2.7394,2.7318,2.6989,2.6499,2.6499,2.6499,2.6499,2.6499,2.6499,2.6499,2.6499,2.6499,2.6499,2.6499,2.6499,2.6499,2.6499,2.6499,2.6499,2.6499,2.6499,2.6499,2.6499,2.6499,2.6361,2.5837,2.5322,2.4808,2.433,2.3715,2.3233,2.3233,2.3158,2.3108,2.3108,2.3108,2.3133,2.3221,0.0,2.3271,2.3346,2.3816,2.4117,2.4117,2.4619,2.4913,2.4913,2.5423,2.5724,0.0,2.6223,2.6418,2.628,2.5441,2.4897,2.4681,2.3183,2.2127,2.1395,2.2168,2.2549,2.2617,2.2925,2.3091,2.3091,2.3091,2.3091,2.3091,2.3091,2.3091,2.3091,2.3091,2.3091,2.3091,2.3091,2.3091,2.3091,2.3091,2.3091,2.3091,2.3091,2.3091,2.3091,2.3091,2.3091,2.3091,2.3091,2.3091,2.3091,2.3091,2.4125,2.4787,2.4787,2.6005,2.6801,2.7017,2.7017,2.7424,2.8307,2.8347,2.8806,2.9792,2.9792,2.9792,2.9792,2.9792,2.9741,2.9654,2.9654,2.9616,2.9528,2.9528,2.9528,2.9503,2.8976,2.8486,2.7946,2.7469,2.6989,2.6499,2.6499,2.6499,2.6499,2.6499,2.6499,2.6499,2.6499,2.6499,2.6499,2.6499,2.6499,2.6499,2.6499,2.6499,2.6499,2.6499,2.6499,2.6499,2.6499,2.6499,2.6474,2.6386,2.5921,2.5448,2.5372,2.4556,2.3866,2.3866,2.3434,2.3108,2.3108,2.3108,2.3283,2.3803,0.0,2.4042,2.4474,2.4612,2.4695,2.4695,2.5172,2.5473,2.5473,2.6034,2.6361,2.6361,2.6449,2.6094,2.5264,2.5075,2.4363,2.3078,2.1996,2.1704,2.2314,2.2451,2.2705,2.3003,2.3062,2.3091,2.3091,2.3091,2.3091,2.3091,2.3091,2.3091,2.3091,2.3091,2.3091,2.3091,2.3091,2.3091,2.3091,2.3091,2.3091,2.3091,2.3091,2.3091,2.3091,2.3091,2.3091,2.3091,2.3091,2.3091,2.3091,2.3091,2.3551,2.3877,2.3877,2.4349,2.4681,2.4681,2.6378,2.7562,2.8096,2.8688,2.9275,2.9792,2.9792,2.9792,2.9792,2.9792,2.9792,2.9792,2.9792,2.9792,2.9792,2.9792,2.9792,2.9779,2.9503,2.9063,2.8461,2.7946,2.7394,2.6901,2.6612,2.6499,2.6499,2.6499,2.6499,2.6499,2.6499,2.6499,2.6499,2.6499,2.6499,2.6499,2.6499,2.6499,2.6499,2.6499,2.6499,2.6499,2.6499,2.6499,2.6499,2.6499,2.6047,2.5598,2.5598,2.4983,2.4443,2.4443,2.4199,2.401,2.401,2.401,0.0,0.0,2.4443,2.4531,2.4763,2.5071,2.5234,2.5234,2.5737,2.6097,2.6097,2.6348,2.6499,2.6499,2.599,2.5476,2.5004,2.42,2.3161,2.1908,2.1884,2.2077,2.251,2.2744,2.2906,2.3091,2.3091,2.3091,2.3091,2.3091,2.3091,2.3091,2.3091,2.3091,2.3091,2.3091,2.3091,2.3091,2.3091,2.3091,2.3091,2.3091,2.3091,2.3091,2.3091,2.3091,2.3091,2.3091,2.3091,2.3091,2.3091,2.3091,2.3091,2.3091,2.3091,2.3091,2.3091,2.3091,2.3091,2.3091,2.5994,2.7723,2.7723,2.9067,2.9792,2.9792,2.9792,2.9792,2.9792,2.9792,2.9792,2.9792,2.9792,2.9792,2.9792,2.9792,2.9792,2.9792,2.9792,2.9453,2.8838,2.8335,2.777,2.7218,2.67,2.6499,2.6499,2.6499,2.6499,2.6499,2.6499,2.6499,2.6499,2.6499,2.6499,2.6499,2.6499,2.6499,2.6499,2.6499,2.6499,2.6499,2.6499,2.6499,2.6499,2.6499,2.6147,2.5799,2.5799,2.5372,2.5008,2.5008,2.4863,2.4788,2.4788,0.0,0.0,0.0,2.5008,2.5059,2.5184,2.5548,2.5799,2.5799,2.6235,2.6499,2.6499,2.6499,2.6383,2.6164,2.5406,2.4838,2.4486,2.3308,2.2306,2.1533,2.2187,2.2568,2.2656,2.2945,2.3091,2.3091,2.3091,2.3091,2.3091,2.3091,2.3091,2.3091,2.3091,2.3091,2.3091,2.3091,2.3091,2.3091,2.3091,2.3091,2.3091,2.3091,2.3091,2.3091,2.3091,2.3091,2.3091,2.3091,2.3091,2.3091,2.3091,2.3091,2.3091,2.3091,2.3091,2.3091,2.3091,2.3091,2.3091,2.3091,2.5305,2.6637,2.6637,2.8673,2.9792,2.9792,2.9792,2.9792,2.9792,2.9792,2.9792,2.9792,2.9792,2.9792,2.9792,2.9792,2.9792,2.9792,2.9792,2.9453,2.8838,2.8335,2.777,2.7218,2.67,2.6499,2.6499,2.6499,2.6499,2.6499,2.6499,2.6499,2.6499,2.6499,2.6499,2.6499,2.6499,2.6499,2.6499,2.6499,2.6499,2.6499,2.6499,2.6499,2.6499,2.6499,2.6461,2.6436,2.6436,2.5971,2.5536,2.5536,2.5146,2.4788,2.4788,0.0,0.0,2.5473,2.5536,2.5737,2.6311,2.6411,2.6436,2.6436,2.6461,2.6499,2.6499,2.6499,2.6094,2.5158,2.504,2.4338,2.2889,2.2748,2.2603,2.2412,2.248,2.2705,2.3052,2.3081,2.3091,2.3091,2.3091,2.3091,2.3091,2.3091,2.3091,2.3091,2.3091,2.3091,2.3091,2.3091,2.3091,2.3091,2.3091,2.3091,2.3091,2.3091,2.3091,2.3091,2.3091,2.3091,2.3091,2.3091,2.3091,2.3091,2.3091,2.3091,2.3091,2.3091,2.3091,2.3091,2.3091,2.3091,2.3387,2.4135,2.4296,2.5641,2.8422,2.9339,2.9792,2.9792,2.9792,2.9792,2.9792,2.9792,2.9792,2.9792,2.9792,2.9792,2.9792,2.9792,2.9792,2.9792,2.9792,2.9666,2.939,2.8473,2.7984,2.7695,2.6839,2.6499,2.6499,2.6499,2.6499,2.6499,2.6499,2.6499,2.6499,2.6499,2.6499,2.6499,2.6499,2.6499,2.6499,2.6499,2.6499,2.6499,2.6499,2.6499,2.6499,2.6499,2.6499,2.6499,2.6499,2.6323,2.6172,2.6172,2.5996,2.5837,2.5837,0.0,2.5946,2.6135,2.6172,2.6248,2.6461,2.6499,2.6499,2.6499,2.6499,2.6499,2.6499,2.5908,2.5503,2.5384,2.4491,2.3531,2.2592,2.2571,2.2534,2.251,2.2773,2.2935,2.3091,2.3091,2.3091,2.3091,2.3091,2.3091,2.3091,2.3091,2.3091,2.3091,2.3091,2.3091,2.3091,2.3091,2.3091,2.3091,2.3091,2.3091,2.3091,2.3091,2.3091,2.3091,2.3091,2.3091,2.3091,2.3091,2.3091,2.3091,2.3091,2.3091,2.3091,2.3091,2.3091,2.3091,2.3091,2.3091,2.343,2.4211,2.4221,2.5557,2.8621,2.9417,2.9792,2.9792,2.9792,2.9792,2.9792,2.9792,2.9792,2.9792,2.9792,2.9792,2.9792,2.9792,2.9792,2.9792,2.9792,2.9792,2.9716,2.875,2.826,2.8009,2.7102,2.665,2.6499,2.6499,2.6499,2.6499,2.6499,2.6499,2.6499,2.6499,2.6499,2.6499,2.6499,2.6499,2.6499,2.6499,2.6499,2.6499,2.6499,2.6499,2.6499,2.6499,2.6499,2.6499,2.6499,2.6499,2.6499,2.6499,2.6499,2.6499,2.6499,2.6499,2.6499,2.6499,2.6499,2.6499,2.6499,2.6499,2.6499,2.6499,2.6499,2.6499,2.6499,2.5704,2.5093,2.491,2.3729,2.2866,2.25,2.2637,2.2672,2.2672,2.2955,2.3091,2.3091,2.3091,2.3091,2.3091,2.3091,2.3091,2.3091,2.3091,2.3091,2.3091,2.3091,2.3091,2.3091,2.3091,2.3091,2.3091,2.3091,2.3091,2.3091,2.3091,2.3091,2.3091,2.3091,2.3091,2.3091,2.3091,2.3091,2.3091,2.3091,2.3091,2.3091,2.3091,2.3091,2.3091,2.3091,2.3091,2.3091,2.3091,2.5231,2.6524,2.6524,2.8633,2.9792,2.9792,2.9792,2.9792,2.9792,2.9792,2.9792,2.9792,2.9792,2.9792,2.9792,2.9792,2.9792,2.9792,2.9792,2.9792,2.9741,2.9126,2.8562,2.8047,2.7494,2.6977,2.6499,2.6499,2.6499,2.6499,2.6499,2.6499,2.6499,2.6499,2.6499,2.6499,2.6499,2.6499,2.6499,2.6499,2.6499,2.6499,2.6499,2.6499,2.6499,2.6499,2.6499,2.6499,2.6499,2.6499,2.6499,2.6499,2.6499,2.6499,2.6499,2.6499,2.6499,2.6499,2.6499,2.6499,2.6499,2.6499,2.6499,2.6499,2.6499,2.6499,2.6499,2.5924,2.4933,2.3381,2.279,2.2519,2.2519,2.2877,2.3091,2.3091,2.3091,2.3091,2.3091,2.3091,2.3091,2.3091,2.3091,2.3091,2.3091,2.3091,2.3091,2.3091,2.3091,2.3091,2.3091,2.3091,2.3091,2.3091,2.3091,2.3091,2.3091,2.3091,2.3091,2.3091,2.3091,2.3091,2.3091,2.3091,2.3091,2.3091,2.3091,2.3091,2.3091,2.3091,2.3091,2.3091,2.3091,2.3091,2.3091,2.3091,2.5231,2.6524,2.6524,2.8633,2.9792,2.9792,2.9792,2.9792,2.9792,2.9792,2.9792,2.9792,2.9792,2.9792,2.9792,2.9792,2.9792,2.9792,2.9792,2.9792,2.9741,2.9126,2.8562,2.8047,2.7494,2.6977,2.6499,2.6499,2.6499,2.6499,2.6499,2.6499,2.6499,2.6499,2.6499,2.6499,2.6499,2.6499,2.6499,2.6499,2.6499,2.6499,2.6499,2.6499,2.6499,2.6499,2.6499,2.6499,2.6499,2.6499,2.6499,2.6499,2.6499,2.6499,2.6499,2.6499,2.6499,2.6499,2.6499,2.6499,2.6499,2.6499,2.6499,2.6499,2.5873,2.5563,2.5841,2.5018,2.3972,2.2788,2.2834,2.2906,2.2906,2.3033,2.3091,2.3091,2.3091,2.3091,2.3091,2.3091,2.3091,2.3091,2.3091,2.3091,2.3091,2.3091,2.3091,2.3091,2.3091,2.3091,2.3091,2.3091,2.3091,2.3091,2.3091,2.3091,2.3091,2.3091,2.3091,2.3091,2.3091,2.3091,2.3091,2.3091,2.3091,2.3091,2.3091,2.3091,2.3091,2.3091,2.3091,2.3091,2.3091,2.3091,2.3299,2.3757,2.5052,2.6016,2.6472,2.7758,2.891,2.9792,2.9792,2.9792,2.9792,2.9792,2.9792,2.9792,2.9792,2.9792,2.9792,2.9792,2.9792,2.9792,2.9792,2.9792,2.9767,2.9415,2.8938,2.8373,2.7821,2.7268,2.6788,2.6575,2.6499,2.6499,2.6499,2.6499,2.6499,2.6499,2.6499,2.6499,2.6499,2.6499,2.6499,2.6499,2.6499,2.6499,2.6499,2.6499,2.6499,2.6499,2.6499,2.6499,2.6499,2.6499,2.6499,2.6499,2.6499,2.6499,2.6499,2.6499,2.6499,2.6499,2.6499,2.6499,2.6499,2.6499,2.6402,2.6168,2.56,2.516,2.4984,2.4379,2.3605,2.2787,2.2955,2.3091,2.3091,2.3091,2.3091,2.3091,2.3091,2.3091,2.3091,2.3091,2.3091,2.3091,2.3091,2.3091,2.3091,2.3091,2.3091,2.3091,2.3091,2.3091,2.3091,2.3091,2.3091,2.3091,2.3091,2.3091,2.3091,2.3091,2.3091,2.3091,2.3091,2.3091,2.3091,2.3091,2.3091,2.3091,2.3091,2.3091,2.3091,2.3091,2.3091,2.3091,2.3091,2.3091,2.3551,2.4585,2.467,2.5179,2.6307,2.6348,2.7342,2.9456,2.9585,2.9663,2.9663,2.9753,2.9792,2.9792,2.9792,2.9792,2.9792,2.9792,2.9792,2.9792,2.9792,2.9792,2.9792,2.9792,2.9453,2.8838,2.8373,2.7808,2.7253,2.6751,2.6537,2.6499,2.6499,2.6499,2.6499,2.6499,2.6499,2.6499,2.6499,2.6499,2.6499,2.6499,2.6499,2.6499,2.6499,2.6499,2.6499,2.6499,2.6499,2.6499,2.6499,2.6499,2.6499,2.6499,2.6499,2.6499,2.6499,2.6499,2.6499,2.6499,2.6499,2.6499,2.6499,2.6468,2.6202,2.5645,2.5505,2.5,2.396,2.3898,2.3684,2.3115,2.3091,2.3091,2.3091,2.3091,2.3091,2.3091,2.3091,2.3091,2.3091,2.3091,2.3091,2.3091,2.3091,2.3091,2.3091,2.3091,2.3091,2.3091,2.3091,2.3091,2.3091,2.3091,2.3091,2.3091,2.3091,2.3091,2.3091,2.3091,2.3091,2.3091,2.3091,2.3091,2.3091,2.3091,2.3091,2.3091,2.3091,2.3091,2.3091,2.3091,2.3091,2.3091,2.3091,2.3091,2.3222,2.3464,2.3464,2.3963,2.5126,2.5168,2.5797,2.718,2.8028,2.8466,2.8466,2.9365,2.9792,2.9792,2.9792,2.9792,2.9792,2.9792,2.9792,2.9792,2.9792,2.9792,2.9792,2.9792,2.9453,2.8875,2.8762,2.8134,2.7268,2.719,2.6864,2.6499,2.6499,2.6499,2.6499,2.6499,2.6499,2.6499,2.6499,2.6499,2.6499,2.6499,2.6499,2.6499,2.6499,2.6499,2.6499,2.6499,2.6499,2.6499,2.6499,2.6499,2.6499,2.6499,2.6499,2.6499,2.6499,2.6499,2.6499,2.6499,2.6499,2.6499,2.6499,2.6088,2.5756,2.5607,2.4843,2.3916,2.2904,2.3104,2.3254,2.3091,2.3091,2.3091,2.3091,2.3091,2.3091,2.3091,2.3091,2.3091,2.3091,2.3091,2.3091,2.3091,2.3091,2.3091,2.3091,2.3091,2.3091,2.3091,2.3091,2.3091,2.3091,2.3091,2.3091,2.3091,2.3091,2.3091,2.3091,2.3091,2.3091,2.3091,2.3091,2.3091,2.3091,2.3091,2.3091,2.3091,2.3091,2.3091,2.3091,2.3091,2.3091,2.3091,2.3091,2.3091,2.3091,2.3091,2.3091,2.3387,2.3963,2.4006,2.4253,2.4851,2.5953,2.6767,2.7319,2.7919,2.8502,2.8976,2.8976,2.9287,2.9792,2.9792,2.9792,2.9792,2.9792,2.9792,2.9792,2.9792,2.9616,2.9315,2.9001,2.8561,2.7996,2.7469,2.6964,2.6499,2.6499,2.6499,2.6499,2.6499,2.6499,2.6499,2.6499,2.6499,2.6499,2.6499,2.6499,2.6499,2.6499,2.6499,2.6499,2.6499,2.6499,2.6499,2.6499,2.6499,2.6499,2.6499,2.6499,2.6499,2.6499,2.6094,2.5769,2.5769,2.6012,2.5982,2.5469,2.5763,2.5716,2.4909,2.4083,2.335,2.2812,2.2974,2.3091,2.3091,2.3091,2.3091,2.3091,2.3091,2.3091,2.3091,2.3091,2.3091,2.3091,2.3091,2.3091,2.3091,2.3091,2.3091,2.3091,2.3091,2.3091,2.3091,2.3091,2.3091,2.3091,2.3091,2.3091,2.3091,2.3091,2.3091,2.3091,2.3091,2.3091,2.3091,2.3091,2.3091,2.3091,2.3091,2.3091,2.3091,2.3091,2.3091,2.3091,2.3091,2.3091,2.3091,2.3091,2.3091,2.3091,2.3091,2.3091,2.3091,2.3091,2.3091,2.3091,2.3091,2.4049,2.5094,2.6224,2.6389,2.7046,2.8096,2.8096,2.8727,2.9792,2.9792,2.9792,2.9792,2.9792,2.9792,2.9792,2.9792,2.9792,2.9741,2.9252,2.8976,2.8762,2.7896,2.719,2.6637,2.6637,2.6575,2.6499,2.6499,2.6499,2.6499,2.6499,2.6499,2.6499,2.6499,2.6499,2.6499,2.6499,2.6499,2.6499,2.6499,2.6499,2.6499,2.6499,2.6499,2.6499,2.6499,2.6499,2.6452,2.628,2.5772,2.529,2.492,2.5454,2.5515,2.4426,2.5337,2.5498,2.4013,2.3385,2.3091,2.3091,2.3091,2.3091,2.3091,2.3091,2.3091,2.3091,2.3091,2.3091,2.3091,2.3091,2.3091,2.3091,2.3091,2.3091,2.3091,2.3091,2.3091,2.3091,2.3091,2.3091,2.3091,2.3091,2.3091,2.3091,2.3091,2.3091,2.3091,2.3091,2.3091,2.3091,2.3091,2.3091,2.3091,2.3091,2.3091,2.3091,2.3091,2.3091,2.3091,2.3091,2.3091,2.3091,2.3091,2.3091,2.3091,2.3091,2.3091,2.3091,2.3091,2.3091,2.3091,2.3091,2.3091,2.3091,2.3091,2.3256,2.3887,2.5041,2.6016,2.7046,2.8096,2.8096,2.8727,2.9792,2.9792,2.9792,2.9792,2.9792,2.9792,2.9792,2.9792,2.9792,2.9779,2.9704,2.9365,2.8875,2.8725,2.8047,2.7203,2.7203,2.6889,2.6499,2.6499,2.6499,2.6499,2.6499,2.6499,2.6499,2.6499,2.6499,2.6499,2.6499,2.6499,2.6499,2.6499,2.6499,2.6499,2.6499,2.6499,2.6499,2.6499,2.6499,2.6211,2.5335,2.6196,2.6346,2.4539,2.5524,2.599,2.4842,2.4505,2.4023,2.3301,2.3149,2.3091,2.3091,2.3091,2.3091,2.3091,2.3091,2.3091,2.3091,2.3091,2.3091,2.3091,2.3091,2.3091,2.3091,2.3091,2.3091,2.3091,2.3091,2.3091,2.3091,2.3091,2.3091,2.3091,2.3091,2.3091,2.3091,2.3091,2.3091,2.3091,2.3091,2.3091,2.3091,2.3091,2.3091,2.3091,2.3091,2.3091,2.3091,2.3091,2.3091,2.3091,2.3091,2.3091,2.3091,2.3091,2.3091,2.3091,2.3091,2.3091,2.3091,2.3091,2.3091,2.3091,2.3091,2.3091,2.3091,2.3091,2.3091,2.3343,2.3844,2.4339,2.5504,2.7209,2.7209,2.8119,2.9792,2.9792,2.9792,2.9792,2.9792,2.9792,2.9792,2.9792,2.9792,2.9792,2.9792,2.9628,2.9365,2.9001,2.8411,2.7745,2.7745,2.7369,2.6952,2.6952,2.6738,2.6499,2.6499,2.6499,2.6499,2.6499,2.6094,2.5652,2.5652,2.5252,2.4981,2.5546,2.5652,2.5804,2.6383,2.6499,2.6499,2.6499,2.6025,2.5573,2.5385,2.4976,2.4495,2.3801,2.4583,2.511,2.4835,2.4053,2.3395,2.3125,2.3091,2.3091,2.3091,2.3091,2.3091,2.3091,2.3091,2.3091,2.3091,2.3091,2.3091,2.3091,2.3091,2.3091,2.3091,2.3091,2.3091,2.3091,2.3091,2.3091,2.3091,2.3091,2.3091,2.3091,2.3091,2.3091,2.3091,2.3091,2.3091,2.3091,2.3091,2.3091,2.3091]}]]